<?xml version="1.0" encoding="UTF-8"?>
<gpx version="1.1" creator="Endomondo.com" xsi:schemaLocation="http://www.topografix.com/GPX/1/1 http://www.topografix.com/GPX/1/1/gpx.xsd http://www.garmin.com/xmlschemas/GpxExtensions/v3 http://www.garmin.com/xmlschemas/GpxExtensionsv3.xsd http://www.garmin.com/xmlschemas/TrackPointExtension/v1 http://www.garmin.com/xmlschemas/TrackPointExtensionv1.xsd" xmlns="http://www.topografix.com/GPX/1/1" xmlns:gpxtpx="http://www.garmin.com/xmlschemas/TrackPointExtension/v1" xmlns:gpxx="http://www.garmin.com/xmlschemas/GpxExtensions/v3" xmlns:xsi="http://www.w3.org/2001/XMLSchema-instance">
  <metadata>
    <author>
      <name>jose manuel</name>
      <email id="jmanuelguerrero" domain="gmail.com"/>
    </author>
    <link href="http://www.endomondo.com">
      <text>Endomondo</text>
    </link>
    <time>2016-09-07T06:31:42Z</time>
  </metadata>
  <trk>
    <src>http://www.endomondo.com/</src>
    <link href="https://www.endomondo.com/workouts/800341890/159315">
      <text>endomondo</text>
    </link>
    <type>HIKING</type>
    <trkseg>
      <trkpt lat="42.8742824" lon="-5.3739339">
        <time>2016-09-06T14:52:50Z</time>
      </trkpt>
      <trkpt lat="42.8742824" lon="-5.3739339">
        <ele>1574.7</ele>
        <time>2016-09-06T14:52:50Z</time>
      </trkpt>
      <trkpt lat="42.8743278" lon="-5.373962">
        <ele>1575.2</ele>
        <time>2016-09-06T14:52:52Z</time>
      </trkpt>
      <trkpt lat="42.8743114" lon="-5.3740368">
        <ele>1572.9</ele>
        <time>2016-09-06T14:53:24Z</time>
      </trkpt>
      <trkpt lat="42.8743312" lon="-5.373975">
        <ele>1572.8</ele>
        <time>2016-09-06T14:57:38Z</time>
      </trkpt>
      <trkpt lat="42.8743001" lon="-5.3739243">
        <ele>1576.1</ele>
        <time>2016-09-06T15:02:46Z</time>
      </trkpt>
      <trkpt lat="42.8742061" lon="-5.3738962">
        <ele>1575.7</ele>
        <time>2016-09-06T15:03:13Z</time>
      </trkpt>
      <trkpt lat="42.8741962" lon="-5.3738346">
        <ele>1575.6</ele>
        <time>2016-09-06T15:03:15Z</time>
      </trkpt>
      <trkpt lat="42.874227" lon="-5.3737697">
        <ele>1575.6</ele>
        <time>2016-09-06T15:03:19Z</time>
      </trkpt>
      <trkpt lat="42.874278" lon="-5.3737704">
        <ele>1573.4</ele>
        <time>2016-09-06T15:04:29Z</time>
      </trkpt>
      <trkpt lat="42.8742327" lon="-5.3737666">
        <ele>1572.8</ele>
        <time>2016-09-06T15:05:09Z</time>
      </trkpt>
      <trkpt lat="42.8742802" lon="-5.373767">
        <ele>1572.9</ele>
        <time>2016-09-06T15:05:29Z</time>
      </trkpt>
      <trkpt lat="42.8743296" lon="-5.3737824">
        <ele>1573.2</ele>
        <time>2016-09-06T15:05:40Z</time>
      </trkpt>
      <trkpt lat="42.8743663" lon="-5.3738236">
        <ele>1573.3</ele>
        <time>2016-09-06T15:05:47Z</time>
      </trkpt>
      <trkpt lat="42.8743524" lon="-5.3738842">
        <ele>1575.0</ele>
        <time>2016-09-06T15:07:10Z</time>
      </trkpt>
      <trkpt lat="42.8743054" lon="-5.3738597">
        <ele>1571.1</ele>
        <time>2016-09-06T15:08:37Z</time>
      </trkpt>
      <trkpt lat="42.8743025" lon="-5.3739229">
        <ele>1569.5</ele>
        <time>2016-09-06T15:09:31Z</time>
      </trkpt>
      <trkpt lat="42.8742601" lon="-5.3739583">
        <ele>1567.8</ele>
        <time>2016-09-06T15:11:18Z</time>
      </trkpt>
      <trkpt lat="42.8741547" lon="-5.3740441">
        <ele>1567.8</ele>
        <time>2016-09-06T15:11:22Z</time>
      </trkpt>
      <trkpt lat="42.8740686" lon="-5.3740867">
        <ele>1567.8</ele>
        <time>2016-09-06T15:11:24Z</time>
      </trkpt>
      <trkpt lat="42.873957" lon="-5.3739961">
        <ele>1567.9</ele>
        <time>2016-09-06T15:11:26Z</time>
      </trkpt>
      <trkpt lat="42.8737905" lon="-5.3739875">
        <ele>1567.9</ele>
        <time>2016-09-06T15:11:28Z</time>
      </trkpt>
      <trkpt lat="42.8736591" lon="-5.3739731">
        <ele>1567.9</ele>
        <time>2016-09-06T15:11:30Z</time>
      </trkpt>
      <trkpt lat="42.8735486" lon="-5.3739561">
        <ele>1567.9</ele>
        <time>2016-09-06T15:11:32Z</time>
      </trkpt>
      <trkpt lat="42.8734887" lon="-5.3739358">
        <ele>1567.9</ele>
        <time>2016-09-06T15:11:33Z</time>
      </trkpt>
      <trkpt lat="42.8734353" lon="-5.373924">
        <ele>1567.9</ele>
        <time>2016-09-06T15:11:34Z</time>
      </trkpt>
      <trkpt lat="42.873314" lon="-5.3738659">
        <ele>1567.9</ele>
        <time>2016-09-06T15:11:37Z</time>
      </trkpt>
      <trkpt lat="42.8731991" lon="-5.3738436">
        <ele>1567.9</ele>
        <time>2016-09-06T15:11:39Z</time>
      </trkpt>
      <trkpt lat="42.8731419" lon="-5.3738121">
        <ele>1567.9</ele>
        <time>2016-09-06T15:11:40Z</time>
      </trkpt>
      <trkpt lat="42.8730947" lon="-5.3737671">
        <ele>1567.9</ele>
        <time>2016-09-06T15:11:41Z</time>
      </trkpt>
      <trkpt lat="42.8730476" lon="-5.3737224">
        <ele>1567.9</ele>
        <time>2016-09-06T15:11:42Z</time>
      </trkpt>
      <trkpt lat="42.8729846" lon="-5.3736698">
        <ele>1567.9</ele>
        <time>2016-09-06T15:11:43Z</time>
      </trkpt>
      <trkpt lat="42.8728584" lon="-5.3735541">
        <ele>1567.9</ele>
        <time>2016-09-06T15:11:45Z</time>
      </trkpt>
      <trkpt lat="42.8727586" lon="-5.3733895">
        <ele>1567.9</ele>
        <time>2016-09-06T15:11:48Z</time>
      </trkpt>
      <trkpt lat="42.8726462" lon="-5.3732597">
        <ele>1567.9</ele>
        <time>2016-09-06T15:11:51Z</time>
      </trkpt>
      <trkpt lat="42.8724827" lon="-5.3732137">
        <ele>1568.0</ele>
        <time>2016-09-06T15:11:56Z</time>
      </trkpt>
      <trkpt lat="42.8722846" lon="-5.3730252">
        <ele>1568.0</ele>
        <time>2016-09-06T15:12:01Z</time>
      </trkpt>
      <trkpt lat="42.8721475" lon="-5.3729926">
        <ele>1567.6</ele>
        <time>2016-09-06T15:12:04Z</time>
      </trkpt>
      <trkpt lat="42.8719955" lon="-5.3728513">
        <ele>1567.2</ele>
        <time>2016-09-06T15:12:08Z</time>
      </trkpt>
      <trkpt lat="42.8718648" lon="-5.3727123">
        <ele>1566.7</ele>
        <time>2016-09-06T15:12:11Z</time>
      </trkpt>
      <trkpt lat="42.8717189" lon="-5.3725542">
        <ele>1566.3</ele>
        <time>2016-09-06T15:12:14Z</time>
      </trkpt>
      <trkpt lat="42.8715924" lon="-5.3723673">
        <ele>1566.0</ele>
        <time>2016-09-06T15:12:17Z</time>
      </trkpt>
      <trkpt lat="42.8715102" lon="-5.372214">
        <ele>1565.8</ele>
        <time>2016-09-06T15:12:19Z</time>
      </trkpt>
      <trkpt lat="42.8714198" lon="-5.3720679">
        <ele>1565.5</ele>
        <time>2016-09-06T15:12:21Z</time>
      </trkpt>
      <trkpt lat="42.8712999" lon="-5.3718812">
        <ele>1565.2</ele>
        <time>2016-09-06T15:12:24Z</time>
      </trkpt>
      <trkpt lat="42.8711407" lon="-5.3717058">
        <ele>1564.7</ele>
        <time>2016-09-06T15:12:27Z</time>
      </trkpt>
      <trkpt lat="42.8710359" lon="-5.3715777">
        <ele>1564.7</ele>
        <time>2016-09-06T15:12:29Z</time>
      </trkpt>
      <trkpt lat="42.8709435" lon="-5.3714197">
        <ele>1564.7</ele>
        <time>2016-09-06T15:12:31Z</time>
      </trkpt>
      <trkpt lat="42.8708632" lon="-5.3712479">
        <ele>1564.5</ele>
        <time>2016-09-06T15:12:33Z</time>
      </trkpt>
      <trkpt lat="42.8707875" lon="-5.3710938">
        <ele>1564.1</ele>
        <time>2016-09-06T15:12:35Z</time>
      </trkpt>
      <trkpt lat="42.8706807" lon="-5.3709222">
        <ele>1563.2</ele>
        <time>2016-09-06T15:12:37Z</time>
      </trkpt>
      <trkpt lat="42.8705961" lon="-5.3707605">
        <ele>1562.3</ele>
        <time>2016-09-06T15:12:39Z</time>
      </trkpt>
      <trkpt lat="42.8705469" lon="-5.3705367">
        <ele>1560.8</ele>
        <time>2016-09-06T15:12:41Z</time>
      </trkpt>
      <trkpt lat="42.8705469" lon="-5.3702966">
        <ele>1558.1</ele>
        <time>2016-09-06T15:12:43Z</time>
      </trkpt>
      <trkpt lat="42.8705586" lon="-5.3700546">
        <ele>1554.8</ele>
        <time>2016-09-06T15:12:45Z</time>
      </trkpt>
      <trkpt lat="42.870482" lon="-5.3698569">
        <ele>1553.0</ele>
        <time>2016-09-06T15:12:47Z</time>
      </trkpt>
      <trkpt lat="42.870334" lon="-5.3697823">
        <ele>1549.3</ele>
        <time>2016-09-06T15:12:50Z</time>
      </trkpt>
      <trkpt lat="42.8701512" lon="-5.3698089">
        <ele>1544.3</ele>
        <time>2016-09-06T15:12:54Z</time>
      </trkpt>
      <trkpt lat="42.870027" lon="-5.3696234">
        <ele>1539.7</ele>
        <time>2016-09-06T15:12:56Z</time>
      </trkpt>
      <trkpt lat="42.8699702" lon="-5.3693663">
        <ele>1539.7</ele>
        <time>2016-09-06T15:12:58Z</time>
      </trkpt>
      <trkpt lat="42.8699195" lon="-5.3691391">
        <ele>1537.1</ele>
        <time>2016-09-06T15:13:00Z</time>
      </trkpt>
      <trkpt lat="42.8698982" lon="-5.3688408">
        <ele>1536.2</ele>
        <time>2016-09-06T15:13:02Z</time>
      </trkpt>
      <trkpt lat="42.8699077" lon="-5.3685464">
        <ele>1535.7</ele>
        <time>2016-09-06T15:13:04Z</time>
      </trkpt>
      <trkpt lat="42.8698981" lon="-5.3682999">
        <ele>1535.1</ele>
        <time>2016-09-06T15:13:06Z</time>
      </trkpt>
      <trkpt lat="42.8698621" lon="-5.3680764">
        <ele>1534.6</ele>
        <time>2016-09-06T15:13:08Z</time>
      </trkpt>
      <trkpt lat="42.8698525" lon="-5.3678547">
        <ele>1534.2</ele>
        <time>2016-09-06T15:13:10Z</time>
      </trkpt>
      <trkpt lat="42.8699012" lon="-5.3675904">
        <ele>1533.4</ele>
        <time>2016-09-06T15:13:12Z</time>
      </trkpt>
      <trkpt lat="42.8699193" lon="-5.3673219">
        <ele>1532.2</ele>
        <time>2016-09-06T15:13:14Z</time>
      </trkpt>
      <trkpt lat="42.8698454" lon="-5.3671056">
        <ele>1531.2</ele>
        <time>2016-09-06T15:13:16Z</time>
      </trkpt>
      <trkpt lat="42.8697093" lon="-5.3670443">
        <ele>1530.4</ele>
        <time>2016-09-06T15:13:18Z</time>
      </trkpt>
      <trkpt lat="42.8696379" lon="-5.3671678">
        <ele>1529.8</ele>
        <time>2016-09-06T15:13:20Z</time>
      </trkpt>
      <trkpt lat="42.8697145" lon="-5.3673515">
        <ele>1529.7</ele>
        <time>2016-09-06T15:13:22Z</time>
      </trkpt>
      <trkpt lat="42.8698792" lon="-5.3674577">
        <ele>1529.7</ele>
        <time>2016-09-06T15:13:24Z</time>
      </trkpt>
      <trkpt lat="42.8700753" lon="-5.3674213">
        <ele>1529.7</ele>
        <time>2016-09-06T15:13:26Z</time>
      </trkpt>
      <trkpt lat="42.8702527" lon="-5.3671912">
        <ele>1529.8</ele>
        <time>2016-09-06T15:13:28Z</time>
      </trkpt>
      <trkpt lat="42.87025" lon="-5.3668971">
        <ele>1529.8</ele>
        <time>2016-09-06T15:13:30Z</time>
      </trkpt>
      <trkpt lat="42.8700867" lon="-5.3669168">
        <ele>1529.9</ele>
        <time>2016-09-06T15:13:33Z</time>
      </trkpt>
      <trkpt lat="42.8701351" lon="-5.367116">
        <ele>1530.5</ele>
        <time>2016-09-06T15:13:35Z</time>
      </trkpt>
      <trkpt lat="42.8702957" lon="-5.3672365">
        <ele>1532.5</ele>
        <time>2016-09-06T15:13:37Z</time>
      </trkpt>
      <trkpt lat="42.8705056" lon="-5.3672121">
        <ele>1533.6</ele>
        <time>2016-09-06T15:13:39Z</time>
      </trkpt>
      <trkpt lat="42.870665" lon="-5.367023">
        <ele>1534.1</ele>
        <time>2016-09-06T15:13:41Z</time>
      </trkpt>
      <trkpt lat="42.8706782" lon="-5.3667412">
        <ele>1534.4</ele>
        <time>2016-09-06T15:13:43Z</time>
      </trkpt>
      <trkpt lat="42.8705908" lon="-5.3665944">
        <ele>1534.5</ele>
        <time>2016-09-06T15:13:45Z</time>
      </trkpt>
      <trkpt lat="42.8704933" lon="-5.3665842">
        <ele>1534.5</ele>
        <time>2016-09-06T15:13:47Z</time>
      </trkpt>
      <trkpt lat="42.8704366" lon="-5.3667695">
        <ele>1535.0</ele>
        <time>2016-09-06T15:13:50Z</time>
      </trkpt>
      <trkpt lat="42.8704982" lon="-5.3669821">
        <ele>1537.7</ele>
        <time>2016-09-06T15:13:52Z</time>
      </trkpt>
      <trkpt lat="42.8706903" lon="-5.3670688">
        <ele>1541.8</ele>
        <time>2016-09-06T15:13:54Z</time>
      </trkpt>
      <trkpt lat="42.8708939" lon="-5.3671451">
        <ele>1543.6</ele>
        <time>2016-09-06T15:13:56Z</time>
      </trkpt>
      <trkpt lat="42.8709876" lon="-5.3673612">
        <ele>1544.4</ele>
        <time>2016-09-06T15:13:58Z</time>
      </trkpt>
      <trkpt lat="42.8708922" lon="-5.3674955">
        <ele>1544.6</ele>
        <time>2016-09-06T15:14:00Z</time>
      </trkpt>
      <trkpt lat="42.8707076" lon="-5.3673815">
        <ele>1548.9</ele>
        <time>2016-09-06T15:14:03Z</time>
      </trkpt>
      <trkpt lat="42.8706259" lon="-5.367157">
        <ele>1553.4</ele>
        <time>2016-09-06T15:14:05Z</time>
      </trkpt>
      <trkpt lat="42.8706824" lon="-5.366848">
        <ele>1557.2</ele>
        <time>2016-09-06T15:14:07Z</time>
      </trkpt>
      <trkpt lat="42.8707924" lon="-5.3665558">
        <ele>1560.5</ele>
        <time>2016-09-06T15:14:09Z</time>
      </trkpt>
      <trkpt lat="42.870797" lon="-5.3662957">
        <ele>1564.2</ele>
        <time>2016-09-06T15:14:11Z</time>
      </trkpt>
      <trkpt lat="42.8707272" lon="-5.3661372">
        <ele>1565.9</ele>
        <time>2016-09-06T15:14:13Z</time>
      </trkpt>
      <trkpt lat="42.8705725" lon="-5.3660573">
        <ele>1568.4</ele>
        <time>2016-09-06T15:14:16Z</time>
      </trkpt>
      <trkpt lat="42.8705079" lon="-5.3661665">
        <ele>1572.8</ele>
        <time>2016-09-06T15:14:18Z</time>
      </trkpt>
      <trkpt lat="42.8705535" lon="-5.3663499">
        <ele>1575.5</ele>
        <time>2016-09-06T15:14:20Z</time>
      </trkpt>
      <trkpt lat="42.8707451" lon="-5.3664407">
        <ele>1577.8</ele>
        <time>2016-09-06T15:14:22Z</time>
      </trkpt>
      <trkpt lat="42.8709621" lon="-5.3663462">
        <ele>1581.3</ele>
        <time>2016-09-06T15:14:24Z</time>
      </trkpt>
      <trkpt lat="42.871095" lon="-5.3661327">
        <ele>1582.6</ele>
        <time>2016-09-06T15:14:26Z</time>
      </trkpt>
      <trkpt lat="42.8711508" lon="-5.3658864">
        <ele>1582.9</ele>
        <time>2016-09-06T15:14:28Z</time>
      </trkpt>
      <trkpt lat="42.8710976" lon="-5.3657021">
        <ele>1584.6</ele>
        <time>2016-09-06T15:14:30Z</time>
      </trkpt>
      <trkpt lat="42.8709349" lon="-5.3657114">
        <ele>1585.3</ele>
        <time>2016-09-06T15:14:33Z</time>
      </trkpt>
      <trkpt lat="42.8708826" lon="-5.365911">
        <ele>1585.9</ele>
        <time>2016-09-06T15:14:36Z</time>
      </trkpt>
      <trkpt lat="42.8708847" lon="-5.3661165">
        <ele>1587.3</ele>
        <time>2016-09-06T15:14:39Z</time>
      </trkpt>
      <trkpt lat="42.8707603" lon="-5.3662693">
        <ele>1592.0</ele>
        <time>2016-09-06T15:14:42Z</time>
      </trkpt>
      <trkpt lat="42.8706266" lon="-5.366218">
        <ele>1593.8</ele>
        <time>2016-09-06T15:14:44Z</time>
      </trkpt>
      <trkpt lat="42.8705505" lon="-5.3659808">
        <ele>1600.8</ele>
        <time>2016-09-06T15:14:46Z</time>
      </trkpt>
      <trkpt lat="42.8705665" lon="-5.3657047">
        <ele>1603.7</ele>
        <time>2016-09-06T15:14:48Z</time>
      </trkpt>
      <trkpt lat="42.870667" lon="-5.3654162">
        <ele>1607.5</ele>
        <time>2016-09-06T15:14:50Z</time>
      </trkpt>
      <trkpt lat="42.8708591" lon="-5.3651999">
        <ele>1610.0</ele>
        <time>2016-09-06T15:14:52Z</time>
      </trkpt>
      <trkpt lat="42.8710855" lon="-5.365162">
        <ele>1613.1</ele>
        <time>2016-09-06T15:14:54Z</time>
      </trkpt>
      <trkpt lat="42.8712361" lon="-5.3653246">
        <ele>1617.4</ele>
        <time>2016-09-06T15:14:56Z</time>
      </trkpt>
      <trkpt lat="42.8712203" lon="-5.3655467">
        <ele>1623.0</ele>
        <time>2016-09-06T15:14:59Z</time>
      </trkpt>
      <trkpt lat="42.8710519" lon="-5.3653852">
        <ele>1629.0</ele>
        <time>2016-09-06T15:15:02Z</time>
      </trkpt>
      <trkpt lat="42.8710465" lon="-5.3651193">
        <ele>1632.6</ele>
        <time>2016-09-06T15:15:04Z</time>
      </trkpt>
      <trkpt lat="42.8711255" lon="-5.3648479">
        <ele>1636.9</ele>
        <time>2016-09-06T15:15:06Z</time>
      </trkpt>
      <trkpt lat="42.8712324" lon="-5.3645705">
        <ele>1642.0</ele>
        <time>2016-09-06T15:15:08Z</time>
      </trkpt>
      <trkpt lat="42.8714116" lon="-5.3643211">
        <ele>1645.4</ele>
        <time>2016-09-06T15:15:10Z</time>
      </trkpt>
      <trkpt lat="42.8716844" lon="-5.3642847">
        <ele>1646.5</ele>
        <time>2016-09-06T15:15:12Z</time>
      </trkpt>
      <trkpt lat="42.8718244" lon="-5.3645039">
        <ele>1648.7</ele>
        <time>2016-09-06T15:15:14Z</time>
      </trkpt>
      <trkpt lat="42.8717352" lon="-5.3646865">
        <ele>1651.3</ele>
        <time>2016-09-06T15:15:17Z</time>
      </trkpt>
      <trkpt lat="42.8716261" lon="-5.3645777">
        <ele>1655.1</ele>
        <time>2016-09-06T15:15:20Z</time>
      </trkpt>
      <trkpt lat="42.8715291" lon="-5.3644329">
        <ele>1657.0</ele>
        <time>2016-09-06T15:15:22Z</time>
      </trkpt>
      <trkpt lat="42.87147" lon="-5.3642366">
        <ele>1660.7</ele>
        <time>2016-09-06T15:15:24Z</time>
      </trkpt>
      <trkpt lat="42.8714894" lon="-5.3639579">
        <ele>1664.3</ele>
        <time>2016-09-06T15:15:26Z</time>
      </trkpt>
      <trkpt lat="42.8715703" lon="-5.3636494">
        <ele>1666.7</ele>
        <time>2016-09-06T15:15:28Z</time>
      </trkpt>
      <trkpt lat="42.8717361" lon="-5.3633809">
        <ele>1670.1</ele>
        <time>2016-09-06T15:15:30Z</time>
      </trkpt>
      <trkpt lat="42.8719806" lon="-5.3632754">
        <ele>1671.8</ele>
        <time>2016-09-06T15:15:32Z</time>
      </trkpt>
      <trkpt lat="42.8721489" lon="-5.363415">
        <ele>1673.7</ele>
        <time>2016-09-06T15:15:34Z</time>
      </trkpt>
      <trkpt lat="42.8720575" lon="-5.3635819">
        <ele>1678.9</ele>
        <time>2016-09-06T15:15:37Z</time>
      </trkpt>
      <trkpt lat="42.8719197" lon="-5.3634329">
        <ele>1682.0</ele>
        <time>2016-09-06T15:15:40Z</time>
      </trkpt>
      <trkpt lat="42.8718087" lon="-5.363264">
        <ele>1685.8</ele>
        <time>2016-09-06T15:15:44Z</time>
      </trkpt>
      <trkpt lat="42.8717258" lon="-5.3633794">
        <ele>1698.7</ele>
        <time>2016-09-06T15:15:48Z</time>
      </trkpt>
      <trkpt lat="42.8716752" lon="-5.3635577">
        <ele>1705.5</ele>
        <time>2016-09-06T15:15:52Z</time>
      </trkpt>
      <trkpt lat="42.8716501" lon="-5.3638049">
        <ele>1711.6</ele>
        <time>2016-09-06T15:15:56Z</time>
      </trkpt>
      <trkpt lat="42.871657" lon="-5.3640576">
        <ele>1722.7</ele>
        <time>2016-09-06T15:15:59Z</time>
      </trkpt>
      <trkpt lat="42.8716845" lon="-5.364308">
        <ele>1729.5</ele>
        <time>2016-09-06T15:16:02Z</time>
      </trkpt>
      <trkpt lat="42.8717042" lon="-5.3645311">
        <ele>1733.3</ele>
        <time>2016-09-06T15:16:05Z</time>
      </trkpt>
      <trkpt lat="42.8717507" lon="-5.3647904">
        <ele>1739.1</ele>
        <time>2016-09-06T15:16:08Z</time>
      </trkpt>
      <trkpt lat="42.8717604" lon="-5.3649748">
        <ele>1746.8</ele>
        <time>2016-09-06T15:16:10Z</time>
      </trkpt>
      <trkpt lat="42.8717541" lon="-5.3652074">
        <ele>1749.7</ele>
        <time>2016-09-06T15:16:13Z</time>
      </trkpt>
      <trkpt lat="42.8717605" lon="-5.3654353">
        <ele>1750.7</ele>
        <time>2016-09-06T15:16:16Z</time>
      </trkpt>
      <trkpt lat="42.8718031" lon="-5.3656384">
        <ele>1750.8</ele>
        <time>2016-09-06T15:16:19Z</time>
      </trkpt>
      <trkpt lat="42.8718694" lon="-5.3659032">
        <ele>1750.8</ele>
        <time>2016-09-06T15:16:22Z</time>
      </trkpt>
      <trkpt lat="42.8718574" lon="-5.3661109">
        <ele>1750.8</ele>
        <time>2016-09-06T15:16:25Z</time>
      </trkpt>
      <trkpt lat="42.8717156" lon="-5.36613">
        <ele>1750.8</ele>
        <time>2016-09-06T15:16:28Z</time>
      </trkpt>
      <trkpt lat="42.8716241" lon="-5.3659657">
        <ele>1750.8</ele>
        <time>2016-09-06T15:16:30Z</time>
      </trkpt>
      <trkpt lat="42.8716021" lon="-5.3656672">
        <ele>1750.8</ele>
        <time>2016-09-06T15:16:32Z</time>
      </trkpt>
      <trkpt lat="42.8716914" lon="-5.3653381">
        <ele>1750.8</ele>
        <time>2016-09-06T15:16:34Z</time>
      </trkpt>
      <trkpt lat="42.8717667" lon="-5.3651747">
        <ele>1750.8</ele>
        <time>2016-09-06T15:16:35Z</time>
      </trkpt>
      <trkpt lat="42.8718395" lon="-5.3650158">
        <ele>1750.8</ele>
        <time>2016-09-06T15:16:36Z</time>
      </trkpt>
      <trkpt lat="42.8719531" lon="-5.3646976">
        <ele>1750.8</ele>
        <time>2016-09-06T15:16:38Z</time>
      </trkpt>
      <trkpt lat="42.872048" lon="-5.3643816">
        <ele>1750.6</ele>
        <time>2016-09-06T15:16:40Z</time>
      </trkpt>
      <trkpt lat="42.8721254" lon="-5.3640962">
        <ele>1749.8</ele>
        <time>2016-09-06T15:16:42Z</time>
      </trkpt>
      <trkpt lat="42.8721517" lon="-5.3638072">
        <ele>1749.0</ele>
        <time>2016-09-06T15:16:44Z</time>
      </trkpt>
      <trkpt lat="42.872159" lon="-5.3635026">
        <ele>1747.9</ele>
        <time>2016-09-06T15:16:46Z</time>
      </trkpt>
      <trkpt lat="42.8721342" lon="-5.3632349">
        <ele>1747.4</ele>
        <time>2016-09-06T15:16:48Z</time>
      </trkpt>
      <trkpt lat="42.8720442" lon="-5.3630237">
        <ele>1746.1</ele>
        <time>2016-09-06T15:16:50Z</time>
      </trkpt>
      <trkpt lat="42.8719177" lon="-5.3629384">
        <ele>1744.7</ele>
        <time>2016-09-06T15:16:52Z</time>
      </trkpt>
      <trkpt lat="42.8718088" lon="-5.3630046">
        <ele>1741.2</ele>
        <time>2016-09-06T15:16:54Z</time>
      </trkpt>
      <trkpt lat="42.871698" lon="-5.3631356">
        <ele>1738.1</ele>
        <time>2016-09-06T15:16:57Z</time>
      </trkpt>
      <trkpt lat="42.8716345" lon="-5.3633146">
        <ele>1736.0</ele>
        <time>2016-09-06T15:17:00Z</time>
      </trkpt>
      <trkpt lat="42.8715391" lon="-5.3635031">
        <ele>1729.1</ele>
        <time>2016-09-06T15:17:04Z</time>
      </trkpt>
      <trkpt lat="42.8715331" lon="-5.3637426">
        <ele>1723.7</ele>
        <time>2016-09-06T15:17:08Z</time>
      </trkpt>
      <trkpt lat="42.8714975" lon="-5.3639304">
        <ele>1721.1</ele>
        <time>2016-09-06T15:17:11Z</time>
      </trkpt>
      <trkpt lat="42.8714958" lon="-5.3641305">
        <ele>1719.4</ele>
        <time>2016-09-06T15:17:14Z</time>
      </trkpt>
      <trkpt lat="42.8715276" lon="-5.3643477">
        <ele>1713.3</ele>
        <time>2016-09-06T15:17:17Z</time>
      </trkpt>
      <trkpt lat="42.8716121" lon="-5.3645117">
        <ele>1710.6</ele>
        <time>2016-09-06T15:17:19Z</time>
      </trkpt>
      <trkpt lat="42.8717025" lon="-5.3646635">
        <ele>1707.5</ele>
        <time>2016-09-06T15:17:21Z</time>
      </trkpt>
      <trkpt lat="42.8717901" lon="-5.3648129">
        <ele>1705.5</ele>
        <time>2016-09-06T15:17:23Z</time>
      </trkpt>
      <trkpt lat="42.8718633" lon="-5.3649672">
        <ele>1704.8</ele>
        <time>2016-09-06T15:17:25Z</time>
      </trkpt>
      <trkpt lat="42.8718861" lon="-5.3651495">
        <ele>1704.4</ele>
        <time>2016-09-06T15:17:27Z</time>
      </trkpt>
      <trkpt lat="42.8719002" lon="-5.3654074">
        <ele>1704.2</ele>
        <time>2016-09-06T15:17:30Z</time>
      </trkpt>
      <trkpt lat="42.8718982" lon="-5.3656556">
        <ele>1704.0</ele>
        <time>2016-09-06T15:17:33Z</time>
      </trkpt>
      <trkpt lat="42.8718907" lon="-5.3659319">
        <ele>1703.3</ele>
        <time>2016-09-06T15:17:36Z</time>
      </trkpt>
      <trkpt lat="42.8718093" lon="-5.3661124">
        <ele>1701.6</ele>
        <time>2016-09-06T15:17:39Z</time>
      </trkpt>
      <trkpt lat="42.8717857" lon="-5.3663168">
        <ele>1696.4</ele>
        <time>2016-09-06T15:17:42Z</time>
      </trkpt>
      <trkpt lat="42.8717842" lon="-5.3665765">
        <ele>1692.0</ele>
        <time>2016-09-06T15:17:45Z</time>
      </trkpt>
      <trkpt lat="42.8718043" lon="-5.3668181">
        <ele>1688.8</ele>
        <time>2016-09-06T15:17:48Z</time>
      </trkpt>
      <trkpt lat="42.8718386" lon="-5.3670906">
        <ele>1685.8</ele>
        <time>2016-09-06T15:17:51Z</time>
      </trkpt>
      <trkpt lat="42.8718812" lon="-5.367354">
        <ele>1683.9</ele>
        <time>2016-09-06T15:17:54Z</time>
      </trkpt>
      <trkpt lat="42.8718897" lon="-5.3675444">
        <ele>1681.4</ele>
        <time>2016-09-06T15:17:56Z</time>
      </trkpt>
      <trkpt lat="42.8718897" lon="-5.3677316">
        <ele>1678.6</ele>
        <time>2016-09-06T15:17:58Z</time>
      </trkpt>
      <trkpt lat="42.8718523" lon="-5.3679394">
        <ele>1675.9</ele>
        <time>2016-09-06T15:18:01Z</time>
      </trkpt>
      <trkpt lat="42.8718464" lon="-5.3681853">
        <ele>1672.5</ele>
        <time>2016-09-06T15:18:04Z</time>
      </trkpt>
      <trkpt lat="42.871839" lon="-5.3684254">
        <ele>1668.9</ele>
        <time>2016-09-06T15:18:07Z</time>
      </trkpt>
      <trkpt lat="42.8718042" lon="-5.3686672">
        <ele>1667.0</ele>
        <time>2016-09-06T15:18:10Z</time>
      </trkpt>
      <trkpt lat="42.8717473" lon="-5.368876">
        <ele>1664.4</ele>
        <time>2016-09-06T15:18:13Z</time>
      </trkpt>
      <trkpt lat="42.8715901" lon="-5.3689564">
        <ele>1660.9</ele>
        <time>2016-09-06T15:18:16Z</time>
      </trkpt>
      <trkpt lat="42.8714536" lon="-5.3689095">
        <ele>1654.1</ele>
        <time>2016-09-06T15:18:18Z</time>
      </trkpt>
      <trkpt lat="42.8713813" lon="-5.3688605">
        <ele>1654.1</ele>
        <time>2016-09-06T15:18:19Z</time>
      </trkpt>
      <trkpt lat="42.8713201" lon="-5.3687899">
        <ele>1654.1</ele>
        <time>2016-09-06T15:18:20Z</time>
      </trkpt>
      <trkpt lat="42.8712633" lon="-5.3687083">
        <ele>1654.1</ele>
        <time>2016-09-06T15:18:21Z</time>
      </trkpt>
      <trkpt lat="42.871206" lon="-5.3686261">
        <ele>1654.1</ele>
        <time>2016-09-06T15:18:22Z</time>
      </trkpt>
      <trkpt lat="42.8710881" lon="-5.3684465">
        <ele>1651.9</ele>
        <time>2016-09-06T15:18:24Z</time>
      </trkpt>
      <trkpt lat="42.8709823" lon="-5.3682514">
        <ele>1648.8</ele>
        <time>2016-09-06T15:18:25Z</time>
      </trkpt>
      <trkpt lat="42.8708896" lon="-5.368025">
        <ele>1645.5</ele>
        <time>2016-09-06T15:18:27Z</time>
      </trkpt>
      <trkpt lat="42.870808" lon="-5.3677575">
        <ele>1643.8</ele>
        <time>2016-09-06T15:18:29Z</time>
      </trkpt>
      <trkpt lat="42.8707279" lon="-5.3675169">
        <ele>1642.0</ele>
        <time>2016-09-06T15:18:31Z</time>
      </trkpt>
      <trkpt lat="42.8706451" lon="-5.3673034">
        <ele>1639.8</ele>
        <time>2016-09-06T15:18:33Z</time>
      </trkpt>
      <trkpt lat="42.8705543" lon="-5.3670839">
        <ele>1637.9</ele>
        <time>2016-09-06T15:18:35Z</time>
      </trkpt>
      <trkpt lat="42.8705011" lon="-5.3668099">
        <ele>1636.5</ele>
        <time>2016-09-06T15:18:37Z</time>
      </trkpt>
      <trkpt lat="42.8704544" lon="-5.3665094">
        <ele>1634.4</ele>
        <time>2016-09-06T15:18:39Z</time>
      </trkpt>
      <trkpt lat="42.8703703" lon="-5.366271">
        <ele>1632.2</ele>
        <time>2016-09-06T15:18:41Z</time>
      </trkpt>
      <trkpt lat="42.8702611" lon="-5.3660915">
        <ele>1629.6</ele>
        <time>2016-09-06T15:18:43Z</time>
      </trkpt>
      <trkpt lat="42.8701455" lon="-5.3659284">
        <ele>1626.3</ele>
        <time>2016-09-06T15:18:45Z</time>
      </trkpt>
      <trkpt lat="42.8699714" lon="-5.3658729">
        <ele>1621.1</ele>
        <time>2016-09-06T15:18:48Z</time>
      </trkpt>
      <trkpt lat="42.8699149" lon="-5.3659989">
        <ele>1618.4</ele>
        <time>2016-09-06T15:18:51Z</time>
      </trkpt>
      <trkpt lat="42.869979" lon="-5.3661985">
        <ele>1617.4</ele>
        <time>2016-09-06T15:18:54Z</time>
      </trkpt>
      <trkpt lat="42.8700978" lon="-5.3664183">
        <ele>1617.0</ele>
        <time>2016-09-06T15:18:57Z</time>
      </trkpt>
      <trkpt lat="42.8702486" lon="-5.3665992">
        <ele>1616.8</ele>
        <time>2016-09-06T15:19:00Z</time>
      </trkpt>
      <trkpt lat="42.8703728" lon="-5.3667225">
        <ele>1616.5</ele>
        <time>2016-09-06T15:19:02Z</time>
      </trkpt>
      <trkpt lat="42.8705164" lon="-5.366824">
        <ele>1616.1</ele>
        <time>2016-09-06T15:19:04Z</time>
      </trkpt>
      <trkpt lat="42.8706505" lon="-5.3669235">
        <ele>1615.7</ele>
        <time>2016-09-06T15:19:06Z</time>
      </trkpt>
      <trkpt lat="42.8707822" lon="-5.3670284">
        <ele>1615.1</ele>
        <time>2016-09-06T15:19:08Z</time>
      </trkpt>
      <trkpt lat="42.8708971" lon="-5.3671596">
        <ele>1614.5</ele>
        <time>2016-09-06T15:19:10Z</time>
      </trkpt>
      <trkpt lat="42.8710494" lon="-5.3673409">
        <ele>1613.3</ele>
        <time>2016-09-06T15:19:13Z</time>
      </trkpt>
      <trkpt lat="42.8711694" lon="-5.3674529">
        <ele>1612.5</ele>
        <time>2016-09-06T15:19:15Z</time>
      </trkpt>
      <trkpt lat="42.8712736" lon="-5.3675795">
        <ele>1612.1</ele>
        <time>2016-09-06T15:19:17Z</time>
      </trkpt>
      <trkpt lat="42.8713703" lon="-5.3677142">
        <ele>1611.4</ele>
        <time>2016-09-06T15:19:19Z</time>
      </trkpt>
      <trkpt lat="42.8714578" lon="-5.3678727">
        <ele>1610.3</ele>
        <time>2016-09-06T15:19:21Z</time>
      </trkpt>
      <trkpt lat="42.8714962" lon="-5.3681019">
        <ele>1607.3</ele>
        <time>2016-09-06T15:19:24Z</time>
      </trkpt>
      <trkpt lat="42.8714163" lon="-5.3682623">
        <ele>1605.0</ele>
        <time>2016-09-06T15:19:27Z</time>
      </trkpt>
      <trkpt lat="42.8713084" lon="-5.3684256">
        <ele>1604.2</ele>
        <time>2016-09-06T15:19:31Z</time>
      </trkpt>
      <trkpt lat="42.8711661" lon="-5.3684729">
        <ele>1603.6</ele>
        <time>2016-09-06T15:19:34Z</time>
      </trkpt>
      <trkpt lat="42.871071" lon="-5.3684327">
        <ele>1600.7</ele>
        <time>2016-09-06T15:19:36Z</time>
      </trkpt>
      <trkpt lat="42.8710271" lon="-5.3684018">
        <ele>1600.7</ele>
        <time>2016-09-06T15:19:37Z</time>
      </trkpt>
      <trkpt lat="42.8709875" lon="-5.3683619">
        <ele>1600.7</ele>
        <time>2016-09-06T15:19:38Z</time>
      </trkpt>
      <trkpt lat="42.8709454" lon="-5.3683209">
        <ele>1600.7</ele>
        <time>2016-09-06T15:19:39Z</time>
      </trkpt>
      <trkpt lat="42.8709053" lon="-5.368246">
        <ele>1600.7</ele>
        <time>2016-09-06T15:19:40Z</time>
      </trkpt>
      <trkpt lat="42.8708611" lon="-5.3679794">
        <ele>1600.1</ele>
        <time>2016-09-06T15:19:42Z</time>
      </trkpt>
      <trkpt lat="42.8708961" lon="-5.367649">
        <ele>1599.9</ele>
        <time>2016-09-06T15:19:44Z</time>
      </trkpt>
      <trkpt lat="42.8709803" lon="-5.3673332">
        <ele>1599.5</ele>
        <time>2016-09-06T15:19:46Z</time>
      </trkpt>
      <trkpt lat="42.8711182" lon="-5.3670282">
        <ele>1598.8</ele>
        <time>2016-09-06T15:19:48Z</time>
      </trkpt>
      <trkpt lat="42.8712172" lon="-5.3669007">
        <ele>1598.2</ele>
        <time>2016-09-06T15:19:49Z</time>
      </trkpt>
      <trkpt lat="42.8714408" lon="-5.3667123">
        <ele>1597.4</ele>
        <time>2016-09-06T15:19:51Z</time>
      </trkpt>
      <trkpt lat="42.8716733" lon="-5.3665371">
        <ele>1595.9</ele>
        <time>2016-09-06T15:19:53Z</time>
      </trkpt>
      <trkpt lat="42.8717876" lon="-5.3664345">
        <ele>1595.9</ele>
        <time>2016-09-06T15:19:54Z</time>
      </trkpt>
      <trkpt lat="42.871894" lon="-5.3663182">
        <ele>1595.9</ele>
        <time>2016-09-06T15:19:55Z</time>
      </trkpt>
      <trkpt lat="42.8719874" lon="-5.3661777">
        <ele>1594.7</ele>
        <time>2016-09-06T15:19:56Z</time>
      </trkpt>
      <trkpt lat="42.8720544" lon="-5.3660124">
        <ele>1593.8</ele>
        <time>2016-09-06T15:19:57Z</time>
      </trkpt>
      <trkpt lat="42.8721023" lon="-5.3658371">
        <ele>1593.1</ele>
        <time>2016-09-06T15:19:58Z</time>
      </trkpt>
      <trkpt lat="42.872167" lon="-5.3655022">
        <ele>1592.3</ele>
        <time>2016-09-06T15:20:00Z</time>
      </trkpt>
      <trkpt lat="42.8721733" lon="-5.3651991">
        <ele>1590.1</ele>
        <time>2016-09-06T15:20:02Z</time>
      </trkpt>
      <trkpt lat="42.8721085" lon="-5.3649304">
        <ele>1588.0</ele>
        <time>2016-09-06T15:20:04Z</time>
      </trkpt>
      <trkpt lat="42.8720608" lon="-5.3646777">
        <ele>1586.3</ele>
        <time>2016-09-06T15:20:06Z</time>
      </trkpt>
      <trkpt lat="42.8720214" lon="-5.3644328">
        <ele>1584.7</ele>
        <time>2016-09-06T15:20:08Z</time>
      </trkpt>
      <trkpt lat="42.8719681" lon="-5.3641662">
        <ele>1582.0</ele>
        <time>2016-09-06T15:20:10Z</time>
      </trkpt>
      <trkpt lat="42.8719247" lon="-5.3638963">
        <ele>1577.7</ele>
        <time>2016-09-06T15:20:12Z</time>
      </trkpt>
      <trkpt lat="42.8718799" lon="-5.3636383">
        <ele>1574.3</ele>
        <time>2016-09-06T15:20:14Z</time>
      </trkpt>
      <trkpt lat="42.8718411" lon="-5.3633674">
        <ele>1572.6</ele>
        <time>2016-09-06T15:20:16Z</time>
      </trkpt>
      <trkpt lat="42.8718218" lon="-5.3630816">
        <ele>1570.4</ele>
        <time>2016-09-06T15:20:18Z</time>
      </trkpt>
      <trkpt lat="42.8717958" lon="-5.3628018">
        <ele>1568.3</ele>
        <time>2016-09-06T15:20:20Z</time>
      </trkpt>
      <trkpt lat="42.8717584" lon="-5.3625149">
        <ele>1566.7</ele>
        <time>2016-09-06T15:20:22Z</time>
      </trkpt>
      <trkpt lat="42.8717355" lon="-5.3622334">
        <ele>1564.3</ele>
        <time>2016-09-06T15:20:24Z</time>
      </trkpt>
      <trkpt lat="42.8716943" lon="-5.3619693">
        <ele>1560.8</ele>
        <time>2016-09-06T15:20:26Z</time>
      </trkpt>
      <trkpt lat="42.871591" lon="-5.3618187">
        <ele>1556.6</ele>
        <time>2016-09-06T15:20:28Z</time>
      </trkpt>
      <trkpt lat="42.8714765" lon="-5.3618127">
        <ele>1553.1</ele>
        <time>2016-09-06T15:20:30Z</time>
      </trkpt>
      <trkpt lat="42.8713933" lon="-5.3619164">
        <ele>1544.5</ele>
        <time>2016-09-06T15:20:34Z</time>
      </trkpt>
      <trkpt lat="42.8713368" lon="-5.3620872">
        <ele>1538.6</ele>
        <time>2016-09-06T15:20:38Z</time>
      </trkpt>
      <trkpt lat="42.871229" lon="-5.3622527">
        <ele>1531.3</ele>
        <time>2016-09-06T15:20:42Z</time>
      </trkpt>
      <trkpt lat="42.8711066" lon="-5.3623985">
        <ele>1525.1</ele>
        <time>2016-09-06T15:20:47Z</time>
      </trkpt>
      <trkpt lat="42.8710284" lon="-5.3625838">
        <ele>1519.9</ele>
        <time>2016-09-06T15:20:51Z</time>
      </trkpt>
      <trkpt lat="42.8709845" lon="-5.3627581">
        <ele>1517.2</ele>
        <time>2016-09-06T15:20:54Z</time>
      </trkpt>
      <trkpt lat="42.8709229" lon="-5.3629338">
        <ele>1509.6</ele>
        <time>2016-09-06T15:20:59Z</time>
      </trkpt>
      <trkpt lat="42.870858" lon="-5.3631003">
        <ele>1506.5</ele>
        <time>2016-09-06T15:21:03Z</time>
      </trkpt>
      <trkpt lat="42.8707644" lon="-5.3632699">
        <ele>1504.7</ele>
        <time>2016-09-06T15:21:07Z</time>
      </trkpt>
      <trkpt lat="42.8707863" lon="-5.3635068">
        <ele>1500.3</ele>
        <time>2016-09-06T15:21:11Z</time>
      </trkpt>
      <trkpt lat="42.8706456" lon="-5.3636399">
        <ele>1498.9</ele>
        <time>2016-09-06T15:21:15Z</time>
      </trkpt>
      <trkpt lat="42.8705568" lon="-5.3636681">
        <ele>1498.2</ele>
        <time>2016-09-06T15:21:17Z</time>
      </trkpt>
      <trkpt lat="42.8704433" lon="-5.3637302">
        <ele>1494.4</ele>
        <time>2016-09-06T15:21:20Z</time>
      </trkpt>
      <trkpt lat="42.8703465" lon="-5.3637538">
        <ele>1494.4</ele>
        <time>2016-09-06T15:21:22Z</time>
      </trkpt>
      <trkpt lat="42.8702487" lon="-5.3638071">
        <ele>1493.7</ele>
        <time>2016-09-06T15:21:24Z</time>
      </trkpt>
      <trkpt lat="42.8701033" lon="-5.3638384">
        <ele>1492.8</ele>
        <time>2016-09-06T15:21:28Z</time>
      </trkpt>
      <trkpt lat="42.8699978" lon="-5.3639105">
        <ele>1491.4</ele>
        <time>2016-09-06T15:21:31Z</time>
      </trkpt>
      <trkpt lat="42.8698942" lon="-5.3640673">
        <ele>1487.9</ele>
        <time>2016-09-06T15:21:35Z</time>
      </trkpt>
      <trkpt lat="42.8697691" lon="-5.3641596">
        <ele>1486.2</ele>
        <time>2016-09-06T15:21:39Z</time>
      </trkpt>
      <trkpt lat="42.8696936" lon="-5.3642382">
        <ele>1483.4</ele>
        <time>2016-09-06T15:21:42Z</time>
      </trkpt>
      <trkpt lat="42.8696861" lon="-5.3644642">
        <ele>1478.4</ele>
        <time>2016-09-06T15:21:45Z</time>
      </trkpt>
      <trkpt lat="42.8695689" lon="-5.364607">
        <ele>1471.5</ele>
        <time>2016-09-06T15:21:49Z</time>
      </trkpt>
      <trkpt lat="42.8694958" lon="-5.3644956">
        <ele>1462.5</ele>
        <time>2016-09-06T15:21:51Z</time>
      </trkpt>
      <trkpt lat="42.8694251" lon="-5.36428">
        <ele>1462.5</ele>
        <time>2016-09-06T15:21:53Z</time>
      </trkpt>
      <trkpt lat="42.8693371" lon="-5.3641131">
        <ele>1461.9</ele>
        <time>2016-09-06T15:21:55Z</time>
      </trkpt>
      <trkpt lat="42.8691823" lon="-5.3641786">
        <ele>1460.6</ele>
        <time>2016-09-06T15:21:59Z</time>
      </trkpt>
      <trkpt lat="42.8691778" lon="-5.364428">
        <ele>1459.4</ele>
        <time>2016-09-06T15:22:02Z</time>
      </trkpt>
      <trkpt lat="42.8691835" lon="-5.3646536">
        <ele>1457.7</ele>
        <time>2016-09-06T15:22:05Z</time>
      </trkpt>
      <trkpt lat="42.8691304" lon="-5.3648868">
        <ele>1456.5</ele>
        <time>2016-09-06T15:22:08Z</time>
      </trkpt>
      <trkpt lat="42.8690296" lon="-5.3650983">
        <ele>1455.6</ele>
        <time>2016-09-06T15:22:11Z</time>
      </trkpt>
      <trkpt lat="42.868947" lon="-5.3653354">
        <ele>1454.8</ele>
        <time>2016-09-06T15:22:14Z</time>
      </trkpt>
      <trkpt lat="42.868871" lon="-5.365534">
        <ele>1454.2</ele>
        <time>2016-09-06T15:22:17Z</time>
      </trkpt>
      <trkpt lat="42.8687792" lon="-5.3657585">
        <ele>1453.0</ele>
        <time>2016-09-06T15:22:20Z</time>
      </trkpt>
      <trkpt lat="42.8687235" lon="-5.3659856">
        <ele>1451.3</ele>
        <time>2016-09-06T15:22:23Z</time>
      </trkpt>
      <trkpt lat="42.8686358" lon="-5.36621">
        <ele>1450.7</ele>
        <time>2016-09-06T15:22:26Z</time>
      </trkpt>
      <trkpt lat="42.868469" lon="-5.366276">
        <ele>1447.2</ele>
        <time>2016-09-06T15:22:29Z</time>
      </trkpt>
      <trkpt lat="42.8683372" lon="-5.3663025">
        <ele>1444.8</ele>
        <time>2016-09-06T15:22:31Z</time>
      </trkpt>
      <trkpt lat="42.8682287" lon="-5.3663123">
        <ele>1435.4</ele>
        <time>2016-09-06T15:22:33Z</time>
      </trkpt>
      <trkpt lat="42.8681631" lon="-5.3663029">
        <ele>1435.4</ele>
        <time>2016-09-06T15:22:34Z</time>
      </trkpt>
      <trkpt lat="42.8680862" lon="-5.3662693">
        <ele>1435.4</ele>
        <time>2016-09-06T15:22:35Z</time>
      </trkpt>
      <trkpt lat="42.8680177" lon="-5.3662132">
        <ele>1435.4</ele>
        <time>2016-09-06T15:22:36Z</time>
      </trkpt>
      <trkpt lat="42.8679493" lon="-5.3661551">
        <ele>1435.4</ele>
        <time>2016-09-06T15:22:37Z</time>
      </trkpt>
      <trkpt lat="42.8678297" lon="-5.3660428">
        <ele>1431.8</ele>
        <time>2016-09-06T15:22:39Z</time>
      </trkpt>
      <trkpt lat="42.8677199" lon="-5.3658958">
        <ele>1429.3</ele>
        <time>2016-09-06T15:22:41Z</time>
      </trkpt>
      <trkpt lat="42.8676118" lon="-5.3657283">
        <ele>1426.8</ele>
        <time>2016-09-06T15:22:43Z</time>
      </trkpt>
      <trkpt lat="42.8674967" lon="-5.3655505">
        <ele>1424.8</ele>
        <time>2016-09-06T15:22:45Z</time>
      </trkpt>
      <trkpt lat="42.8673793" lon="-5.3653727">
        <ele>1422.4</ele>
        <time>2016-09-06T15:22:47Z</time>
      </trkpt>
      <trkpt lat="42.867264" lon="-5.3651819">
        <ele>1419.8</ele>
        <time>2016-09-06T15:22:49Z</time>
      </trkpt>
      <trkpt lat="42.8671856" lon="-5.3650321">
        <ele>1416.6</ele>
        <time>2016-09-06T15:22:51Z</time>
      </trkpt>
      <trkpt lat="42.8670795" lon="-5.3648556">
        <ele>1414.0</ele>
        <time>2016-09-06T15:22:53Z</time>
      </trkpt>
      <trkpt lat="42.8669856" lon="-5.3646577">
        <ele>1411.0</ele>
        <time>2016-09-06T15:22:55Z</time>
      </trkpt>
      <trkpt lat="42.8669202" lon="-5.3644502">
        <ele>1407.4</ele>
        <time>2016-09-06T15:22:57Z</time>
      </trkpt>
      <trkpt lat="42.8668093" lon="-5.3642374">
        <ele>1403.3</ele>
        <time>2016-09-06T15:22:59Z</time>
      </trkpt>
      <trkpt lat="42.8667206" lon="-5.3640097">
        <ele>1400.3</ele>
        <time>2016-09-06T15:23:01Z</time>
      </trkpt>
      <trkpt lat="42.8666393" lon="-5.3638001">
        <ele>1397.2</ele>
        <time>2016-09-06T15:23:03Z</time>
      </trkpt>
      <trkpt lat="42.8665632" lon="-5.363615">
        <ele>1392.5</ele>
        <time>2016-09-06T15:23:05Z</time>
      </trkpt>
      <trkpt lat="42.8664666" lon="-5.3633944">
        <ele>1388.3</ele>
        <time>2016-09-06T15:23:07Z</time>
      </trkpt>
      <trkpt lat="42.8663725" lon="-5.3631862">
        <ele>1385.4</ele>
        <time>2016-09-06T15:23:09Z</time>
      </trkpt>
      <trkpt lat="42.8662708" lon="-5.3630082">
        <ele>1383.6</ele>
        <time>2016-09-06T15:23:11Z</time>
      </trkpt>
      <trkpt lat="42.8661587" lon="-5.3628191">
        <ele>1381.7</ele>
        <time>2016-09-06T15:23:13Z</time>
      </trkpt>
      <trkpt lat="42.86604" lon="-5.3626504">
        <ele>1378.8</ele>
        <time>2016-09-06T15:23:15Z</time>
      </trkpt>
      <trkpt lat="42.8658869" lon="-5.3624865">
        <ele>1374.9</ele>
        <time>2016-09-06T15:23:17Z</time>
      </trkpt>
      <trkpt lat="42.8657473" lon="-5.3623356">
        <ele>1370.6</ele>
        <time>2016-09-06T15:23:19Z</time>
      </trkpt>
      <trkpt lat="42.8656192" lon="-5.3621698">
        <ele>1367.2</ele>
        <time>2016-09-06T15:23:21Z</time>
      </trkpt>
      <trkpt lat="42.8655393" lon="-5.3619756">
        <ele>1364.5</ele>
        <time>2016-09-06T15:23:23Z</time>
      </trkpt>
      <trkpt lat="42.8654626" lon="-5.3617253">
        <ele>1362.5</ele>
        <time>2016-09-06T15:23:25Z</time>
      </trkpt>
      <trkpt lat="42.8654072" lon="-5.3614571">
        <ele>1361.3</ele>
        <time>2016-09-06T15:23:27Z</time>
      </trkpt>
      <trkpt lat="42.8653389" lon="-5.3611741">
        <ele>1358.9</ele>
        <time>2016-09-06T15:23:29Z</time>
      </trkpt>
      <trkpt lat="42.865242" lon="-5.3609496">
        <ele>1354.8</ele>
        <time>2016-09-06T15:23:31Z</time>
      </trkpt>
      <trkpt lat="42.8651272" lon="-5.3607536">
        <ele>1351.9</ele>
        <time>2016-09-06T15:23:33Z</time>
      </trkpt>
      <trkpt lat="42.8650005" lon="-5.3605866">
        <ele>1347.7</ele>
        <time>2016-09-06T15:23:35Z</time>
      </trkpt>
      <trkpt lat="42.8648472" lon="-5.3604208">
        <ele>1343.8</ele>
        <time>2016-09-06T15:23:37Z</time>
      </trkpt>
      <trkpt lat="42.8647049" lon="-5.3602794">
        <ele>1341.8</ele>
        <time>2016-09-06T15:23:39Z</time>
      </trkpt>
      <trkpt lat="42.8645878" lon="-5.3602051">
        <ele>1335.7</ele>
        <time>2016-09-06T15:23:41Z</time>
      </trkpt>
      <trkpt lat="42.8644549" lon="-5.3601649">
        <ele>1331.1</ele>
        <time>2016-09-06T15:23:43Z</time>
      </trkpt>
      <trkpt lat="42.8643457" lon="-5.3600885">
        <ele>1331.1</ele>
        <time>2016-09-06T15:23:45Z</time>
      </trkpt>
      <trkpt lat="42.8642127" lon="-5.3600096">
        <ele>1330.7</ele>
        <time>2016-09-06T15:23:47Z</time>
      </trkpt>
      <trkpt lat="42.8640679" lon="-5.3599521">
        <ele>1328.6</ele>
        <time>2016-09-06T15:23:49Z</time>
      </trkpt>
      <trkpt lat="42.8640124" lon="-5.3598947">
        <ele>1328.6</ele>
        <time>2016-09-06T15:23:50Z</time>
      </trkpt>
      <trkpt lat="42.8639617" lon="-5.3598254">
        <ele>1328.6</ele>
        <time>2016-09-06T15:23:51Z</time>
      </trkpt>
      <trkpt lat="42.8639064" lon="-5.3597573">
        <ele>1328.6</ele>
        <time>2016-09-06T15:23:52Z</time>
      </trkpt>
      <trkpt lat="42.8638413" lon="-5.359698">
        <ele>1328.6</ele>
        <time>2016-09-06T15:23:53Z</time>
      </trkpt>
      <trkpt lat="42.8637101" lon="-5.3595578">
        <ele>1325.4</ele>
        <time>2016-09-06T15:23:55Z</time>
      </trkpt>
      <trkpt lat="42.8635906" lon="-5.3594259">
        <ele>1322.2</ele>
        <time>2016-09-06T15:23:57Z</time>
      </trkpt>
      <trkpt lat="42.863463" lon="-5.3592128">
        <ele>1318.5</ele>
        <time>2016-09-06T15:24:00Z</time>
      </trkpt>
      <trkpt lat="42.8633994" lon="-5.3589986">
        <ele>1315.5</ele>
        <time>2016-09-06T15:24:02Z</time>
      </trkpt>
      <trkpt lat="42.8633455" lon="-5.358805">
        <ele>1311.2</ele>
        <time>2016-09-06T15:24:04Z</time>
      </trkpt>
      <trkpt lat="42.8633251" lon="-5.3585197">
        <ele>1303.4</ele>
        <time>2016-09-06T15:24:07Z</time>
      </trkpt>
      <trkpt lat="42.8632722" lon="-5.3582912">
        <ele>1301.8</ele>
        <time>2016-09-06T15:24:09Z</time>
      </trkpt>
      <trkpt lat="42.8631429" lon="-5.3581786">
        <ele>1301.4</ele>
        <time>2016-09-06T15:24:11Z</time>
      </trkpt>
      <trkpt lat="42.86305" lon="-5.3582065">
        <ele>1301.3</ele>
        <time>2016-09-06T15:24:13Z</time>
      </trkpt>
      <trkpt lat="42.8629998" lon="-5.35834">
        <ele>1301.2</ele>
        <time>2016-09-06T15:24:15Z</time>
      </trkpt>
      <trkpt lat="42.8630436" lon="-5.358532">
        <ele>1301.2</ele>
        <time>2016-09-06T15:24:17Z</time>
      </trkpt>
      <trkpt lat="42.863188" lon="-5.3587185">
        <ele>1301.2</ele>
        <time>2016-09-06T15:24:19Z</time>
      </trkpt>
      <trkpt lat="42.8633939" lon="-5.3588431">
        <ele>1301.2</ele>
        <time>2016-09-06T15:24:21Z</time>
      </trkpt>
      <trkpt lat="42.8636225" lon="-5.3588324">
        <ele>1301.2</ele>
        <time>2016-09-06T15:24:23Z</time>
      </trkpt>
      <trkpt lat="42.863826" lon="-5.3586249">
        <ele>1301.2</ele>
        <time>2016-09-06T15:24:25Z</time>
      </trkpt>
      <trkpt lat="42.8639207" lon="-5.3583549">
        <ele>1301.2</ele>
        <time>2016-09-06T15:24:27Z</time>
      </trkpt>
      <trkpt lat="42.8638951" lon="-5.3581152">
        <ele>1301.2</ele>
        <time>2016-09-06T15:24:29Z</time>
      </trkpt>
      <trkpt lat="42.8637574" lon="-5.3580184">
        <ele>1301.2</ele>
        <time>2016-09-06T15:24:32Z</time>
      </trkpt>
      <trkpt lat="42.8637037" lon="-5.3581403">
        <ele>1301.2</ele>
        <time>2016-09-06T15:24:34Z</time>
      </trkpt>
      <trkpt lat="42.8637497" lon="-5.3583199">
        <ele>1301.2</ele>
        <time>2016-09-06T15:24:36Z</time>
      </trkpt>
      <trkpt lat="42.8638951" lon="-5.3585031">
        <ele>1302.4</ele>
        <time>2016-09-06T15:24:38Z</time>
      </trkpt>
      <trkpt lat="42.8641069" lon="-5.3585682">
        <ele>1303.2</ele>
        <time>2016-09-06T15:24:40Z</time>
      </trkpt>
      <trkpt lat="42.8643078" lon="-5.3584539">
        <ele>1303.7</ele>
        <time>2016-09-06T15:24:42Z</time>
      </trkpt>
      <trkpt lat="42.8644478" lon="-5.3582247">
        <ele>1304.4</ele>
        <time>2016-09-06T15:24:44Z</time>
      </trkpt>
      <trkpt lat="42.8644691" lon="-5.3579428">
        <ele>1305.0</ele>
        <time>2016-09-06T15:24:46Z</time>
      </trkpt>
      <trkpt lat="42.8643585" lon="-5.3578146">
        <ele>1306.0</ele>
        <time>2016-09-06T15:24:49Z</time>
      </trkpt>
      <trkpt lat="42.8643134" lon="-5.3579305">
        <ele>1307.4</ele>
        <time>2016-09-06T15:24:52Z</time>
      </trkpt>
      <trkpt lat="42.8643999" lon="-5.3582098">
        <ele>1310.7</ele>
        <time>2016-09-06T15:24:55Z</time>
      </trkpt>
      <trkpt lat="42.8645809" lon="-5.3582979">
        <ele>1313.5</ele>
        <time>2016-09-06T15:24:57Z</time>
      </trkpt>
      <trkpt lat="42.8647854" lon="-5.3582316">
        <ele>1314.9</ele>
        <time>2016-09-06T15:24:59Z</time>
      </trkpt>
      <trkpt lat="42.8649733" lon="-5.3580799">
        <ele>1316.3</ele>
        <time>2016-09-06T15:25:01Z</time>
      </trkpt>
      <trkpt lat="42.8650954" lon="-5.35783">
        <ele>1318.4</ele>
        <time>2016-09-06T15:25:03Z</time>
      </trkpt>
      <trkpt lat="42.8650757" lon="-5.3575764">
        <ele>1319.4</ele>
        <time>2016-09-06T15:25:05Z</time>
      </trkpt>
      <trkpt lat="42.8649369" lon="-5.3574938">
        <ele>1320.2</ele>
        <time>2016-09-06T15:25:08Z</time>
      </trkpt>
      <trkpt lat="42.8649146" lon="-5.3576176">
        <ele>1324.8</ele>
        <time>2016-09-06T15:25:11Z</time>
      </trkpt>
      <trkpt lat="42.8650425" lon="-5.357849">
        <ele>1326.2</ele>
        <time>2016-09-06T15:25:14Z</time>
      </trkpt>
      <trkpt lat="42.8652651" lon="-5.3579425">
        <ele>1326.8</ele>
        <time>2016-09-06T15:25:16Z</time>
      </trkpt>
      <trkpt lat="42.8653889" lon="-5.3579241">
        <ele>1328.6</ele>
        <time>2016-09-06T15:25:17Z</time>
      </trkpt>
      <trkpt lat="42.8655003" lon="-5.3578641">
        <ele>1328.6</ele>
        <time>2016-09-06T15:25:18Z</time>
      </trkpt>
      <trkpt lat="42.8655935" lon="-5.3577568">
        <ele>1328.6</ele>
        <time>2016-09-06T15:25:19Z</time>
      </trkpt>
      <trkpt lat="42.8656659" lon="-5.3576491">
        <ele>1328.6</ele>
        <time>2016-09-06T15:25:20Z</time>
      </trkpt>
      <trkpt lat="42.8657201" lon="-5.3575311">
        <ele>1328.6</ele>
        <time>2016-09-06T15:25:21Z</time>
      </trkpt>
      <trkpt lat="42.8657515" lon="-5.3572534">
        <ele>1329.2</ele>
        <time>2016-09-06T15:25:23Z</time>
      </trkpt>
      <trkpt lat="42.8656742" lon="-5.3570309">
        <ele>1330.0</ele>
        <time>2016-09-06T15:25:25Z</time>
      </trkpt>
      <trkpt lat="42.8655914" lon="-5.3570298">
        <ele>1334.3</ele>
        <time>2016-09-06T15:25:27Z</time>
      </trkpt>
      <trkpt lat="42.8655736" lon="-5.3570978">
        <ele>1334.3</ele>
        <time>2016-09-06T15:25:29Z</time>
      </trkpt>
      <trkpt lat="42.8656633" lon="-5.357358">
        <ele>1337.3</ele>
        <time>2016-09-06T15:25:32Z</time>
      </trkpt>
      <trkpt lat="42.865838" lon="-5.3575248">
        <ele>1338.4</ele>
        <time>2016-09-06T15:25:34Z</time>
      </trkpt>
      <trkpt lat="42.8660902" lon="-5.3575098">
        <ele>1339.9</ele>
        <time>2016-09-06T15:25:36Z</time>
      </trkpt>
      <trkpt lat="42.866223" lon="-5.3574545">
        <ele>1340.7</ele>
        <time>2016-09-06T15:25:37Z</time>
      </trkpt>
      <trkpt lat="42.8664403" lon="-5.3573343">
        <ele>1344.9</ele>
        <time>2016-09-06T15:25:39Z</time>
      </trkpt>
      <trkpt lat="42.8666176" lon="-5.357108">
        <ele>1344.9</ele>
        <time>2016-09-06T15:25:41Z</time>
      </trkpt>
      <trkpt lat="42.8666963" lon="-5.3567814">
        <ele>1345.6</ele>
        <time>2016-09-06T15:25:43Z</time>
      </trkpt>
      <trkpt lat="42.8666342" lon="-5.3565584">
        <ele>1346.1</ele>
        <time>2016-09-06T15:25:45Z</time>
      </trkpt>
      <trkpt lat="42.8665365" lon="-5.3563391">
        <ele>1348.7</ele>
        <time>2016-09-06T15:25:48Z</time>
      </trkpt>
      <trkpt lat="42.866423" lon="-5.3561724">
        <ele>1352.1</ele>
        <time>2016-09-06T15:25:51Z</time>
      </trkpt>
      <trkpt lat="42.8663236" lon="-5.3562611">
        <ele>1352.9</ele>
        <time>2016-09-06T15:25:54Z</time>
      </trkpt>
      <trkpt lat="42.866344" lon="-5.3565057">
        <ele>1353.2</ele>
        <time>2016-09-06T15:25:57Z</time>
      </trkpt>
      <trkpt lat="42.8663965" lon="-5.3567034">
        <ele>1353.2</ele>
        <time>2016-09-06T15:25:59Z</time>
      </trkpt>
      <trkpt lat="42.8662956" lon="-5.356877">
        <ele>1353.2</ele>
        <time>2016-09-06T15:26:04Z</time>
      </trkpt>
      <trkpt lat="42.866149" lon="-5.3568252">
        <ele>1353.2</ele>
        <time>2016-09-06T15:26:07Z</time>
      </trkpt>
      <trkpt lat="42.8660511" lon="-5.3568824">
        <ele>1353.2</ele>
        <time>2016-09-06T15:26:10Z</time>
      </trkpt>
      <trkpt lat="42.8658986" lon="-5.3570181">
        <ele>1353.2</ele>
        <time>2016-09-06T15:26:14Z</time>
      </trkpt>
      <trkpt lat="42.8659082" lon="-5.3572883">
        <ele>1353.2</ele>
        <time>2016-09-06T15:26:17Z</time>
      </trkpt>
      <trkpt lat="42.8660122" lon="-5.357495">
        <ele>1353.2</ele>
        <time>2016-09-06T15:26:19Z</time>
      </trkpt>
      <trkpt lat="42.866119" lon="-5.3576626">
        <ele>1353.2</ele>
        <time>2016-09-06T15:26:21Z</time>
      </trkpt>
      <trkpt lat="42.8660593" lon="-5.3578303">
        <ele>1352.9</ele>
        <time>2016-09-06T15:26:24Z</time>
      </trkpt>
      <trkpt lat="42.8659359" lon="-5.3576644">
        <ele>1352.8</ele>
        <time>2016-09-06T15:26:27Z</time>
      </trkpt>
      <trkpt lat="42.8659853" lon="-5.3574342">
        <ele>1352.6</ele>
        <time>2016-09-06T15:26:29Z</time>
      </trkpt>
      <trkpt lat="42.8661042" lon="-5.3571939">
        <ele>1352.1</ele>
        <time>2016-09-06T15:26:31Z</time>
      </trkpt>
      <trkpt lat="42.8660531" lon="-5.3569866">
        <ele>1351.9</ele>
        <time>2016-09-06T15:26:34Z</time>
      </trkpt>
      <trkpt lat="42.86597" lon="-5.3570474">
        <ele>1351.6</ele>
        <time>2016-09-06T15:26:36Z</time>
      </trkpt>
      <trkpt lat="42.8659535" lon="-5.3572502">
        <ele>1351.4</ele>
        <time>2016-09-06T15:26:39Z</time>
      </trkpt>
      <trkpt lat="42.8659477" lon="-5.357497">
        <ele>1350.9</ele>
        <time>2016-09-06T15:26:42Z</time>
      </trkpt>
      <trkpt lat="42.8659648" lon="-5.3577578">
        <ele>1350.5</ele>
        <time>2016-09-06T15:26:45Z</time>
      </trkpt>
      <trkpt lat="42.8660103" lon="-5.3579312">
        <ele>1350.1</ele>
        <time>2016-09-06T15:26:47Z</time>
      </trkpt>
      <trkpt lat="42.8659562" lon="-5.3581468">
        <ele>1349.5</ele>
        <time>2016-09-06T15:26:50Z</time>
      </trkpt>
      <trkpt lat="42.8658114" lon="-5.3581947">
        <ele>1348.7</ele>
        <time>2016-09-06T15:26:53Z</time>
      </trkpt>
      <trkpt lat="42.8656961" lon="-5.3582526">
        <ele>1347.8</ele>
        <time>2016-09-06T15:26:56Z</time>
      </trkpt>
      <trkpt lat="42.8655906" lon="-5.3581132">
        <ele>1347.8</ele>
        <time>2016-09-06T15:26:59Z</time>
      </trkpt>
      <trkpt lat="42.8654827" lon="-5.3579853">
        <ele>1347.6</ele>
        <time>2016-09-06T15:27:02Z</time>
      </trkpt>
      <trkpt lat="42.8653393" lon="-5.3579517">
        <ele>1347.6</ele>
        <time>2016-09-06T15:27:05Z</time>
      </trkpt>
      <trkpt lat="42.865227" lon="-5.3580207">
        <ele>1347.6</ele>
        <time>2016-09-06T15:27:08Z</time>
      </trkpt>
      <trkpt lat="42.8650822" lon="-5.3581399">
        <ele>1347.5</ele>
        <time>2016-09-06T15:27:11Z</time>
      </trkpt>
      <trkpt lat="42.8649799" lon="-5.3583198">
        <ele>1347.3</ele>
        <time>2016-09-06T15:27:14Z</time>
      </trkpt>
      <trkpt lat="42.8649299" lon="-5.3585407">
        <ele>1346.1</ele>
        <time>2016-09-06T15:27:17Z</time>
      </trkpt>
      <trkpt lat="42.8649313" lon="-5.3587482">
        <ele>1344.9</ele>
        <time>2016-09-06T15:27:19Z</time>
      </trkpt>
      <trkpt lat="42.8649498" lon="-5.358941">
        <ele>1344.2</ele>
        <time>2016-09-06T15:27:21Z</time>
      </trkpt>
      <trkpt lat="42.8649423" lon="-5.3591926">
        <ele>1343.5</ele>
        <time>2016-09-06T15:27:24Z</time>
      </trkpt>
      <trkpt lat="42.8647894" lon="-5.3592133">
        <ele>1343.0</ele>
        <time>2016-09-06T15:27:27Z</time>
      </trkpt>
      <trkpt lat="42.8647207" lon="-5.3590524">
        <ele>1342.6</ele>
        <time>2016-09-06T15:27:29Z</time>
      </trkpt>
      <trkpt lat="42.8647096" lon="-5.358826">
        <ele>1341.6</ele>
        <time>2016-09-06T15:27:31Z</time>
      </trkpt>
      <trkpt lat="42.8647921" lon="-5.3585367">
        <ele>1340.7</ele>
        <time>2016-09-06T15:27:33Z</time>
      </trkpt>
      <trkpt lat="42.8649483" lon="-5.3582925">
        <ele>1339.9</ele>
        <time>2016-09-06T15:27:35Z</time>
      </trkpt>
      <trkpt lat="42.8651747" lon="-5.3581326">
        <ele>1338.8</ele>
        <time>2016-09-06T15:27:37Z</time>
      </trkpt>
      <trkpt lat="42.8654475" lon="-5.3580183">
        <ele>1337.6</ele>
        <time>2016-09-06T15:27:39Z</time>
      </trkpt>
      <trkpt lat="42.8657138" lon="-5.3579316">
        <ele>1336.0</ele>
        <time>2016-09-06T15:27:41Z</time>
      </trkpt>
      <trkpt lat="42.8659778" lon="-5.3579024">
        <ele>1335.5</ele>
        <time>2016-09-06T15:27:43Z</time>
      </trkpt>
      <trkpt lat="42.8662326" lon="-5.3578863">
        <ele>1335.2</ele>
        <time>2016-09-06T15:27:45Z</time>
      </trkpt>
      <trkpt lat="42.8664688" lon="-5.357721">
        <ele>1334.7</ele>
        <time>2016-09-06T15:27:47Z</time>
      </trkpt>
      <trkpt lat="42.8665847" lon="-5.3574427">
        <ele>1334.5</ele>
        <time>2016-09-06T15:27:49Z</time>
      </trkpt>
      <trkpt lat="42.8665757" lon="-5.3572198">
        <ele>1334.2</ele>
        <time>2016-09-06T15:27:51Z</time>
      </trkpt>
      <trkpt lat="42.8664166" lon="-5.3571712">
        <ele>1333.6</ele>
        <time>2016-09-06T15:27:55Z</time>
      </trkpt>
      <trkpt lat="42.8663801" lon="-5.3573547">
        <ele>1333.2</ele>
        <time>2016-09-06T15:27:57Z</time>
      </trkpt>
      <trkpt lat="42.866408" lon="-5.3575694">
        <ele>1332.5</ele>
        <time>2016-09-06T15:27:59Z</time>
      </trkpt>
      <trkpt lat="42.8664523" lon="-5.3577705">
        <ele>1332.2</ele>
        <time>2016-09-06T15:28:01Z</time>
      </trkpt>
      <trkpt lat="42.8664785" lon="-5.3580164">
        <ele>1329.6</ele>
        <time>2016-09-06T15:28:04Z</time>
      </trkpt>
      <trkpt lat="42.8664941" lon="-5.3582562">
        <ele>1326.8</ele>
        <time>2016-09-06T15:28:07Z</time>
      </trkpt>
      <trkpt lat="42.8665081" lon="-5.3584621">
        <ele>1326.2</ele>
        <time>2016-09-06T15:28:09Z</time>
      </trkpt>
      <trkpt lat="42.8664337" lon="-5.3586327">
        <ele>1325.1</ele>
        <time>2016-09-06T15:28:12Z</time>
      </trkpt>
      <trkpt lat="42.8662786" lon="-5.3585888">
        <ele>1323.9</ele>
        <time>2016-09-06T15:28:15Z</time>
      </trkpt>
      <trkpt lat="42.8661721" lon="-5.3586125">
        <ele>1322.5</ele>
        <time>2016-09-06T15:28:18Z</time>
      </trkpt>
      <trkpt lat="42.8660229" lon="-5.3587151">
        <ele>1321.8</ele>
        <time>2016-09-06T15:28:22Z</time>
      </trkpt>
      <trkpt lat="42.8659491" lon="-5.3588004">
        <ele>1320.7</ele>
        <time>2016-09-06T15:28:24Z</time>
      </trkpt>
      <trkpt lat="42.86585" lon="-5.358954">
        <ele>1319.8</ele>
        <time>2016-09-06T15:28:27Z</time>
      </trkpt>
      <trkpt lat="42.8657581" lon="-5.3591419">
        <ele>1319.2</ele>
        <time>2016-09-06T15:28:31Z</time>
      </trkpt>
      <trkpt lat="42.8656833" lon="-5.3593228">
        <ele>1318.5</ele>
        <time>2016-09-06T15:28:35Z</time>
      </trkpt>
      <trkpt lat="42.8655374" lon="-5.3594988">
        <ele>1318.0</ele>
        <time>2016-09-06T15:28:38Z</time>
      </trkpt>
      <trkpt lat="42.8653963" lon="-5.3596035">
        <ele>1316.6</ele>
        <time>2016-09-06T15:28:41Z</time>
      </trkpt>
      <trkpt lat="42.8653083" lon="-5.3596485">
        <ele>1315.3</ele>
        <time>2016-09-06T15:28:43Z</time>
      </trkpt>
      <trkpt lat="42.8651725" lon="-5.3595652">
        <ele>1312.2</ele>
        <time>2016-09-06T15:28:47Z</time>
      </trkpt>
      <trkpt lat="42.8650486" lon="-5.3594497">
        <ele>1308.0</ele>
        <time>2016-09-06T15:28:50Z</time>
      </trkpt>
      <trkpt lat="42.864989" lon="-5.3592612">
        <ele>1304.9</ele>
        <time>2016-09-06T15:28:53Z</time>
      </trkpt>
      <trkpt lat="42.8649681" lon="-5.3590774">
        <ele>1302.7</ele>
        <time>2016-09-06T15:28:55Z</time>
      </trkpt>
      <trkpt lat="42.8648538" lon="-5.3589651">
        <ele>1301.3</ele>
        <time>2016-09-06T15:28:58Z</time>
      </trkpt>
      <trkpt lat="42.8647995" lon="-5.3591061">
        <ele>1300.8</ele>
        <time>2016-09-06T15:29:00Z</time>
      </trkpt>
      <trkpt lat="42.8648326" lon="-5.3593843">
        <ele>1298.2</ele>
        <time>2016-09-06T15:29:03Z</time>
      </trkpt>
      <trkpt lat="42.864876" lon="-5.3595833">
        <ele>1296.5</ele>
        <time>2016-09-06T15:29:05Z</time>
      </trkpt>
      <trkpt lat="42.8649057" lon="-5.3597796">
        <ele>1295.8</ele>
        <time>2016-09-06T15:29:07Z</time>
      </trkpt>
      <trkpt lat="42.8649537" lon="-5.3599624">
        <ele>1295.2</ele>
        <time>2016-09-06T15:29:09Z</time>
      </trkpt>
      <trkpt lat="42.8649909" lon="-5.3601714">
        <ele>1294.6</ele>
        <time>2016-09-06T15:29:11Z</time>
      </trkpt>
      <trkpt lat="42.8650117" lon="-5.3604306">
        <ele>1294.4</ele>
        <time>2016-09-06T15:29:14Z</time>
      </trkpt>
      <trkpt lat="42.8649874" lon="-5.3606842">
        <ele>1294.4</ele>
        <time>2016-09-06T15:29:17Z</time>
      </trkpt>
      <trkpt lat="42.8650305" lon="-5.3609428">
        <ele>1294.4</ele>
        <time>2016-09-06T15:29:20Z</time>
      </trkpt>
      <trkpt lat="42.8650977" lon="-5.3611966">
        <ele>1294.4</ele>
        <time>2016-09-06T15:29:23Z</time>
      </trkpt>
      <trkpt lat="42.8651039" lon="-5.3614121">
        <ele>1294.4</ele>
        <time>2016-09-06T15:29:26Z</time>
      </trkpt>
      <trkpt lat="42.8649445" lon="-5.3615924">
        <ele>1294.4</ele>
        <time>2016-09-06T15:29:29Z</time>
      </trkpt>
      <trkpt lat="42.8648108" lon="-5.3614867">
        <ele>1294.4</ele>
        <time>2016-09-06T15:29:31Z</time>
      </trkpt>
      <trkpt lat="42.8647845" lon="-5.361239">
        <ele>1294.4</ele>
        <time>2016-09-06T15:29:33Z</time>
      </trkpt>
      <trkpt lat="42.8648392" lon="-5.3610272">
        <ele>1294.4</ele>
        <time>2016-09-06T15:29:35Z</time>
      </trkpt>
      <trkpt lat="42.8649434" lon="-5.3608415">
        <ele>1294.4</ele>
        <time>2016-09-06T15:29:37Z</time>
      </trkpt>
      <trkpt lat="42.864993" lon="-5.3606259">
        <ele>1294.6</ele>
        <time>2016-09-06T15:29:39Z</time>
      </trkpt>
      <trkpt lat="42.8648772" lon="-5.360494">
        <ele>1295.0</ele>
        <time>2016-09-06T15:29:41Z</time>
      </trkpt>
      <trkpt lat="42.8647758" lon="-5.360637">
        <ele>1295.5</ele>
        <time>2016-09-06T15:29:43Z</time>
      </trkpt>
      <trkpt lat="42.8648195" lon="-5.3608696">
        <ele>1296.0</ele>
        <time>2016-09-06T15:29:45Z</time>
      </trkpt>
      <trkpt lat="42.8650063" lon="-5.3610531">
        <ele>1296.3</ele>
        <time>2016-09-06T15:29:47Z</time>
      </trkpt>
      <trkpt lat="42.8652278" lon="-5.3610798">
        <ele>1296.9</ele>
        <time>2016-09-06T15:29:49Z</time>
      </trkpt>
      <trkpt lat="42.8654269" lon="-5.3609296">
        <ele>1297.3</ele>
        <time>2016-09-06T15:29:51Z</time>
      </trkpt>
      <trkpt lat="42.8654645" lon="-5.3606613">
        <ele>1297.4</ele>
        <time>2016-09-06T15:29:53Z</time>
      </trkpt>
      <trkpt lat="42.8653481" lon="-5.3604781">
        <ele>1298.5</ele>
        <time>2016-09-06T15:29:55Z</time>
      </trkpt>
      <trkpt lat="42.8652134" lon="-5.3606211">
        <ele>1298.7</ele>
        <time>2016-09-06T15:29:57Z</time>
      </trkpt>
      <trkpt lat="42.865294" lon="-5.3608872">
        <ele>1298.8</ele>
        <time>2016-09-06T15:30:00Z</time>
      </trkpt>
      <trkpt lat="42.8654557" lon="-5.3610483">
        <ele>1299.0</ele>
        <time>2016-09-06T15:30:02Z</time>
      </trkpt>
      <trkpt lat="42.86568" lon="-5.361045">
        <ele>1299.3</ele>
        <time>2016-09-06T15:30:04Z</time>
      </trkpt>
      <trkpt lat="42.8658404" lon="-5.3608668">
        <ele>1299.7</ele>
        <time>2016-09-06T15:30:06Z</time>
      </trkpt>
      <trkpt lat="42.8658781" lon="-5.3606145">
        <ele>1300.1</ele>
        <time>2016-09-06T15:30:08Z</time>
      </trkpt>
      <trkpt lat="42.8657418" lon="-5.3604688">
        <ele>1300.5</ele>
        <time>2016-09-06T15:30:10Z</time>
      </trkpt>
      <trkpt lat="42.8656517" lon="-5.3604919">
        <ele>1300.6</ele>
        <time>2016-09-06T15:30:11Z</time>
      </trkpt>
      <trkpt lat="42.865589" lon="-5.3605934">
        <ele>1300.7</ele>
        <time>2016-09-06T15:30:12Z</time>
      </trkpt>
      <trkpt lat="42.8655945" lon="-5.36084">
        <ele>1300.7</ele>
        <time>2016-09-06T15:30:15Z</time>
      </trkpt>
      <trkpt lat="42.8656219" lon="-5.3611038">
        <ele>1301.2</ele>
        <time>2016-09-06T15:30:18Z</time>
      </trkpt>
      <trkpt lat="42.8655015" lon="-5.3612769">
        <ele>1301.1</ele>
        <time>2016-09-06T15:30:21Z</time>
      </trkpt>
      <trkpt lat="42.8654265" lon="-5.3610611">
        <ele>1300.2</ele>
        <time>2016-09-06T15:30:24Z</time>
      </trkpt>
      <trkpt lat="42.8654916" lon="-5.3608321">
        <ele>1300.1</ele>
        <time>2016-09-06T15:30:26Z</time>
      </trkpt>
      <trkpt lat="42.8656675" lon="-5.3606804">
        <ele>1300.0</ele>
        <time>2016-09-06T15:30:28Z</time>
      </trkpt>
      <trkpt lat="42.8658863" lon="-5.3606642">
        <ele>1300.1</ele>
        <time>2016-09-06T15:30:30Z</time>
      </trkpt>
      <trkpt lat="42.866057" lon="-5.3607826">
        <ele>1300.8</ele>
        <time>2016-09-06T15:30:32Z</time>
      </trkpt>
      <trkpt lat="42.8661415" lon="-5.360975">
        <ele>1301.1</ele>
        <time>2016-09-06T15:30:34Z</time>
      </trkpt>
      <trkpt lat="42.8661197" lon="-5.3611574">
        <ele>1301.2</ele>
        <time>2016-09-06T15:30:36Z</time>
      </trkpt>
      <trkpt lat="42.8659772" lon="-5.3611958">
        <ele>1301.5</ele>
        <time>2016-09-06T15:30:40Z</time>
      </trkpt>
      <trkpt lat="42.8658823" lon="-5.3610477">
        <ele>1301.8</ele>
        <time>2016-09-06T15:30:42Z</time>
      </trkpt>
      <trkpt lat="42.8659092" lon="-5.3607933">
        <ele>1302.0</ele>
        <time>2016-09-06T15:30:44Z</time>
      </trkpt>
      <trkpt lat="42.866075" lon="-5.3605943">
        <ele>1302.2</ele>
        <time>2016-09-06T15:30:46Z</time>
      </trkpt>
      <trkpt lat="42.8662456" lon="-5.3604409">
        <ele>1302.4</ele>
        <time>2016-09-06T15:30:48Z</time>
      </trkpt>
      <trkpt lat="42.866336" lon="-5.3601965">
        <ele>1302.6</ele>
        <time>2016-09-06T15:30:50Z</time>
      </trkpt>
      <trkpt lat="42.8662608" lon="-5.3599688">
        <ele>1302.6</ele>
        <time>2016-09-06T15:30:52Z</time>
      </trkpt>
      <trkpt lat="42.8660886" lon="-5.3600074">
        <ele>1302.7</ele>
        <time>2016-09-06T15:30:54Z</time>
      </trkpt>
      <trkpt lat="42.8660599" lon="-5.3602516">
        <ele>1302.7</ele>
        <time>2016-09-06T15:30:56Z</time>
      </trkpt>
      <trkpt lat="42.8661894" lon="-5.360479">
        <ele>1302.9</ele>
        <time>2016-09-06T15:30:58Z</time>
      </trkpt>
      <trkpt lat="42.8663924" lon="-5.3605624">
        <ele>1303.0</ele>
        <time>2016-09-06T15:31:00Z</time>
      </trkpt>
      <trkpt lat="42.8664896" lon="-5.3605596">
        <ele>1304.5</ele>
        <time>2016-09-06T15:31:01Z</time>
      </trkpt>
      <trkpt lat="42.8666041" lon="-5.3605118">
        <ele>1304.5</ele>
        <time>2016-09-06T15:31:02Z</time>
      </trkpt>
      <trkpt lat="42.8667122" lon="-5.3604263">
        <ele>1304.5</ele>
        <time>2016-09-06T15:31:03Z</time>
      </trkpt>
      <trkpt lat="42.8667887" lon="-5.3602946">
        <ele>1304.5</ele>
        <time>2016-09-06T15:31:04Z</time>
      </trkpt>
      <trkpt lat="42.8668046" lon="-5.3601356">
        <ele>1304.5</ele>
        <time>2016-09-06T15:31:05Z</time>
      </trkpt>
      <trkpt lat="42.8666984" lon="-5.3599253">
        <ele>1305.3</ele>
        <time>2016-09-06T15:31:07Z</time>
      </trkpt>
      <trkpt lat="42.8665443" lon="-5.3598802">
        <ele>1305.8</ele>
        <time>2016-09-06T15:31:09Z</time>
      </trkpt>
      <trkpt lat="42.8664135" lon="-5.3599562">
        <ele>1306.1</ele>
        <time>2016-09-06T15:31:11Z</time>
      </trkpt>
      <trkpt lat="42.8663534" lon="-5.3601061">
        <ele>1307.1</ele>
        <time>2016-09-06T15:31:13Z</time>
      </trkpt>
      <trkpt lat="42.8663586" lon="-5.360347">
        <ele>1307.5</ele>
        <time>2016-09-06T15:31:15Z</time>
      </trkpt>
      <trkpt lat="42.8663934" lon="-5.360584">
        <ele>1308.5</ele>
        <time>2016-09-06T15:31:17Z</time>
      </trkpt>
      <trkpt lat="42.866411" lon="-5.3607983">
        <ele>1309.4</ele>
        <time>2016-09-06T15:31:19Z</time>
      </trkpt>
      <trkpt lat="42.8664015" lon="-5.3610172">
        <ele>1309.9</ele>
        <time>2016-09-06T15:31:21Z</time>
      </trkpt>
      <trkpt lat="42.8663779" lon="-5.3612029">
        <ele>1310.4</ele>
        <time>2016-09-06T15:31:23Z</time>
      </trkpt>
      <trkpt lat="42.8662733" lon="-5.3613727">
        <ele>1310.9</ele>
        <time>2016-09-06T15:31:26Z</time>
      </trkpt>
      <trkpt lat="42.8661247" lon="-5.3612714">
        <ele>1314.9</ele>
        <time>2016-09-06T15:31:29Z</time>
      </trkpt>
      <trkpt lat="42.8660705" lon="-5.3610365">
        <ele>1316.4</ele>
        <time>2016-09-06T15:31:31Z</time>
      </trkpt>
      <trkpt lat="42.8661445" lon="-5.3607978">
        <ele>1317.0</ele>
        <time>2016-09-06T15:31:33Z</time>
      </trkpt>
      <trkpt lat="42.8662749" lon="-5.3605821">
        <ele>1318.2</ele>
        <time>2016-09-06T15:31:35Z</time>
      </trkpt>
      <trkpt lat="42.8664198" lon="-5.3603832">
        <ele>1319.0</ele>
        <time>2016-09-06T15:31:37Z</time>
      </trkpt>
      <trkpt lat="42.8665958" lon="-5.3603063">
        <ele>1319.6</ele>
        <time>2016-09-06T15:31:39Z</time>
      </trkpt>
      <trkpt lat="42.8667753" lon="-5.3603543">
        <ele>1320.7</ele>
        <time>2016-09-06T15:31:41Z</time>
      </trkpt>
      <trkpt lat="42.8668872" lon="-5.3605559">
        <ele>1324.3</ele>
        <time>2016-09-06T15:31:43Z</time>
      </trkpt>
      <trkpt lat="42.8668269" lon="-5.3607499">
        <ele>1327.3</ele>
        <time>2016-09-06T15:31:45Z</time>
      </trkpt>
      <trkpt lat="42.8666634" lon="-5.3607336">
        <ele>1331.2</ele>
        <time>2016-09-06T15:31:48Z</time>
      </trkpt>
      <trkpt lat="42.8665454" lon="-5.3605232">
        <ele>1333.4</ele>
        <time>2016-09-06T15:31:51Z</time>
      </trkpt>
      <trkpt lat="42.8665375" lon="-5.360304">
        <ele>1334.5</ele>
        <time>2016-09-06T15:31:53Z</time>
      </trkpt>
      <trkpt lat="42.8666828" lon="-5.3601104">
        <ele>1335.0</ele>
        <time>2016-09-06T15:31:55Z</time>
      </trkpt>
      <trkpt lat="42.8669883" lon="-5.3601963">
        <ele>1336.0</ele>
        <time>2016-09-06T15:31:58Z</time>
      </trkpt>
      <trkpt lat="42.8670986" lon="-5.3603813">
        <ele>1337.4</ele>
        <time>2016-09-06T15:32:00Z</time>
      </trkpt>
      <trkpt lat="42.8670881" lon="-5.3605825">
        <ele>1338.0</ele>
        <time>2016-09-06T15:32:02Z</time>
      </trkpt>
      <trkpt lat="42.8670366" lon="-5.3607932">
        <ele>1340.3</ele>
        <time>2016-09-06T15:32:05Z</time>
      </trkpt>
      <trkpt lat="42.866931" lon="-5.3609387">
        <ele>1341.9</ele>
        <time>2016-09-06T15:32:08Z</time>
      </trkpt>
      <trkpt lat="42.866796" lon="-5.3608469">
        <ele>1343.6</ele>
        <time>2016-09-06T15:32:10Z</time>
      </trkpt>
      <trkpt lat="42.8667946" lon="-5.3606084">
        <ele>1345.3</ele>
        <time>2016-09-06T15:32:12Z</time>
      </trkpt>
      <trkpt lat="42.8669269" lon="-5.3603816">
        <ele>1346.0</ele>
        <time>2016-09-06T15:32:14Z</time>
      </trkpt>
      <trkpt lat="42.8671247" lon="-5.3603016">
        <ele>1347.5</ele>
        <time>2016-09-06T15:32:16Z</time>
      </trkpt>
      <trkpt lat="42.8672634" lon="-5.3604305">
        <ele>1349.9</ele>
        <time>2016-09-06T15:32:18Z</time>
      </trkpt>
      <trkpt lat="42.8672546" lon="-5.3606463">
        <ele>1351.1</ele>
        <time>2016-09-06T15:32:20Z</time>
      </trkpt>
      <trkpt lat="42.8671208" lon="-5.3607366">
        <ele>1353.9</ele>
        <time>2016-09-06T15:32:23Z</time>
      </trkpt>
      <trkpt lat="42.8670134" lon="-5.3607261">
        <ele>1357.2</ele>
        <time>2016-09-06T15:32:25Z</time>
      </trkpt>
      <trkpt lat="42.8669174" lon="-5.3607722">
        <ele>1361.4</ele>
        <time>2016-09-06T15:32:27Z</time>
      </trkpt>
      <trkpt lat="42.866753" lon="-5.3607347">
        <ele>1368.5</ele>
        <time>2016-09-06T15:32:30Z</time>
      </trkpt>
      <trkpt lat="42.8666784" lon="-5.3605109">
        <ele>1370.4</ele>
        <time>2016-09-06T15:32:31Z</time>
      </trkpt>
      <trkpt lat="42.8667324" lon="-5.3602412">
        <ele>1371.2</ele>
        <time>2016-09-06T15:32:33Z</time>
      </trkpt>
      <trkpt lat="42.8669052" lon="-5.3600981">
        <ele>1371.9</ele>
        <time>2016-09-06T15:32:35Z</time>
      </trkpt>
      <trkpt lat="42.867088" lon="-5.3601678">
        <ele>1372.3</ele>
        <time>2016-09-06T15:32:37Z</time>
      </trkpt>
      <trkpt lat="42.8671643" lon="-5.3604106">
        <ele>1372.9</ele>
        <time>2016-09-06T15:32:39Z</time>
      </trkpt>
      <trkpt lat="42.8670551" lon="-5.3605802">
        <ele>1374.2</ele>
        <time>2016-09-06T15:32:42Z</time>
      </trkpt>
      <trkpt lat="42.8668914" lon="-5.360566">
        <ele>1375.3</ele>
        <time>2016-09-06T15:32:45Z</time>
      </trkpt>
      <trkpt lat="42.8667095" lon="-5.3604272">
        <ele>1376.3</ele>
        <time>2016-09-06T15:32:48Z</time>
      </trkpt>
      <trkpt lat="42.8666233" lon="-5.3602081">
        <ele>1376.6</ele>
        <time>2016-09-06T15:32:50Z</time>
      </trkpt>
      <trkpt lat="42.8665989" lon="-5.3599934">
        <ele>1377.0</ele>
        <time>2016-09-06T15:32:52Z</time>
      </trkpt>
      <trkpt lat="42.8666735" lon="-5.3597407">
        <ele>1378.0</ele>
        <time>2016-09-06T15:32:54Z</time>
      </trkpt>
      <trkpt lat="42.8668112" lon="-5.3595063">
        <ele>1378.7</ele>
        <time>2016-09-06T15:32:56Z</time>
      </trkpt>
      <trkpt lat="42.866992" lon="-5.3593201">
        <ele>1379.4</ele>
        <time>2016-09-06T15:32:58Z</time>
      </trkpt>
      <trkpt lat="42.8672048" lon="-5.359293">
        <ele>1380.2</ele>
        <time>2016-09-06T15:33:00Z</time>
      </trkpt>
      <trkpt lat="42.8674259" lon="-5.3593993">
        <ele>1381.0</ele>
        <time>2016-09-06T15:33:02Z</time>
      </trkpt>
      <trkpt lat="42.8675226" lon="-5.3596201">
        <ele>1381.5</ele>
        <time>2016-09-06T15:33:04Z</time>
      </trkpt>
      <trkpt lat="42.8675039" lon="-5.3598113">
        <ele>1382.7</ele>
        <time>2016-09-06T15:33:06Z</time>
      </trkpt>
      <trkpt lat="42.8674747" lon="-5.3600335">
        <ele>1386.4</ele>
        <time>2016-09-06T15:33:10Z</time>
      </trkpt>
      <trkpt lat="42.8674839" lon="-5.3602214">
        <ele>1391.0</ele>
        <time>2016-09-06T15:33:12Z</time>
      </trkpt>
      <trkpt lat="42.8675255" lon="-5.3604266">
        <ele>1392.8</ele>
        <time>2016-09-06T15:33:14Z</time>
      </trkpt>
      <trkpt lat="42.8675367" lon="-5.3606137">
        <ele>1393.9</ele>
        <time>2016-09-06T15:33:16Z</time>
      </trkpt>
      <trkpt lat="42.8674789" lon="-5.3608235">
        <ele>1395.5</ele>
        <time>2016-09-06T15:33:19Z</time>
      </trkpt>
      <trkpt lat="42.8672902" lon="-5.3608262">
        <ele>1399.5</ele>
        <time>2016-09-06T15:33:22Z</time>
      </trkpt>
      <trkpt lat="42.8672165" lon="-5.3606162">
        <ele>1400.8</ele>
        <time>2016-09-06T15:33:24Z</time>
      </trkpt>
      <trkpt lat="42.8673083" lon="-5.3603225">
        <ele>1401.6</ele>
        <time>2016-09-06T15:33:26Z</time>
      </trkpt>
      <trkpt lat="42.8674956" lon="-5.3600868">
        <ele>1404.6</ele>
        <time>2016-09-06T15:33:28Z</time>
      </trkpt>
      <trkpt lat="42.8676904" lon="-5.3600379">
        <ele>1406.9</ele>
        <time>2016-09-06T15:33:30Z</time>
      </trkpt>
      <trkpt lat="42.8678629" lon="-5.3601381">
        <ele>1409.1</ele>
        <time>2016-09-06T15:33:32Z</time>
      </trkpt>
      <trkpt lat="42.8679403" lon="-5.360312">
        <ele>1409.4</ele>
        <time>2016-09-06T15:33:34Z</time>
      </trkpt>
      <trkpt lat="42.8678965" lon="-5.3605776">
        <ele>1413.8</ele>
        <time>2016-09-06T15:33:37Z</time>
      </trkpt>
      <trkpt lat="42.8677801" lon="-5.3607784">
        <ele>1418.1</ele>
        <time>2016-09-06T15:33:40Z</time>
      </trkpt>
      <trkpt lat="42.8677692" lon="-5.3610362">
        <ele>1419.8</ele>
        <time>2016-09-06T15:33:43Z</time>
      </trkpt>
      <trkpt lat="42.8678155" lon="-5.3612255">
        <ele>1424.0</ele>
        <time>2016-09-06T15:33:45Z</time>
      </trkpt>
      <trkpt lat="42.8678725" lon="-5.3614117">
        <ele>1428.0</ele>
        <time>2016-09-06T15:33:47Z</time>
      </trkpt>
      <trkpt lat="42.8678355" lon="-5.3616285">
        <ele>1432.6</ele>
        <time>2016-09-06T15:33:50Z</time>
      </trkpt>
      <trkpt lat="42.8677006" lon="-5.3616555">
        <ele>1433.6</ele>
        <time>2016-09-06T15:33:52Z</time>
      </trkpt>
      <trkpt lat="42.8676168" lon="-5.3614754">
        <ele>1435.8</ele>
        <time>2016-09-06T15:33:54Z</time>
      </trkpt>
      <trkpt lat="42.8676464" lon="-5.3611964">
        <ele>1435.8</ele>
        <time>2016-09-06T15:33:56Z</time>
      </trkpt>
      <trkpt lat="42.8677786" lon="-5.360985">
        <ele>1438.5</ele>
        <time>2016-09-06T15:33:58Z</time>
      </trkpt>
      <trkpt lat="42.8679534" lon="-5.3608432">
        <ele>1441.8</ele>
        <time>2016-09-06T15:34:00Z</time>
      </trkpt>
      <trkpt lat="42.8681746" lon="-5.3608308">
        <ele>1446.3</ele>
        <time>2016-09-06T15:34:02Z</time>
      </trkpt>
      <trkpt lat="42.8683521" lon="-5.3609644">
        <ele>1450.4</ele>
        <time>2016-09-06T15:34:04Z</time>
      </trkpt>
      <trkpt lat="42.8684231" lon="-5.3611743">
        <ele>1453.6</ele>
        <time>2016-09-06T15:34:06Z</time>
      </trkpt>
      <trkpt lat="42.868489" lon="-5.3613694">
        <ele>1455.6</ele>
        <time>2016-09-06T15:34:08Z</time>
      </trkpt>
      <trkpt lat="42.8685852" lon="-5.3615195">
        <ele>1458.4</ele>
        <time>2016-09-06T15:34:10Z</time>
      </trkpt>
      <trkpt lat="42.8686722" lon="-5.3616808">
        <ele>1462.0</ele>
        <time>2016-09-06T15:34:12Z</time>
      </trkpt>
      <trkpt lat="42.8687427" lon="-5.3618501">
        <ele>1465.9</ele>
        <time>2016-09-06T15:34:14Z</time>
      </trkpt>
      <trkpt lat="42.8686839" lon="-5.3620504">
        <ele>1471.2</ele>
        <time>2016-09-06T15:34:17Z</time>
      </trkpt>
      <trkpt lat="42.8685838" lon="-5.3621786">
        <ele>1474.8</ele>
        <time>2016-09-06T15:34:20Z</time>
      </trkpt>
      <trkpt lat="42.8685081" lon="-5.362386">
        <ele>1477.6</ele>
        <time>2016-09-06T15:34:24Z</time>
      </trkpt>
      <trkpt lat="42.8683392" lon="-5.3623768">
        <ele>1480.3</ele>
        <time>2016-09-06T15:34:26Z</time>
      </trkpt>
      <trkpt lat="42.8682065" lon="-5.3621929">
        <ele>1482.8</ele>
        <time>2016-09-06T15:34:28Z</time>
      </trkpt>
      <trkpt lat="42.8681813" lon="-5.3619427">
        <ele>1486.8</ele>
        <time>2016-09-06T15:34:30Z</time>
      </trkpt>
      <trkpt lat="42.8682424" lon="-5.3616549">
        <ele>1489.1</ele>
        <time>2016-09-06T15:34:32Z</time>
      </trkpt>
      <trkpt lat="42.8684136" lon="-5.3614098">
        <ele>1491.3</ele>
        <time>2016-09-06T15:34:34Z</time>
      </trkpt>
      <trkpt lat="42.8686337" lon="-5.3613803">
        <ele>1494.3</ele>
        <time>2016-09-06T15:34:36Z</time>
      </trkpt>
      <trkpt lat="42.8687832" lon="-5.3615313">
        <ele>1497.5</ele>
        <time>2016-09-06T15:34:38Z</time>
      </trkpt>
      <trkpt lat="42.8688061" lon="-5.3617911">
        <ele>1503.5</ele>
        <time>2016-09-06T15:34:41Z</time>
      </trkpt>
      <trkpt lat="42.8686388" lon="-5.3618103">
        <ele>1506.0</ele>
        <time>2016-09-06T15:34:44Z</time>
      </trkpt>
      <trkpt lat="42.8685653" lon="-5.3616158">
        <ele>1506.9</ele>
        <time>2016-09-06T15:34:46Z</time>
      </trkpt>
      <trkpt lat="42.8685914" lon="-5.3613377">
        <ele>1508.0</ele>
        <time>2016-09-06T15:34:48Z</time>
      </trkpt>
      <trkpt lat="42.8686904" lon="-5.3610854">
        <ele>1510.6</ele>
        <time>2016-09-06T15:34:50Z</time>
      </trkpt>
      <trkpt lat="42.8688796" lon="-5.3609128">
        <ele>1512.1</ele>
        <time>2016-09-06T15:34:52Z</time>
      </trkpt>
      <trkpt lat="42.8691582" lon="-5.3610115">
        <ele>1513.6</ele>
        <time>2016-09-06T15:34:55Z</time>
      </trkpt>
      <trkpt lat="42.8692014" lon="-5.3611897">
        <ele>1514.2</ele>
        <time>2016-09-06T15:34:57Z</time>
      </trkpt>
      <trkpt lat="42.8691246" lon="-5.3613815">
        <ele>1517.9</ele>
        <time>2016-09-06T15:35:00Z</time>
      </trkpt>
      <trkpt lat="42.8690083" lon="-5.361544">
        <ele>1520.1</ele>
        <time>2016-09-06T15:35:04Z</time>
      </trkpt>
      <trkpt lat="42.8689276" lon="-5.3617657">
        <ele>1521.6</ele>
        <time>2016-09-06T15:35:07Z</time>
      </trkpt>
      <trkpt lat="42.8689632" lon="-5.3620479">
        <ele>1523.7</ele>
        <time>2016-09-06T15:35:10Z</time>
      </trkpt>
      <trkpt lat="42.8690514" lon="-5.3622824">
        <ele>1525.5</ele>
        <time>2016-09-06T15:35:12Z</time>
      </trkpt>
      <trkpt lat="42.8691141" lon="-5.3625034">
        <ele>1526.2</ele>
        <time>2016-09-06T15:35:14Z</time>
      </trkpt>
      <trkpt lat="42.8691775" lon="-5.362722">
        <ele>1527.6</ele>
        <time>2016-09-06T15:35:16Z</time>
      </trkpt>
      <trkpt lat="42.869214" lon="-5.362947">
        <ele>1529.5</ele>
        <time>2016-09-06T15:35:18Z</time>
      </trkpt>
      <trkpt lat="42.8692636" lon="-5.3631309">
        <ele>1531.0</ele>
        <time>2016-09-06T15:35:20Z</time>
      </trkpt>
      <trkpt lat="42.8693669" lon="-5.3633229">
        <ele>1531.6</ele>
        <time>2016-09-06T15:35:22Z</time>
      </trkpt>
      <trkpt lat="42.8693776" lon="-5.3635249">
        <ele>1532.0</ele>
        <time>2016-09-06T15:35:24Z</time>
      </trkpt>
      <trkpt lat="42.8692623" lon="-5.3636789">
        <ele>1532.9</ele>
        <time>2016-09-06T15:35:27Z</time>
      </trkpt>
      <trkpt lat="42.8691083" lon="-5.3635627">
        <ele>1536.3</ele>
        <time>2016-09-06T15:35:30Z</time>
      </trkpt>
      <trkpt lat="42.8690422" lon="-5.3633251">
        <ele>1538.7</ele>
        <time>2016-09-06T15:35:32Z</time>
      </trkpt>
      <trkpt lat="42.8690867" lon="-5.3630283">
        <ele>1539.9</ele>
        <time>2016-09-06T15:35:34Z</time>
      </trkpt>
      <trkpt lat="42.8692142" lon="-5.3628228">
        <ele>1541.6</ele>
        <time>2016-09-06T15:35:36Z</time>
      </trkpt>
      <trkpt lat="42.8693982" lon="-5.3627404">
        <ele>1546.6</ele>
        <time>2016-09-06T15:35:38Z</time>
      </trkpt>
      <trkpt lat="42.8695749" lon="-5.3627952">
        <ele>1550.5</ele>
        <time>2016-09-06T15:35:40Z</time>
      </trkpt>
      <trkpt lat="42.8697035" lon="-5.3629582">
        <ele>1552.4</ele>
        <time>2016-09-06T15:35:42Z</time>
      </trkpt>
      <trkpt lat="42.8697283" lon="-5.3631761">
        <ele>1553.8</ele>
        <time>2016-09-06T15:35:44Z</time>
      </trkpt>
      <trkpt lat="42.8696541" lon="-5.3633308">
        <ele>1555.7</ele>
        <time>2016-09-06T15:35:46Z</time>
      </trkpt>
      <trkpt lat="42.8695141" lon="-5.3633997">
        <ele>1558.2</ele>
        <time>2016-09-06T15:35:49Z</time>
      </trkpt>
      <trkpt lat="42.8692572" lon="-5.3633125">
        <ele>1562.4</ele>
        <time>2016-09-06T15:35:53Z</time>
      </trkpt>
      <trkpt lat="42.8691119" lon="-5.3632887">
        <ele>1566.8</ele>
        <time>2016-09-06T15:35:55Z</time>
      </trkpt>
      <trkpt lat="42.8690437" lon="-5.3632386">
        <ele>1566.8</ele>
        <time>2016-09-06T15:35:56Z</time>
      </trkpt>
      <trkpt lat="42.86898" lon="-5.3631543">
        <ele>1566.8</ele>
        <time>2016-09-06T15:35:57Z</time>
      </trkpt>
      <trkpt lat="42.8689314" lon="-5.3630473">
        <ele>1566.8</ele>
        <time>2016-09-06T15:35:58Z</time>
      </trkpt>
      <trkpt lat="42.868932" lon="-5.3629148">
        <ele>1566.8</ele>
        <time>2016-09-06T15:35:59Z</time>
      </trkpt>
      <trkpt lat="42.8690504" lon="-5.362676">
        <ele>1569.1</ele>
        <time>2016-09-06T15:36:01Z</time>
      </trkpt>
      <trkpt lat="42.8692796" lon="-5.3626554">
        <ele>1570.8</ele>
        <time>2016-09-06T15:36:03Z</time>
      </trkpt>
      <trkpt lat="42.8694256" lon="-5.3628284">
        <ele>1574.1</ele>
        <time>2016-09-06T15:36:05Z</time>
      </trkpt>
      <trkpt lat="42.869525" lon="-5.3629665">
        <ele>1578.0</ele>
        <time>2016-09-06T15:36:07Z</time>
      </trkpt>
      <trkpt lat="42.8696433" lon="-5.363176">
        <ele>1579.9</ele>
        <time>2016-09-06T15:36:10Z</time>
      </trkpt>
      <trkpt lat="42.8697543" lon="-5.3633568">
        <ele>1580.1</ele>
        <time>2016-09-06T15:36:12Z</time>
      </trkpt>
      <trkpt lat="42.8698176" lon="-5.3635435">
        <ele>1580.4</ele>
        <time>2016-09-06T15:36:14Z</time>
      </trkpt>
      <trkpt lat="42.8698685" lon="-5.363786">
        <ele>1583.9</ele>
        <time>2016-09-06T15:36:17Z</time>
      </trkpt>
      <trkpt lat="42.8698826" lon="-5.3640416">
        <ele>1586.7</ele>
        <time>2016-09-06T15:36:20Z</time>
      </trkpt>
      <trkpt lat="42.8698709" lon="-5.3642505">
        <ele>1588.0</ele>
        <time>2016-09-06T15:36:22Z</time>
      </trkpt>
      <trkpt lat="42.8698734" lon="-5.3644516">
        <ele>1588.8</ele>
        <time>2016-09-06T15:36:24Z</time>
      </trkpt>
      <trkpt lat="42.8698961" lon="-5.3646459">
        <ele>1589.2</ele>
        <time>2016-09-06T15:36:26Z</time>
      </trkpt>
      <trkpt lat="42.8699281" lon="-5.3648277">
        <ele>1589.5</ele>
        <time>2016-09-06T15:36:28Z</time>
      </trkpt>
      <trkpt lat="42.8700006" lon="-5.365023">
        <ele>1589.6</ele>
        <time>2016-09-06T15:36:30Z</time>
      </trkpt>
      <trkpt lat="42.8701182" lon="-5.3652395">
        <ele>1589.9</ele>
        <time>2016-09-06T15:36:32Z</time>
      </trkpt>
      <trkpt lat="42.8702493" lon="-5.3654297">
        <ele>1590.2</ele>
        <time>2016-09-06T15:36:34Z</time>
      </trkpt>
      <trkpt lat="42.8703375" lon="-5.3655937">
        <ele>1590.9</ele>
        <time>2016-09-06T15:36:36Z</time>
      </trkpt>
      <trkpt lat="42.8704285" lon="-5.3658233">
        <ele>1593.8</ele>
        <time>2016-09-06T15:36:39Z</time>
      </trkpt>
      <trkpt lat="42.8704898" lon="-5.3660707">
        <ele>1594.4</ele>
        <time>2016-09-06T15:36:42Z</time>
      </trkpt>
      <trkpt lat="42.8703719" lon="-5.3661902">
        <ele>1595.4</ele>
        <time>2016-09-06T15:36:46Z</time>
      </trkpt>
      <trkpt lat="42.8702664" lon="-5.3660766">
        <ele>1596.8</ele>
        <time>2016-09-06T15:36:48Z</time>
      </trkpt>
      <trkpt lat="42.8702125" lon="-5.3659871">
        <ele>1596.8</ele>
        <time>2016-09-06T15:36:49Z</time>
      </trkpt>
      <trkpt lat="42.8701717" lon="-5.3658783">
        <ele>1596.8</ele>
        <time>2016-09-06T15:36:50Z</time>
      </trkpt>
      <trkpt lat="42.8701229" lon="-5.3657903">
        <ele>1596.8</ele>
        <time>2016-09-06T15:36:51Z</time>
      </trkpt>
      <trkpt lat="42.8701022" lon="-5.3656967">
        <ele>1596.8</ele>
        <time>2016-09-06T15:36:52Z</time>
      </trkpt>
      <trkpt lat="42.8700416" lon="-5.3654786">
        <ele>1598.2</ele>
        <time>2016-09-06T15:36:54Z</time>
      </trkpt>
      <trkpt lat="42.8699815" lon="-5.365253">
        <ele>1601.9</ele>
        <time>2016-09-06T15:36:56Z</time>
      </trkpt>
      <trkpt lat="42.869947" lon="-5.3649929">
        <ele>1603.5</ele>
        <time>2016-09-06T15:36:58Z</time>
      </trkpt>
      <trkpt lat="42.8699747" lon="-5.364689">
        <ele>1603.9</ele>
        <time>2016-09-06T15:37:00Z</time>
      </trkpt>
      <trkpt lat="42.8700269" lon="-5.3643889">
        <ele>1604.5</ele>
        <time>2016-09-06T15:37:02Z</time>
      </trkpt>
      <trkpt lat="42.8700892" lon="-5.3640962">
        <ele>1604.7</ele>
        <time>2016-09-06T15:37:04Z</time>
      </trkpt>
      <trkpt lat="42.870099" lon="-5.3638178">
        <ele>1604.8</ele>
        <time>2016-09-06T15:37:06Z</time>
      </trkpt>
      <trkpt lat="42.8700207" lon="-5.363607">
        <ele>1604.8</ele>
        <time>2016-09-06T15:37:08Z</time>
      </trkpt>
      <trkpt lat="42.8698507" lon="-5.3635544">
        <ele>1604.8</ele>
        <time>2016-09-06T15:37:11Z</time>
      </trkpt>
      <trkpt lat="42.8698157" lon="-5.3636995">
        <ele>1604.8</ele>
        <time>2016-09-06T15:37:13Z</time>
      </trkpt>
      <trkpt lat="42.8699261" lon="-5.3638861">
        <ele>1604.8</ele>
        <time>2016-09-06T15:37:16Z</time>
      </trkpt>
      <trkpt lat="42.8700333" lon="-5.3640184">
        <ele>1604.8</ele>
        <time>2016-09-06T15:37:18Z</time>
      </trkpt>
      <trkpt lat="42.8701699" lon="-5.3641737">
        <ele>1604.8</ele>
        <time>2016-09-06T15:37:20Z</time>
      </trkpt>
      <trkpt lat="42.8702954" lon="-5.3643365">
        <ele>1604.8</ele>
        <time>2016-09-06T15:37:22Z</time>
      </trkpt>
      <trkpt lat="42.8704499" lon="-5.3644791">
        <ele>1604.8</ele>
        <time>2016-09-06T15:37:24Z</time>
      </trkpt>
      <trkpt lat="42.8705873" lon="-5.364622">
        <ele>1604.8</ele>
        <time>2016-09-06T15:37:26Z</time>
      </trkpt>
      <trkpt lat="42.8705076" lon="-5.3647919">
        <ele>1604.1</ele>
        <time>2016-09-06T15:37:30Z</time>
      </trkpt>
      <trkpt lat="42.8703621" lon="-5.3646502">
        <ele>1603.9</ele>
        <time>2016-09-06T15:37:32Z</time>
      </trkpt>
      <trkpt lat="42.8702795" lon="-5.3643886">
        <ele>1603.7</ele>
        <time>2016-09-06T15:37:34Z</time>
      </trkpt>
      <trkpt lat="42.8702731" lon="-5.3641019">
        <ele>1603.3</ele>
        <time>2016-09-06T15:37:36Z</time>
      </trkpt>
      <trkpt lat="42.8703195" lon="-5.3637718">
        <ele>1602.6</ele>
        <time>2016-09-06T15:37:38Z</time>
      </trkpt>
      <trkpt lat="42.8703978" lon="-5.3634426">
        <ele>1601.2</ele>
        <time>2016-09-06T15:37:40Z</time>
      </trkpt>
      <trkpt lat="42.8704722" lon="-5.3631059">
        <ele>1599.3</ele>
        <time>2016-09-06T15:37:42Z</time>
      </trkpt>
      <trkpt lat="42.8705206" lon="-5.3627846">
        <ele>1598.7</ele>
        <time>2016-09-06T15:37:44Z</time>
      </trkpt>
      <trkpt lat="42.8704762" lon="-5.3625296">
        <ele>1597.1</ele>
        <time>2016-09-06T15:37:46Z</time>
      </trkpt>
      <trkpt lat="42.8703643" lon="-5.3623725">
        <ele>1596.3</ele>
        <time>2016-09-06T15:37:48Z</time>
      </trkpt>
      <trkpt lat="42.8702513" lon="-5.3623919">
        <ele>1593.5</ele>
        <time>2016-09-06T15:37:51Z</time>
      </trkpt>
      <trkpt lat="42.8702673" lon="-5.3626134">
        <ele>1591.1</ele>
        <time>2016-09-06T15:37:55Z</time>
      </trkpt>
      <trkpt lat="42.8703362" lon="-5.3628539">
        <ele>1588.4</ele>
        <time>2016-09-06T15:37:59Z</time>
      </trkpt>
      <trkpt lat="42.8703832" lon="-5.3630813">
        <ele>1583.7</ele>
        <time>2016-09-06T15:38:02Z</time>
      </trkpt>
      <trkpt lat="42.8704838" lon="-5.3633204">
        <ele>1582.3</ele>
        <time>2016-09-06T15:38:05Z</time>
      </trkpt>
      <trkpt lat="42.8705575" lon="-5.3634756">
        <ele>1581.3</ele>
        <time>2016-09-06T15:38:07Z</time>
      </trkpt>
      <trkpt lat="42.8705831" lon="-5.3636689">
        <ele>1580.5</ele>
        <time>2016-09-06T15:38:09Z</time>
      </trkpt>
      <trkpt lat="42.8706456" lon="-5.3639079">
        <ele>1578.2</ele>
        <time>2016-09-06T15:38:12Z</time>
      </trkpt>
      <trkpt lat="42.8706832" lon="-5.364103">
        <ele>1576.1</ele>
        <time>2016-09-06T15:38:15Z</time>
      </trkpt>
      <trkpt lat="42.8707502" lon="-5.3643127">
        <ele>1573.3</ele>
        <time>2016-09-06T15:38:19Z</time>
      </trkpt>
      <trkpt lat="42.8707503" lon="-5.3645112">
        <ele>1572.7</ele>
        <time>2016-09-06T15:38:22Z</time>
      </trkpt>
      <trkpt lat="42.8707521" lon="-5.364708">
        <ele>1572.5</ele>
        <time>2016-09-06T15:38:25Z</time>
      </trkpt>
      <trkpt lat="42.8708137" lon="-5.3649066">
        <ele>1571.0</ele>
        <time>2016-09-06T15:38:28Z</time>
      </trkpt>
      <trkpt lat="42.8709009" lon="-5.3651488">
        <ele>1569.5</ele>
        <time>2016-09-06T15:38:31Z</time>
      </trkpt>
      <trkpt lat="42.8709646" lon="-5.3653465">
        <ele>1568.9</ele>
        <time>2016-09-06T15:38:34Z</time>
      </trkpt>
      <trkpt lat="42.8708286" lon="-5.3653581">
        <ele>1566.0</ele>
        <time>2016-09-06T15:38:37Z</time>
      </trkpt>
      <trkpt lat="42.8707441" lon="-5.3651659">
        <ele>1564.4</ele>
        <time>2016-09-06T15:38:39Z</time>
      </trkpt>
      <trkpt lat="42.8706676" lon="-5.3648906">
        <ele>1563.2</ele>
        <time>2016-09-06T15:38:41Z</time>
      </trkpt>
      <trkpt lat="42.8706435" lon="-5.3645866">
        <ele>1562.4</ele>
        <time>2016-09-06T15:38:43Z</time>
      </trkpt>
      <trkpt lat="42.8706419" lon="-5.3643024">
        <ele>1561.8</ele>
        <time>2016-09-06T15:38:45Z</time>
      </trkpt>
      <trkpt lat="42.8706768" lon="-5.363988">
        <ele>1561.0</ele>
        <time>2016-09-06T15:38:47Z</time>
      </trkpt>
      <trkpt lat="42.8707717" lon="-5.3635984">
        <ele>1559.6</ele>
        <time>2016-09-06T15:38:49Z</time>
      </trkpt>
      <trkpt lat="42.8708178" lon="-5.3634066">
        <ele>1558.5</ele>
        <time>2016-09-06T15:38:50Z</time>
      </trkpt>
      <trkpt lat="42.8708551" lon="-5.3631299">
        <ele>1555.5</ele>
        <time>2016-09-06T15:38:52Z</time>
      </trkpt>
      <trkpt lat="42.8709059" lon="-5.3628903">
        <ele>1552.4</ele>
        <time>2016-09-06T15:38:54Z</time>
      </trkpt>
      <trkpt lat="42.8709831" lon="-5.3625813">
        <ele>1549.8</ele>
        <time>2016-09-06T15:38:56Z</time>
      </trkpt>
      <trkpt lat="42.87104" lon="-5.3622594">
        <ele>1546.7</ele>
        <time>2016-09-06T15:38:58Z</time>
      </trkpt>
      <trkpt lat="42.8710438" lon="-5.3620255">
        <ele>1542.7</ele>
        <time>2016-09-06T15:39:00Z</time>
      </trkpt>
      <trkpt lat="42.8709595" lon="-5.3618449">
        <ele>1539.1</ele>
        <time>2016-09-06T15:39:02Z</time>
      </trkpt>
      <trkpt lat="42.8709068" lon="-5.3618014">
        <ele>1536.5</ele>
        <time>2016-09-06T15:39:03Z</time>
      </trkpt>
      <trkpt lat="42.870862" lon="-5.3617778">
        <ele>1536.5</ele>
        <time>2016-09-06T15:39:04Z</time>
      </trkpt>
      <trkpt lat="42.8708471" lon="-5.361841">
        <ele>1536.5</ele>
        <time>2016-09-06T15:39:06Z</time>
      </trkpt>
      <trkpt lat="42.8708559" lon="-5.3619716">
        <ele>1536.2</ele>
        <time>2016-09-06T15:39:09Z</time>
      </trkpt>
      <trkpt lat="42.8708878" lon="-5.3621">
        <ele>1536.2</ele>
        <time>2016-09-06T15:39:11Z</time>
      </trkpt>
      <trkpt lat="42.8709876" lon="-5.362302">
        <ele>1536.1</ele>
        <time>2016-09-06T15:39:14Z</time>
      </trkpt>
      <trkpt lat="42.8710669" lon="-5.3624648">
        <ele>1535.9</ele>
        <time>2016-09-06T15:39:17Z</time>
      </trkpt>
      <trkpt lat="42.8711194" lon="-5.3626567">
        <ele>1535.9</ele>
        <time>2016-09-06T15:39:21Z</time>
      </trkpt>
      <trkpt lat="42.8710426" lon="-5.3628302">
        <ele>1535.9</ele>
        <time>2016-09-06T15:39:24Z</time>
      </trkpt>
      <trkpt lat="42.870951" lon="-5.3629927">
        <ele>1535.9</ele>
        <time>2016-09-06T15:39:28Z</time>
      </trkpt>
      <trkpt lat="42.8708663" lon="-5.36314">
        <ele>1535.9</ele>
        <time>2016-09-06T15:39:31Z</time>
      </trkpt>
      <trkpt lat="42.8708145" lon="-5.3633752">
        <ele>1535.9</ele>
        <time>2016-09-06T15:39:35Z</time>
      </trkpt>
      <trkpt lat="42.870805" lon="-5.3635849">
        <ele>1536.2</ele>
        <time>2016-09-06T15:39:39Z</time>
      </trkpt>
      <trkpt lat="42.8706482" lon="-5.3636727">
        <ele>1536.4</ele>
        <time>2016-09-06T15:39:43Z</time>
      </trkpt>
      <trkpt lat="42.8705867" lon="-5.3637647">
        <ele>1536.8</ele>
        <time>2016-09-06T15:39:45Z</time>
      </trkpt>
      <trkpt lat="42.8705173" lon="-5.3639426">
        <ele>1538.8</ele>
        <time>2016-09-06T15:39:48Z</time>
      </trkpt>
      <trkpt lat="42.870526" lon="-5.3641708">
        <ele>1540.5</ele>
        <time>2016-09-06T15:39:51Z</time>
      </trkpt>
      <trkpt lat="42.8705975" lon="-5.3644001">
        <ele>1541.7</ele>
        <time>2016-09-06T15:39:54Z</time>
      </trkpt>
      <trkpt lat="42.870653" lon="-5.3645752">
        <ele>1542.9</ele>
        <time>2016-09-06T15:39:56Z</time>
      </trkpt>
      <trkpt lat="42.8707239" lon="-5.364737">
        <ele>1543.9</ele>
        <time>2016-09-06T15:39:58Z</time>
      </trkpt>
      <trkpt lat="42.8707865" lon="-5.3649554">
        <ele>1544.2</ele>
        <time>2016-09-06T15:40:01Z</time>
      </trkpt>
      <trkpt lat="42.8708117" lon="-5.365167">
        <ele>1544.2</ele>
        <time>2016-09-06T15:40:04Z</time>
      </trkpt>
      <trkpt lat="42.8707031" lon="-5.3652977">
        <ele>1544.2</ele>
        <time>2016-09-06T15:40:07Z</time>
      </trkpt>
      <trkpt lat="42.8705379" lon="-5.3651845">
        <ele>1544.2</ele>
        <time>2016-09-06T15:40:10Z</time>
      </trkpt>
      <trkpt lat="42.8704633" lon="-5.3650101">
        <ele>1544.2</ele>
        <time>2016-09-06T15:40:12Z</time>
      </trkpt>
      <trkpt lat="42.8704159" lon="-5.3648087">
        <ele>1544.2</ele>
        <time>2016-09-06T15:40:14Z</time>
      </trkpt>
      <trkpt lat="42.8703954" lon="-5.3645521">
        <ele>1544.2</ele>
        <time>2016-09-06T15:40:16Z</time>
      </trkpt>
      <trkpt lat="42.870386" lon="-5.3642696">
        <ele>1544.2</ele>
        <time>2016-09-06T15:40:18Z</time>
      </trkpt>
      <trkpt lat="42.8704048" lon="-5.3639812">
        <ele>1544.2</ele>
        <time>2016-09-06T15:40:20Z</time>
      </trkpt>
      <trkpt lat="42.8704424" lon="-5.3636663">
        <ele>1544.2</ele>
        <time>2016-09-06T15:40:22Z</time>
      </trkpt>
      <trkpt lat="42.8705131" lon="-5.3633125">
        <ele>1544.2</ele>
        <time>2016-09-06T15:40:24Z</time>
      </trkpt>
      <trkpt lat="42.8705523" lon="-5.3631359">
        <ele>1544.2</ele>
        <time>2016-09-06T15:40:25Z</time>
      </trkpt>
      <trkpt lat="42.8705951" lon="-5.36296">
        <ele>1544.2</ele>
        <time>2016-09-06T15:40:26Z</time>
      </trkpt>
      <trkpt lat="42.8706282" lon="-5.362779">
        <ele>1544.2</ele>
        <time>2016-09-06T15:40:27Z</time>
      </trkpt>
      <trkpt lat="42.8706799" lon="-5.3624321">
        <ele>1544.0</ele>
        <time>2016-09-06T15:40:29Z</time>
      </trkpt>
      <trkpt lat="42.8707195" lon="-5.3622514">
        <ele>1543.8</ele>
        <time>2016-09-06T15:40:30Z</time>
      </trkpt>
      <trkpt lat="42.8707621" lon="-5.3619203">
        <ele>1541.6</ele>
        <time>2016-09-06T15:40:32Z</time>
      </trkpt>
      <trkpt lat="42.8708069" lon="-5.3616093">
        <ele>1537.9</ele>
        <time>2016-09-06T15:40:34Z</time>
      </trkpt>
      <trkpt lat="42.8708564" lon="-5.361306">
        <ele>1535.3</ele>
        <time>2016-09-06T15:40:36Z</time>
      </trkpt>
      <trkpt lat="42.8708596" lon="-5.3610258">
        <ele>1534.4</ele>
        <time>2016-09-06T15:40:38Z</time>
      </trkpt>
      <trkpt lat="42.870805" lon="-5.3608065">
        <ele>1534.1</ele>
        <time>2016-09-06T15:40:40Z</time>
      </trkpt>
      <trkpt lat="42.8706321" lon="-5.3607617">
        <ele>1534.1</ele>
        <time>2016-09-06T15:40:43Z</time>
      </trkpt>
      <trkpt lat="42.8705384" lon="-5.3608553">
        <ele>1534.1</ele>
        <time>2016-09-06T15:40:45Z</time>
      </trkpt>
      <trkpt lat="42.8705004" lon="-5.3610584">
        <ele>1534.1</ele>
        <time>2016-09-06T15:40:48Z</time>
      </trkpt>
      <trkpt lat="42.8704941" lon="-5.3613293">
        <ele>1534.1</ele>
        <time>2016-09-06T15:40:51Z</time>
      </trkpt>
      <trkpt lat="42.8705388" lon="-5.3615036">
        <ele>1534.1</ele>
        <time>2016-09-06T15:40:55Z</time>
      </trkpt>
      <trkpt lat="42.8705232" lon="-5.3616958">
        <ele>1534.1</ele>
        <time>2016-09-06T15:40:59Z</time>
      </trkpt>
      <trkpt lat="42.8703434" lon="-5.3615361">
        <ele>1534.1</ele>
        <time>2016-09-06T15:41:04Z</time>
      </trkpt>
      <trkpt lat="42.8702747" lon="-5.3612615">
        <ele>1534.1</ele>
        <time>2016-09-06T15:41:06Z</time>
      </trkpt>
      <trkpt lat="42.8701992" lon="-5.3610131">
        <ele>1536.2</ele>
        <time>2016-09-06T15:41:08Z</time>
      </trkpt>
      <trkpt lat="42.8701183" lon="-5.360791">
        <ele>1537.0</ele>
        <time>2016-09-06T15:41:10Z</time>
      </trkpt>
      <trkpt lat="42.8700349" lon="-5.3605429">
        <ele>1537.9</ele>
        <time>2016-09-06T15:41:12Z</time>
      </trkpt>
      <trkpt lat="42.8699207" lon="-5.3603884">
        <ele>1538.5</ele>
        <time>2016-09-06T15:41:14Z</time>
      </trkpt>
      <trkpt lat="42.8698108" lon="-5.3603952">
        <ele>1539.0</ele>
        <time>2016-09-06T15:41:16Z</time>
      </trkpt>
      <trkpt lat="42.8698215" lon="-5.3605558">
        <ele>1541.6</ele>
        <time>2016-09-06T15:41:20Z</time>
      </trkpt>
      <trkpt lat="42.8699445" lon="-5.360723">
        <ele>1545.5</ele>
        <time>2016-09-06T15:41:23Z</time>
      </trkpt>
      <trkpt lat="42.8697849" lon="-5.3607755">
        <ele>1560.4</ele>
        <time>2016-09-06T15:41:28Z</time>
      </trkpt>
      <trkpt lat="42.8697036" lon="-5.3605017">
        <ele>1561.8</ele>
        <time>2016-09-06T15:41:30Z</time>
      </trkpt>
      <trkpt lat="42.8697548" lon="-5.3601636">
        <ele>1562.2</ele>
        <time>2016-09-06T15:41:32Z</time>
      </trkpt>
      <trkpt lat="42.8699251" lon="-5.3599004">
        <ele>1562.7</ele>
        <time>2016-09-06T15:41:34Z</time>
      </trkpt>
      <trkpt lat="42.8701758" lon="-5.3598786">
        <ele>1563.3</ele>
        <time>2016-09-06T15:41:36Z</time>
      </trkpt>
      <trkpt lat="42.8702478" lon="-5.3600296">
        <ele>1565.7</ele>
        <time>2016-09-06T15:41:38Z</time>
      </trkpt>
      <trkpt lat="42.8702286" lon="-5.3601616">
        <ele>1572.9</ele>
        <time>2016-09-06T15:41:41Z</time>
      </trkpt>
      <trkpt lat="42.8702893" lon="-5.3604047">
        <ele>1573.8</ele>
        <time>2016-09-06T15:41:45Z</time>
      </trkpt>
      <trkpt lat="42.8703628" lon="-5.3605839">
        <ele>1579.1</ele>
        <time>2016-09-06T15:41:48Z</time>
      </trkpt>
      <trkpt lat="42.8704467" lon="-5.3607515">
        <ele>1586.1</ele>
        <time>2016-09-06T15:41:51Z</time>
      </trkpt>
      <trkpt lat="42.8703037" lon="-5.3608464">
        <ele>1588.3</ele>
        <time>2016-09-06T15:41:55Z</time>
      </trkpt>
      <trkpt lat="42.8701882" lon="-5.3606625">
        <ele>1588.7</ele>
        <time>2016-09-06T15:41:57Z</time>
      </trkpt>
      <trkpt lat="42.8701448" lon="-5.3603687">
        <ele>1589.2</ele>
        <time>2016-09-06T15:41:59Z</time>
      </trkpt>
      <trkpt lat="42.8701769" lon="-5.3600455">
        <ele>1589.6</ele>
        <time>2016-09-06T15:42:01Z</time>
      </trkpt>
      <trkpt lat="42.8702342" lon="-5.359723">
        <ele>1590.2</ele>
        <time>2016-09-06T15:42:03Z</time>
      </trkpt>
      <trkpt lat="42.870248" lon="-5.3594105">
        <ele>1591.3</ele>
        <time>2016-09-06T15:42:05Z</time>
      </trkpt>
      <trkpt lat="42.8701643" lon="-5.3591764">
        <ele>1592.2</ele>
        <time>2016-09-06T15:42:07Z</time>
      </trkpt>
      <trkpt lat="42.8700393" lon="-5.3590732">
        <ele>1596.9</ele>
        <time>2016-09-06T15:42:10Z</time>
      </trkpt>
      <trkpt lat="42.8700165" lon="-5.3592435">
        <ele>1598.3</ele>
        <time>2016-09-06T15:42:14Z</time>
      </trkpt>
      <trkpt lat="42.8700782" lon="-5.3594368">
        <ele>1598.7</ele>
        <time>2016-09-06T15:42:17Z</time>
      </trkpt>
      <trkpt lat="42.8701473" lon="-5.3596693">
        <ele>1598.8</ele>
        <time>2016-09-06T15:42:20Z</time>
      </trkpt>
      <trkpt lat="42.8702222" lon="-5.3598773">
        <ele>1599.1</ele>
        <time>2016-09-06T15:42:24Z</time>
      </trkpt>
      <trkpt lat="42.8702179" lon="-5.3600746">
        <ele>1599.3</ele>
        <time>2016-09-06T15:42:28Z</time>
      </trkpt>
      <trkpt lat="42.8701925" lon="-5.360322">
        <ele>1599.5</ele>
        <time>2016-09-06T15:42:32Z</time>
      </trkpt>
      <trkpt lat="42.8701866" lon="-5.3604589">
        <ele>1599.8</ele>
        <time>2016-09-06T15:42:35Z</time>
      </trkpt>
      <trkpt lat="42.8701898" lon="-5.3606675">
        <ele>1599.9</ele>
        <time>2016-09-06T15:42:39Z</time>
      </trkpt>
      <trkpt lat="42.8702406" lon="-5.3608522">
        <ele>1600.3</ele>
        <time>2016-09-06T15:42:42Z</time>
      </trkpt>
      <trkpt lat="42.8702998" lon="-5.3610485">
        <ele>1600.5</ele>
        <time>2016-09-06T15:42:46Z</time>
      </trkpt>
      <trkpt lat="42.8701447" lon="-5.3610248">
        <ele>1600.8</ele>
        <time>2016-09-06T15:42:50Z</time>
      </trkpt>
      <trkpt lat="42.8700489" lon="-5.360848">
        <ele>1601.1</ele>
        <time>2016-09-06T15:42:52Z</time>
      </trkpt>
      <trkpt lat="42.8699694" lon="-5.3605993">
        <ele>1601.3</ele>
        <time>2016-09-06T15:42:54Z</time>
      </trkpt>
      <trkpt lat="42.8699947" lon="-5.3602743">
        <ele>1601.9</ele>
        <time>2016-09-06T15:42:56Z</time>
      </trkpt>
      <trkpt lat="42.8701148" lon="-5.3600226">
        <ele>1602.1</ele>
        <time>2016-09-06T15:42:58Z</time>
      </trkpt>
      <trkpt lat="42.8702592" lon="-5.3597994">
        <ele>1602.4</ele>
        <time>2016-09-06T15:43:00Z</time>
      </trkpt>
      <trkpt lat="42.8704012" lon="-5.3595279">
        <ele>1602.8</ele>
        <time>2016-09-06T15:43:02Z</time>
      </trkpt>
      <trkpt lat="42.8705465" lon="-5.3592425">
        <ele>1604.3</ele>
        <time>2016-09-06T15:43:04Z</time>
      </trkpt>
      <trkpt lat="42.8706724" lon="-5.358969">
        <ele>1606.4</ele>
        <time>2016-09-06T15:43:06Z</time>
      </trkpt>
      <trkpt lat="42.8707648" lon="-5.3586984">
        <ele>1607.4</ele>
        <time>2016-09-06T15:43:08Z</time>
      </trkpt>
      <trkpt lat="42.8708002" lon="-5.3584113">
        <ele>1608.3</ele>
        <time>2016-09-06T15:43:10Z</time>
      </trkpt>
      <trkpt lat="42.8707287" lon="-5.3581864">
        <ele>1611.5</ele>
        <time>2016-09-06T15:43:12Z</time>
      </trkpt>
      <trkpt lat="42.8705908" lon="-5.3580892">
        <ele>1614.2</ele>
        <time>2016-09-06T15:43:16Z</time>
      </trkpt>
      <trkpt lat="42.8705711" lon="-5.3582188">
        <ele>1614.5</ele>
        <time>2016-09-06T15:43:19Z</time>
      </trkpt>
      <trkpt lat="42.8706057" lon="-5.3584551">
        <ele>1615.2</ele>
        <time>2016-09-06T15:43:22Z</time>
      </trkpt>
      <trkpt lat="42.870671" lon="-5.3586707">
        <ele>1617.2</ele>
        <time>2016-09-06T15:43:25Z</time>
      </trkpt>
      <trkpt lat="42.8707093" lon="-5.3588587">
        <ele>1622.5</ele>
        <time>2016-09-06T15:43:27Z</time>
      </trkpt>
      <trkpt lat="42.8707373" lon="-5.3590433">
        <ele>1628.5</ele>
        <time>2016-09-06T15:43:29Z</time>
      </trkpt>
      <trkpt lat="42.8708169" lon="-5.3592711">
        <ele>1634.5</ele>
        <time>2016-09-06T15:43:32Z</time>
      </trkpt>
      <trkpt lat="42.8709331" lon="-5.3594334">
        <ele>1641.1</ele>
        <time>2016-09-06T15:43:35Z</time>
      </trkpt>
      <trkpt lat="42.8708759" lon="-5.3596367">
        <ele>1648.7</ele>
        <time>2016-09-06T15:43:39Z</time>
      </trkpt>
      <trkpt lat="42.8707008" lon="-5.3595895">
        <ele>1651.0</ele>
        <time>2016-09-06T15:43:42Z</time>
      </trkpt>
      <trkpt lat="42.8705912" lon="-5.3594116">
        <ele>1654.3</ele>
        <time>2016-09-06T15:43:44Z</time>
      </trkpt>
      <trkpt lat="42.8705435" lon="-5.359107">
        <ele>1656.8</ele>
        <time>2016-09-06T15:43:46Z</time>
      </trkpt>
      <trkpt lat="42.8705683" lon="-5.358817">
        <ele>1658.2</ele>
        <time>2016-09-06T15:43:48Z</time>
      </trkpt>
      <trkpt lat="42.8706277" lon="-5.3585325">
        <ele>1658.7</ele>
        <time>2016-09-06T15:43:50Z</time>
      </trkpt>
      <trkpt lat="42.8706962" lon="-5.3582251">
        <ele>1660.1</ele>
        <time>2016-09-06T15:43:52Z</time>
      </trkpt>
      <trkpt lat="42.8707965" lon="-5.3579411">
        <ele>1662.8</ele>
        <time>2016-09-06T15:43:54Z</time>
      </trkpt>
      <trkpt lat="42.8709018" lon="-5.3576767">
        <ele>1663.9</ele>
        <time>2016-09-06T15:43:56Z</time>
      </trkpt>
      <trkpt lat="42.8710043" lon="-5.3573927">
        <ele>1665.2</ele>
        <time>2016-09-06T15:43:58Z</time>
      </trkpt>
      <trkpt lat="42.8711239" lon="-5.3571013">
        <ele>1668.5</ele>
        <time>2016-09-06T15:44:00Z</time>
      </trkpt>
      <trkpt lat="42.8712442" lon="-5.3568054">
        <ele>1673.4</ele>
        <time>2016-09-06T15:44:02Z</time>
      </trkpt>
      <trkpt lat="42.8713182" lon="-5.3565036">
        <ele>1678.9</ele>
        <time>2016-09-06T15:44:04Z</time>
      </trkpt>
      <trkpt lat="42.8713211" lon="-5.3562315">
        <ele>1682.4</ele>
        <time>2016-09-06T15:44:06Z</time>
      </trkpt>
      <trkpt lat="42.8712553" lon="-5.3560374">
        <ele>1683.5</ele>
        <time>2016-09-06T15:44:08Z</time>
      </trkpt>
      <trkpt lat="42.8710765" lon="-5.3559701">
        <ele>1684.6</ele>
        <time>2016-09-06T15:44:11Z</time>
      </trkpt>
      <trkpt lat="42.8710033" lon="-5.356055">
        <ele>1684.8</ele>
        <time>2016-09-06T15:44:13Z</time>
      </trkpt>
      <trkpt lat="42.8709186" lon="-5.3562505">
        <ele>1685.3</ele>
        <time>2016-09-06T15:44:16Z</time>
      </trkpt>
      <trkpt lat="42.8708981" lon="-5.3565255">
        <ele>1689.5</ele>
        <time>2016-09-06T15:44:19Z</time>
      </trkpt>
      <trkpt lat="42.8709144" lon="-5.3567516">
        <ele>1692.3</ele>
        <time>2016-09-06T15:44:22Z</time>
      </trkpt>
      <trkpt lat="42.8709166" lon="-5.3570177">
        <ele>1696.7</ele>
        <time>2016-09-06T15:44:25Z</time>
      </trkpt>
      <trkpt lat="42.8709132" lon="-5.3572175">
        <ele>1699.2</ele>
        <time>2016-09-06T15:44:27Z</time>
      </trkpt>
      <trkpt lat="42.8708788" lon="-5.3574372">
        <ele>1702.8</ele>
        <time>2016-09-06T15:44:30Z</time>
      </trkpt>
      <trkpt lat="42.8708642" lon="-5.3577116">
        <ele>1704.5</ele>
        <time>2016-09-06T15:44:33Z</time>
      </trkpt>
      <trkpt lat="42.8708276" lon="-5.3579106">
        <ele>1705.3</ele>
        <time>2016-09-06T15:44:36Z</time>
      </trkpt>
      <trkpt lat="42.870785" lon="-5.3580917">
        <ele>1706.0</ele>
        <time>2016-09-06T15:44:39Z</time>
      </trkpt>
      <trkpt lat="42.8707917" lon="-5.3583493">
        <ele>1706.2</ele>
        <time>2016-09-06T15:44:42Z</time>
      </trkpt>
      <trkpt lat="42.8708291" lon="-5.3585342">
        <ele>1706.3</ele>
        <time>2016-09-06T15:44:44Z</time>
      </trkpt>
      <trkpt lat="42.8708755" lon="-5.358711">
        <ele>1706.5</ele>
        <time>2016-09-06T15:44:46Z</time>
      </trkpt>
      <trkpt lat="42.8709455" lon="-5.3589548">
        <ele>1706.7</ele>
        <time>2016-09-06T15:44:49Z</time>
      </trkpt>
      <trkpt lat="42.8710047" lon="-5.359133">
        <ele>1706.9</ele>
        <time>2016-09-06T15:44:51Z</time>
      </trkpt>
      <trkpt lat="42.8710807" lon="-5.3593265">
        <ele>1707.1</ele>
        <time>2016-09-06T15:44:53Z</time>
      </trkpt>
      <trkpt lat="42.8711507" lon="-5.3595092">
        <ele>1707.7</ele>
        <time>2016-09-06T15:44:55Z</time>
      </trkpt>
      <trkpt lat="42.8711445" lon="-5.3597484">
        <ele>1713.0</ele>
        <time>2016-09-06T15:44:58Z</time>
      </trkpt>
      <trkpt lat="42.8709929" lon="-5.3598654">
        <ele>1717.3</ele>
        <time>2016-09-06T15:45:01Z</time>
      </trkpt>
      <trkpt lat="42.8708301" lon="-5.3597293">
        <ele>1718.3</ele>
        <time>2016-09-06T15:45:04Z</time>
      </trkpt>
      <trkpt lat="42.8707922" lon="-5.3594995">
        <ele>1718.4</ele>
        <time>2016-09-06T15:45:06Z</time>
      </trkpt>
      <trkpt lat="42.8708318" lon="-5.3592169">
        <ele>1718.4</ele>
        <time>2016-09-06T15:45:08Z</time>
      </trkpt>
      <trkpt lat="42.8709179" lon="-5.3589444">
        <ele>1718.4</ele>
        <time>2016-09-06T15:45:10Z</time>
      </trkpt>
      <trkpt lat="42.8710328" lon="-5.3586794">
        <ele>1718.5</ele>
        <time>2016-09-06T15:45:12Z</time>
      </trkpt>
      <trkpt lat="42.8711991" lon="-5.3584376">
        <ele>1718.8</ele>
        <time>2016-09-06T15:45:14Z</time>
      </trkpt>
      <trkpt lat="42.8713798" lon="-5.3581853">
        <ele>1718.9</ele>
        <time>2016-09-06T15:45:16Z</time>
      </trkpt>
      <trkpt lat="42.8714675" lon="-5.3578747">
        <ele>1718.9</ele>
        <time>2016-09-06T15:45:18Z</time>
      </trkpt>
      <trkpt lat="42.8714602" lon="-5.3575789">
        <ele>1718.9</ele>
        <time>2016-09-06T15:45:20Z</time>
      </trkpt>
      <trkpt lat="42.8714433" lon="-5.3573086">
        <ele>1719.0</ele>
        <time>2016-09-06T15:45:22Z</time>
      </trkpt>
      <trkpt lat="42.8714355" lon="-5.3570379">
        <ele>1719.2</ele>
        <time>2016-09-06T15:45:24Z</time>
      </trkpt>
      <trkpt lat="42.8714844" lon="-5.3567557">
        <ele>1719.4</ele>
        <time>2016-09-06T15:45:26Z</time>
      </trkpt>
      <trkpt lat="42.8715809" lon="-5.3564801">
        <ele>1720.0</ele>
        <time>2016-09-06T15:45:28Z</time>
      </trkpt>
      <trkpt lat="42.8716597" lon="-5.3562097">
        <ele>1720.6</ele>
        <time>2016-09-06T15:45:30Z</time>
      </trkpt>
      <trkpt lat="42.8716278" lon="-5.3560093">
        <ele>1720.9</ele>
        <time>2016-09-06T15:45:32Z</time>
      </trkpt>
      <trkpt lat="42.8714532" lon="-5.3559475">
        <ele>1721.3</ele>
        <time>2016-09-06T15:45:35Z</time>
      </trkpt>
      <trkpt lat="42.8713784" lon="-5.3561059">
        <ele>1721.8</ele>
        <time>2016-09-06T15:45:38Z</time>
      </trkpt>
      <trkpt lat="42.8714822" lon="-5.3563226">
        <ele>1722.2</ele>
        <time>2016-09-06T15:45:39Z</time>
      </trkpt>
      <trkpt lat="42.8716741" lon="-5.356415">
        <ele>1722.7</ele>
        <time>2016-09-06T15:45:41Z</time>
      </trkpt>
      <trkpt lat="42.8718871" lon="-5.3563322">
        <ele>1723.8</ele>
        <time>2016-09-06T15:45:43Z</time>
      </trkpt>
      <trkpt lat="42.8720111" lon="-5.356096">
        <ele>1723.8</ele>
        <time>2016-09-06T15:45:45Z</time>
      </trkpt>
      <trkpt lat="42.87198" lon="-5.3558547">
        <ele>1724.0</ele>
        <time>2016-09-06T15:45:47Z</time>
      </trkpt>
      <trkpt lat="42.8718451" lon="-5.3558024">
        <ele>1724.1</ele>
        <time>2016-09-06T15:45:49Z</time>
      </trkpt>
      <trkpt lat="42.8717625" lon="-5.3559072">
        <ele>1724.1</ele>
        <time>2016-09-06T15:45:51Z</time>
      </trkpt>
      <trkpt lat="42.871796" lon="-5.3560862">
        <ele>1724.3</ele>
        <time>2016-09-06T15:45:53Z</time>
      </trkpt>
      <trkpt lat="42.8719256" lon="-5.3562568">
        <ele>1725.0</ele>
        <time>2016-09-06T15:45:55Z</time>
      </trkpt>
      <trkpt lat="42.8721138" lon="-5.3563216">
        <ele>1727.8</ele>
        <time>2016-09-06T15:45:57Z</time>
      </trkpt>
      <trkpt lat="42.8723172" lon="-5.3562852">
        <ele>1730.8</ele>
        <time>2016-09-06T15:45:59Z</time>
      </trkpt>
      <trkpt lat="42.8724912" lon="-5.3561065">
        <ele>1735.3</ele>
        <time>2016-09-06T15:46:01Z</time>
      </trkpt>
      <trkpt lat="42.8725784" lon="-5.355834">
        <ele>1738.7</ele>
        <time>2016-09-06T15:46:03Z</time>
      </trkpt>
      <trkpt lat="42.8725267" lon="-5.3556284">
        <ele>1743.7</ele>
        <time>2016-09-06T15:46:05Z</time>
      </trkpt>
      <trkpt lat="42.8723947" lon="-5.3555088">
        <ele>1746.7</ele>
        <time>2016-09-06T15:46:07Z</time>
      </trkpt>
      <trkpt lat="42.872297" lon="-5.3555957">
        <ele>1749.1</ele>
        <time>2016-09-06T15:46:09Z</time>
      </trkpt>
      <trkpt lat="42.8723292" lon="-5.3558325">
        <ele>1753.5</ele>
        <time>2016-09-06T15:46:12Z</time>
      </trkpt>
      <trkpt lat="42.8724535" lon="-5.3559389">
        <ele>1754.7</ele>
        <time>2016-09-06T15:46:14Z</time>
      </trkpt>
      <trkpt lat="42.8726677" lon="-5.3559417">
        <ele>1755.7</ele>
        <time>2016-09-06T15:46:16Z</time>
      </trkpt>
      <trkpt lat="42.872777" lon="-5.3558197">
        <ele>1756.6</ele>
        <time>2016-09-06T15:46:17Z</time>
      </trkpt>
      <trkpt lat="42.8728938" lon="-5.3555293">
        <ele>1759.5</ele>
        <time>2016-09-06T15:46:19Z</time>
      </trkpt>
      <trkpt lat="42.8729928" lon="-5.3552916">
        <ele>1762.6</ele>
        <time>2016-09-06T15:46:21Z</time>
      </trkpt>
      <trkpt lat="42.8731874" lon="-5.3550809">
        <ele>1765.1</ele>
        <time>2016-09-06T15:46:23Z</time>
      </trkpt>
      <trkpt lat="42.873451" lon="-5.3549958">
        <ele>1767.4</ele>
        <time>2016-09-06T15:46:25Z</time>
      </trkpt>
      <trkpt lat="42.8736167" lon="-5.3551476">
        <ele>1770.2</ele>
        <time>2016-09-06T15:46:27Z</time>
      </trkpt>
      <trkpt lat="42.8736251" lon="-5.3553706">
        <ele>1772.5</ele>
        <time>2016-09-06T15:46:29Z</time>
      </trkpt>
      <trkpt lat="42.8735273" lon="-5.3555617">
        <ele>1774.8</ele>
        <time>2016-09-06T15:46:32Z</time>
      </trkpt>
      <trkpt lat="42.8733853" lon="-5.3555258">
        <ele>1776.6</ele>
        <time>2016-09-06T15:46:34Z</time>
      </trkpt>
      <trkpt lat="42.8733327" lon="-5.3553102">
        <ele>1777.0</ele>
        <time>2016-09-06T15:46:35Z</time>
      </trkpt>
      <trkpt lat="42.873401" lon="-5.354949">
        <ele>1778.8</ele>
        <time>2016-09-06T15:46:37Z</time>
      </trkpt>
      <trkpt lat="42.8735052" lon="-5.3548156">
        <ele>1780.0</ele>
        <time>2016-09-06T15:46:38Z</time>
      </trkpt>
      <trkpt lat="42.87373" lon="-5.3546716">
        <ele>1780.7</ele>
        <time>2016-09-06T15:46:40Z</time>
      </trkpt>
      <trkpt lat="42.8739429" lon="-5.3546692">
        <ele>1785.2</ele>
        <time>2016-09-06T15:46:42Z</time>
      </trkpt>
      <trkpt lat="42.8741204" lon="-5.3548502">
        <ele>1788.0</ele>
        <time>2016-09-06T15:46:44Z</time>
      </trkpt>
      <trkpt lat="42.8742244" lon="-5.3550666">
        <ele>1789.5</ele>
        <time>2016-09-06T15:46:46Z</time>
      </trkpt>
      <trkpt lat="42.8742413" lon="-5.3552727">
        <ele>1790.3</ele>
        <time>2016-09-06T15:46:48Z</time>
      </trkpt>
      <trkpt lat="42.8741137" lon="-5.3554155">
        <ele>1792.5</ele>
        <time>2016-09-06T15:46:51Z</time>
      </trkpt>
      <trkpt lat="42.8739594" lon="-5.3552255">
        <ele>1794.4</ele>
        <time>2016-09-06T15:46:54Z</time>
      </trkpt>
      <trkpt lat="42.8739383" lon="-5.3549728">
        <ele>1798.4</ele>
        <time>2016-09-06T15:46:56Z</time>
      </trkpt>
      <trkpt lat="42.8739918" lon="-5.35479">
        <ele>1800.1</ele>
        <time>2016-09-06T15:46:57Z</time>
      </trkpt>
      <trkpt lat="42.8740634" lon="-5.3546317">
        <ele>1801.0</ele>
        <time>2016-09-06T15:46:58Z</time>
      </trkpt>
      <trkpt lat="42.8742773" lon="-5.3544218">
        <ele>1801.8</ele>
        <time>2016-09-06T15:47:00Z</time>
      </trkpt>
      <trkpt lat="42.8745299" lon="-5.354383">
        <ele>1802.8</ele>
        <time>2016-09-06T15:47:02Z</time>
      </trkpt>
      <trkpt lat="42.874736" lon="-5.3545084">
        <ele>1803.4</ele>
        <time>2016-09-06T15:47:04Z</time>
      </trkpt>
      <trkpt lat="42.8748306" lon="-5.354736">
        <ele>1805.1</ele>
        <time>2016-09-06T15:47:06Z</time>
      </trkpt>
      <trkpt lat="42.8747205" lon="-5.3549118">
        <ele>1806.7</ele>
        <time>2016-09-06T15:47:08Z</time>
      </trkpt>
      <trkpt lat="42.8745849" lon="-5.3548755">
        <ele>1812.5</ele>
        <time>2016-09-06T15:47:11Z</time>
      </trkpt>
      <trkpt lat="42.8745304" lon="-5.3546975">
        <ele>1816.0</ele>
        <time>2016-09-06T15:47:13Z</time>
      </trkpt>
      <trkpt lat="42.8745589" lon="-5.3543751">
        <ele>1818.5</ele>
        <time>2016-09-06T15:47:15Z</time>
      </trkpt>
      <trkpt lat="42.8746322" lon="-5.3542176">
        <ele>1820.2</ele>
        <time>2016-09-06T15:47:16Z</time>
      </trkpt>
      <trkpt lat="42.8747418" lon="-5.3541019">
        <ele>1822.7</ele>
        <time>2016-09-06T15:47:17Z</time>
      </trkpt>
      <trkpt lat="42.875012" lon="-5.3539901">
        <ele>1825.2</ele>
        <time>2016-09-06T15:47:19Z</time>
      </trkpt>
      <trkpt lat="42.8752427" lon="-5.3539885">
        <ele>1827.1</ele>
        <time>2016-09-06T15:47:21Z</time>
      </trkpt>
      <trkpt lat="42.875414" lon="-5.354091">
        <ele>1828.8</ele>
        <time>2016-09-06T15:47:23Z</time>
      </trkpt>
      <trkpt lat="42.8755323" lon="-5.3542447">
        <ele>1829.7</ele>
        <time>2016-09-06T15:47:25Z</time>
      </trkpt>
      <trkpt lat="42.8756039" lon="-5.354403">
        <ele>1830.2</ele>
        <time>2016-09-06T15:47:27Z</time>
      </trkpt>
      <trkpt lat="42.8755881" lon="-5.3546084">
        <ele>1831.6</ele>
        <time>2016-09-06T15:47:30Z</time>
      </trkpt>
      <trkpt lat="42.8754328" lon="-5.3545793">
        <ele>1835.1</ele>
        <time>2016-09-06T15:47:33Z</time>
      </trkpt>
      <trkpt lat="42.8753433" lon="-5.3543709">
        <ele>1836.6</ele>
        <time>2016-09-06T15:47:35Z</time>
      </trkpt>
      <trkpt lat="42.8753848" lon="-5.3540849">
        <ele>1838.1</ele>
        <time>2016-09-06T15:47:37Z</time>
      </trkpt>
      <trkpt lat="42.875544" lon="-5.3538066">
        <ele>1839.0</ele>
        <time>2016-09-06T15:47:39Z</time>
      </trkpt>
      <trkpt lat="42.8756626" lon="-5.3537123">
        <ele>1842.5</ele>
        <time>2016-09-06T15:47:40Z</time>
      </trkpt>
      <trkpt lat="42.8757947" lon="-5.3536563">
        <ele>1842.5</ele>
        <time>2016-09-06T15:47:41Z</time>
      </trkpt>
      <trkpt lat="42.8761279" lon="-5.3537636">
        <ele>1844.9</ele>
        <time>2016-09-06T15:47:44Z</time>
      </trkpt>
      <trkpt lat="42.8762067" lon="-5.3539624">
        <ele>1845.7</ele>
        <time>2016-09-06T15:47:46Z</time>
      </trkpt>
      <trkpt lat="42.8761679" lon="-5.3541939">
        <ele>1847.4</ele>
        <time>2016-09-06T15:47:49Z</time>
      </trkpt>
      <trkpt lat="42.8761155" lon="-5.354436">
        <ele>1851.8</ele>
        <time>2016-09-06T15:47:52Z</time>
      </trkpt>
      <trkpt lat="42.8759573" lon="-5.3544949">
        <ele>1858.8</ele>
        <time>2016-09-06T15:47:56Z</time>
      </trkpt>
      <trkpt lat="42.8758885" lon="-5.3542426">
        <ele>1859.8</ele>
        <time>2016-09-06T15:47:58Z</time>
      </trkpt>
      <trkpt lat="42.8759542" lon="-5.3539547">
        <ele>1860.2</ele>
        <time>2016-09-06T15:48:00Z</time>
      </trkpt>
      <trkpt lat="42.8761936" lon="-5.3537999">
        <ele>1860.6</ele>
        <time>2016-09-06T15:48:02Z</time>
      </trkpt>
      <trkpt lat="42.8765741" lon="-5.3539183">
        <ele>1861.5</ele>
        <time>2016-09-06T15:48:05Z</time>
      </trkpt>
      <trkpt lat="42.8766999" lon="-5.3541263">
        <ele>1862.2</ele>
        <time>2016-09-06T15:48:07Z</time>
      </trkpt>
      <trkpt lat="42.8768303" lon="-5.3542889">
        <ele>1864.0</ele>
        <time>2016-09-06T15:48:09Z</time>
      </trkpt>
      <trkpt lat="42.8769251" lon="-5.3544317">
        <ele>1865.3</ele>
        <time>2016-09-06T15:48:11Z</time>
      </trkpt>
      <trkpt lat="42.8768194" lon="-5.3545825">
        <ele>1869.7</ele>
        <time>2016-09-06T15:48:16Z</time>
      </trkpt>
      <trkpt lat="42.8766834" lon="-5.3543585">
        <ele>1871.3</ele>
        <time>2016-09-06T15:48:19Z</time>
      </trkpt>
      <trkpt lat="42.8767149" lon="-5.3540276">
        <ele>1872.8</ele>
        <time>2016-09-06T15:48:21Z</time>
      </trkpt>
      <trkpt lat="42.8769026" lon="-5.353781">
        <ele>1873.9</ele>
        <time>2016-09-06T15:48:23Z</time>
      </trkpt>
      <trkpt lat="42.8771435" lon="-5.3536806">
        <ele>1877.2</ele>
        <time>2016-09-06T15:48:25Z</time>
      </trkpt>
      <trkpt lat="42.8774428" lon="-5.3537889">
        <ele>1881.7</ele>
        <time>2016-09-06T15:48:28Z</time>
      </trkpt>
      <trkpt lat="42.8775417" lon="-5.353994">
        <ele>1883.2</ele>
        <time>2016-09-06T15:48:30Z</time>
      </trkpt>
      <trkpt lat="42.8775124" lon="-5.3542442">
        <ele>1885.3</ele>
        <time>2016-09-06T15:48:33Z</time>
      </trkpt>
      <trkpt lat="42.8774885" lon="-5.3544541">
        <ele>1887.1</ele>
        <time>2016-09-06T15:48:36Z</time>
      </trkpt>
      <trkpt lat="42.8773883" lon="-5.3546752">
        <ele>1890.7</ele>
        <time>2016-09-06T15:48:39Z</time>
      </trkpt>
      <trkpt lat="42.8771928" lon="-5.3546732">
        <ele>1892.5</ele>
        <time>2016-09-06T15:48:42Z</time>
      </trkpt>
      <trkpt lat="42.8770979" lon="-5.354498">
        <ele>1893.6</ele>
        <time>2016-09-06T15:48:44Z</time>
      </trkpt>
      <trkpt lat="42.8771142" lon="-5.3542565">
        <ele>1894.2</ele>
        <time>2016-09-06T15:48:46Z</time>
      </trkpt>
      <trkpt lat="42.8772397" lon="-5.3540307">
        <ele>1894.6</ele>
        <time>2016-09-06T15:48:48Z</time>
      </trkpt>
      <trkpt lat="42.8774314" lon="-5.3538745">
        <ele>1895.3</ele>
        <time>2016-09-06T15:48:50Z</time>
      </trkpt>
      <trkpt lat="42.8777365" lon="-5.3539729">
        <ele>1896.5</ele>
        <time>2016-09-06T15:48:53Z</time>
      </trkpt>
      <trkpt lat="42.8778555" lon="-5.3542183">
        <ele>1897.2</ele>
        <time>2016-09-06T15:48:55Z</time>
      </trkpt>
      <trkpt lat="42.8778677" lon="-5.354445">
        <ele>1898.6</ele>
        <time>2016-09-06T15:48:57Z</time>
      </trkpt>
      <trkpt lat="42.8779226" lon="-5.3547175">
        <ele>1899.6</ele>
        <time>2016-09-06T15:49:00Z</time>
      </trkpt>
      <trkpt lat="42.878074" lon="-5.3548893">
        <ele>1900.4</ele>
        <time>2016-09-06T15:49:02Z</time>
      </trkpt>
      <trkpt lat="42.8783157" lon="-5.3548962">
        <ele>1901.4</ele>
        <time>2016-09-06T15:49:04Z</time>
      </trkpt>
      <trkpt lat="42.8785161" lon="-5.3547167">
        <ele>1902.0</ele>
        <time>2016-09-06T15:49:06Z</time>
      </trkpt>
      <trkpt lat="42.8785963" lon="-5.3544668">
        <ele>1902.6</ele>
        <time>2016-09-06T15:49:08Z</time>
      </trkpt>
      <trkpt lat="42.8785605" lon="-5.3542343">
        <ele>1903.0</ele>
        <time>2016-09-06T15:49:10Z</time>
      </trkpt>
      <trkpt lat="42.878445" lon="-5.3540858">
        <ele>1904.3</ele>
        <time>2016-09-06T15:49:12Z</time>
      </trkpt>
      <trkpt lat="42.8783297" lon="-5.3540906">
        <ele>1906.6</ele>
        <time>2016-09-06T15:49:14Z</time>
      </trkpt>
      <trkpt lat="42.8782594" lon="-5.3542554">
        <ele>1909.0</ele>
        <time>2016-09-06T15:49:16Z</time>
      </trkpt>
      <trkpt lat="42.8783164" lon="-5.3544557">
        <ele>1910.4</ele>
        <time>2016-09-06T15:49:18Z</time>
      </trkpt>
      <trkpt lat="42.878468" lon="-5.3545971">
        <ele>1910.9</ele>
        <time>2016-09-06T15:49:20Z</time>
      </trkpt>
      <trkpt lat="42.8786786" lon="-5.3545975">
        <ele>1911.5</ele>
        <time>2016-09-06T15:49:22Z</time>
      </trkpt>
      <trkpt lat="42.8788645" lon="-5.3544084">
        <ele>1912.5</ele>
        <time>2016-09-06T15:49:24Z</time>
      </trkpt>
      <trkpt lat="42.8789313" lon="-5.3540997">
        <ele>1913.3</ele>
        <time>2016-09-06T15:49:26Z</time>
      </trkpt>
      <trkpt lat="42.8788744" lon="-5.3538565">
        <ele>1916.0</ele>
        <time>2016-09-06T15:49:28Z</time>
      </trkpt>
      <trkpt lat="42.8787239" lon="-5.3537356">
        <ele>1920.9</ele>
        <time>2016-09-06T15:49:31Z</time>
      </trkpt>
      <trkpt lat="42.8786107" lon="-5.353806">
        <ele>1922.1</ele>
        <time>2016-09-06T15:49:33Z</time>
      </trkpt>
      <trkpt lat="42.8785937" lon="-5.3540001">
        <ele>1923.9</ele>
        <time>2016-09-06T15:49:35Z</time>
      </trkpt>
      <trkpt lat="42.8786836" lon="-5.3541866">
        <ele>1927.0</ele>
        <time>2016-09-06T15:49:37Z</time>
      </trkpt>
      <trkpt lat="42.8788707" lon="-5.3542846">
        <ele>1929.0</ele>
        <time>2016-09-06T15:49:39Z</time>
      </trkpt>
      <trkpt lat="42.8789876" lon="-5.3542702">
        <ele>1933.7</ele>
        <time>2016-09-06T15:49:40Z</time>
      </trkpt>
      <trkpt lat="42.879099" lon="-5.3542047">
        <ele>1933.7</ele>
        <time>2016-09-06T15:49:41Z</time>
      </trkpt>
      <trkpt lat="42.8792028" lon="-5.3540959">
        <ele>1933.7</ele>
        <time>2016-09-06T15:49:42Z</time>
      </trkpt>
      <trkpt lat="42.8792834" lon="-5.3539656">
        <ele>1933.7</ele>
        <time>2016-09-06T15:49:43Z</time>
      </trkpt>
      <trkpt lat="42.8793347" lon="-5.3538529">
        <ele>1933.7</ele>
        <time>2016-09-06T15:49:44Z</time>
      </trkpt>
      <trkpt lat="42.8793852" lon="-5.3536649">
        <ele>1935.4</ele>
        <time>2016-09-06T15:49:46Z</time>
      </trkpt>
      <trkpt lat="42.8793742" lon="-5.3534313">
        <ele>1936.8</ele>
        <time>2016-09-06T15:49:48Z</time>
      </trkpt>
      <trkpt lat="42.8792724" lon="-5.3532356">
        <ele>1938.7</ele>
        <time>2016-09-06T15:49:50Z</time>
      </trkpt>
      <trkpt lat="42.879126" lon="-5.3532115">
        <ele>1940.7</ele>
        <time>2016-09-06T15:49:52Z</time>
      </trkpt>
      <trkpt lat="42.8790039" lon="-5.3532948">
        <ele>1941.5</ele>
        <time>2016-09-06T15:49:54Z</time>
      </trkpt>
      <trkpt lat="42.8789471" lon="-5.353537">
        <ele>1944.1</ele>
        <time>2016-09-06T15:49:57Z</time>
      </trkpt>
      <trkpt lat="42.8790076" lon="-5.3537334">
        <ele>1946.1</ele>
        <time>2016-09-06T15:49:59Z</time>
      </trkpt>
      <trkpt lat="42.8791622" lon="-5.3538666">
        <ele>1950.0</ele>
        <time>2016-09-06T15:50:01Z</time>
      </trkpt>
      <trkpt lat="42.8794911" lon="-5.3538337">
        <ele>1951.2</ele>
        <time>2016-09-06T15:50:04Z</time>
      </trkpt>
      <trkpt lat="42.8796642" lon="-5.3536145">
        <ele>1951.8</ele>
        <time>2016-09-06T15:50:06Z</time>
      </trkpt>
      <trkpt lat="42.8797079" lon="-5.3533241">
        <ele>1953.7</ele>
        <time>2016-09-06T15:50:08Z</time>
      </trkpt>
      <trkpt lat="42.8796758" lon="-5.3530938">
        <ele>1954.4</ele>
        <time>2016-09-06T15:50:10Z</time>
      </trkpt>
      <trkpt lat="42.8795965" lon="-5.3529148">
        <ele>1954.7</ele>
        <time>2016-09-06T15:50:12Z</time>
      </trkpt>
      <trkpt lat="42.8794536" lon="-5.352849">
        <ele>1958.7</ele>
        <time>2016-09-06T15:50:14Z</time>
      </trkpt>
      <trkpt lat="42.8791741" lon="-5.3528509">
        <ele>1965.0</ele>
        <time>2016-09-06T15:50:18Z</time>
      </trkpt>
      <trkpt lat="42.8790474" lon="-5.3528541">
        <ele>1967.8</ele>
        <time>2016-09-06T15:50:20Z</time>
      </trkpt>
      <trkpt lat="42.8789872" lon="-5.3528402">
        <ele>1967.8</ele>
        <time>2016-09-06T15:50:21Z</time>
      </trkpt>
      <trkpt lat="42.8789287" lon="-5.3528096">
        <ele>1967.8</ele>
        <time>2016-09-06T15:50:22Z</time>
      </trkpt>
      <trkpt lat="42.8788675" lon="-5.3527696">
        <ele>1967.8</ele>
        <time>2016-09-06T15:50:23Z</time>
      </trkpt>
      <trkpt lat="42.8788144" lon="-5.3527194">
        <ele>1967.8</ele>
        <time>2016-09-06T15:50:24Z</time>
      </trkpt>
      <trkpt lat="42.8786716" lon="-5.3526754">
        <ele>1971.0</ele>
        <time>2016-09-06T15:50:27Z</time>
      </trkpt>
      <trkpt lat="42.8786114" lon="-5.3528092">
        <ele>1973.2</ele>
        <time>2016-09-06T15:50:29Z</time>
      </trkpt>
      <trkpt lat="42.8785933" lon="-5.3529948">
        <ele>1974.4</ele>
        <time>2016-09-06T15:50:31Z</time>
      </trkpt>
      <trkpt lat="42.8786191" lon="-5.353189">
        <ele>1977.0</ele>
        <time>2016-09-06T15:50:33Z</time>
      </trkpt>
      <trkpt lat="42.8786527" lon="-5.3533851">
        <ele>1978.7</ele>
        <time>2016-09-06T15:50:35Z</time>
      </trkpt>
      <trkpt lat="42.8787639" lon="-5.3535514">
        <ele>1980.6</ele>
        <time>2016-09-06T15:50:37Z</time>
      </trkpt>
      <trkpt lat="42.8789712" lon="-5.3536445">
        <ele>1983.3</ele>
        <time>2016-09-06T15:50:39Z</time>
      </trkpt>
      <trkpt lat="42.8791828" lon="-5.3536337">
        <ele>1986.3</ele>
        <time>2016-09-06T15:50:41Z</time>
      </trkpt>
      <trkpt lat="42.8794017" lon="-5.3534882">
        <ele>1987.5</ele>
        <time>2016-09-06T15:50:43Z</time>
      </trkpt>
      <trkpt lat="42.8795606" lon="-5.3532215">
        <ele>1988.1</ele>
        <time>2016-09-06T15:50:45Z</time>
      </trkpt>
      <trkpt lat="42.8796028" lon="-5.3529383">
        <ele>1989.5</ele>
        <time>2016-09-06T15:50:47Z</time>
      </trkpt>
      <trkpt lat="42.8796" lon="-5.3526862">
        <ele>1991.8</ele>
        <time>2016-09-06T15:50:49Z</time>
      </trkpt>
      <trkpt lat="42.8795593" lon="-5.3524694">
        <ele>1994.8</ele>
        <time>2016-09-06T15:50:51Z</time>
      </trkpt>
      <trkpt lat="42.8794505" lon="-5.3523402">
        <ele>1998.4</ele>
        <time>2016-09-06T15:50:53Z</time>
      </trkpt>
      <trkpt lat="42.8793408" lon="-5.352331">
        <ele>2002.0</ele>
        <time>2016-09-06T15:50:55Z</time>
      </trkpt>
      <trkpt lat="42.8792619" lon="-5.3524439">
        <ele>2006.3</ele>
        <time>2016-09-06T15:50:57Z</time>
      </trkpt>
      <trkpt lat="42.8792743" lon="-5.3526284">
        <ele>2006.8</ele>
        <time>2016-09-06T15:50:59Z</time>
      </trkpt>
      <trkpt lat="42.8793835" lon="-5.3528224">
        <ele>2007.8</ele>
        <time>2016-09-06T15:51:01Z</time>
      </trkpt>
      <trkpt lat="42.8795942" lon="-5.3529364">
        <ele>2009.7</ele>
        <time>2016-09-06T15:51:03Z</time>
      </trkpt>
      <trkpt lat="42.8797324" lon="-5.3529461">
        <ele>2010.5</ele>
        <time>2016-09-06T15:51:04Z</time>
      </trkpt>
      <trkpt lat="42.8798731" lon="-5.3529079">
        <ele>2011.3</ele>
        <time>2016-09-06T15:51:05Z</time>
      </trkpt>
      <trkpt lat="42.8799998" lon="-5.3528186">
        <ele>2012.4</ele>
        <time>2016-09-06T15:51:06Z</time>
      </trkpt>
      <trkpt lat="42.8800996" lon="-5.3526868">
        <ele>2013.0</ele>
        <time>2016-09-06T15:51:07Z</time>
      </trkpt>
      <trkpt lat="42.8802197" lon="-5.352406">
        <ele>2013.6</ele>
        <time>2016-09-06T15:51:09Z</time>
      </trkpt>
      <trkpt lat="42.8802997" lon="-5.3521446">
        <ele>2015.5</ele>
        <time>2016-09-06T15:51:11Z</time>
      </trkpt>
      <trkpt lat="42.8803353" lon="-5.3518788">
        <ele>2016.8</ele>
        <time>2016-09-06T15:51:13Z</time>
      </trkpt>
      <trkpt lat="42.8803126" lon="-5.3516222">
        <ele>2017.5</ele>
        <time>2016-09-06T15:51:15Z</time>
      </trkpt>
      <trkpt lat="42.8802279" lon="-5.3514502">
        <ele>2019.2</ele>
        <time>2016-09-06T15:51:17Z</time>
      </trkpt>
      <trkpt lat="42.8800559" lon="-5.3514151">
        <ele>2025.2</ele>
        <time>2016-09-06T15:51:20Z</time>
      </trkpt>
      <trkpt lat="42.8799642" lon="-5.3514993">
        <ele>2028.2</ele>
        <time>2016-09-06T15:51:22Z</time>
      </trkpt>
      <trkpt lat="42.8799832" lon="-5.3517351">
        <ele>2031.7</ele>
        <time>2016-09-06T15:51:25Z</time>
      </trkpt>
      <trkpt lat="42.8800968" lon="-5.351912">
        <ele>2033.4</ele>
        <time>2016-09-06T15:51:27Z</time>
      </trkpt>
      <trkpt lat="42.8801561" lon="-5.3520936">
        <ele>2034.2</ele>
        <time>2016-09-06T15:51:29Z</time>
      </trkpt>
      <trkpt lat="42.8800446" lon="-5.3522698">
        <ele>2035.0</ele>
        <time>2016-09-06T15:51:32Z</time>
      </trkpt>
      <trkpt lat="42.8798727" lon="-5.3522122">
        <ele>2035.8</ele>
        <time>2016-09-06T15:51:35Z</time>
      </trkpt>
      <trkpt lat="42.8797497" lon="-5.3520523">
        <ele>2036.2</ele>
        <time>2016-09-06T15:51:37Z</time>
      </trkpt>
      <trkpt lat="42.8796969" lon="-5.3518039">
        <ele>2037.6</ele>
        <time>2016-09-06T15:51:39Z</time>
      </trkpt>
      <trkpt lat="42.8797452" lon="-5.3515065">
        <ele>2041.6</ele>
        <time>2016-09-06T15:51:41Z</time>
      </trkpt>
      <trkpt lat="42.8798762" lon="-5.3512211">
        <ele>2044.6</ele>
        <time>2016-09-06T15:51:43Z</time>
      </trkpt>
      <trkpt lat="42.8800989" lon="-5.3510407">
        <ele>2047.6</ele>
        <time>2016-09-06T15:51:45Z</time>
      </trkpt>
      <trkpt lat="42.8803501" lon="-5.3510294">
        <ele>2049.0</ele>
        <time>2016-09-06T15:51:47Z</time>
      </trkpt>
      <trkpt lat="42.8805457" lon="-5.3511733">
        <ele>2050.2</ele>
        <time>2016-09-06T15:51:49Z</time>
      </trkpt>
      <trkpt lat="42.8806644" lon="-5.3513725">
        <ele>2050.6</ele>
        <time>2016-09-06T15:51:51Z</time>
      </trkpt>
      <trkpt lat="42.8807524" lon="-5.3515355">
        <ele>2051.0</ele>
        <time>2016-09-06T15:51:53Z</time>
      </trkpt>
      <trkpt lat="42.880863" lon="-5.3516966">
        <ele>2051.3</ele>
        <time>2016-09-06T15:51:55Z</time>
      </trkpt>
      <trkpt lat="42.8809923" lon="-5.3518849">
        <ele>2052.0</ele>
        <time>2016-09-06T15:51:57Z</time>
      </trkpt>
      <trkpt lat="42.8810589" lon="-5.3520933">
        <ele>2052.3</ele>
        <time>2016-09-06T15:51:59Z</time>
      </trkpt>
      <trkpt lat="42.8810673" lon="-5.3522911">
        <ele>2052.5</ele>
        <time>2016-09-06T15:52:01Z</time>
      </trkpt>
      <trkpt lat="42.8811208" lon="-5.3525471">
        <ele>2053.4</ele>
        <time>2016-09-06T15:52:04Z</time>
      </trkpt>
      <trkpt lat="42.8812171" lon="-5.3527725">
        <ele>2054.1</ele>
        <time>2016-09-06T15:52:07Z</time>
      </trkpt>
      <trkpt lat="42.8811734" lon="-5.3529558">
        <ele>2055.1</ele>
        <time>2016-09-06T15:52:10Z</time>
      </trkpt>
      <trkpt lat="42.8810311" lon="-5.3529036">
        <ele>2056.3</ele>
        <time>2016-09-06T15:52:12Z</time>
      </trkpt>
      <trkpt lat="42.8809555" lon="-5.3526624">
        <ele>2057.3</ele>
        <time>2016-09-06T15:52:14Z</time>
      </trkpt>
      <trkpt lat="42.8810294" lon="-5.3523438">
        <ele>2057.6</ele>
        <time>2016-09-06T15:52:16Z</time>
      </trkpt>
      <trkpt lat="42.8811033" lon="-5.3521828">
        <ele>2057.8</ele>
        <time>2016-09-06T15:52:17Z</time>
      </trkpt>
      <trkpt lat="42.881202" lon="-5.3520414">
        <ele>2057.8</ele>
        <time>2016-09-06T15:52:18Z</time>
      </trkpt>
      <trkpt lat="42.8813237" lon="-5.3519423">
        <ele>2058.0</ele>
        <time>2016-09-06T15:52:19Z</time>
      </trkpt>
      <trkpt lat="42.8814504" lon="-5.3518741">
        <ele>2058.0</ele>
        <time>2016-09-06T15:52:20Z</time>
      </trkpt>
      <trkpt lat="42.881713" lon="-5.3519728">
        <ele>2058.4</ele>
        <time>2016-09-06T15:52:22Z</time>
      </trkpt>
      <trkpt lat="42.881842" lon="-5.3521522">
        <ele>2060.3</ele>
        <time>2016-09-06T15:52:24Z</time>
      </trkpt>
      <trkpt lat="42.8818462" lon="-5.3523623">
        <ele>2061.1</ele>
        <time>2016-09-06T15:52:27Z</time>
      </trkpt>
      <trkpt lat="42.8816637" lon="-5.3523125">
        <ele>2063.3</ele>
        <time>2016-09-06T15:52:30Z</time>
      </trkpt>
      <trkpt lat="42.8816126" lon="-5.3519992">
        <ele>2064.9</ele>
        <time>2016-09-06T15:52:32Z</time>
      </trkpt>
      <trkpt lat="42.8816531" lon="-5.3518133">
        <ele>2066.0</ele>
        <time>2016-09-06T15:52:33Z</time>
      </trkpt>
      <trkpt lat="42.881738" lon="-5.3516497">
        <ele>2067.3</ele>
        <time>2016-09-06T15:52:34Z</time>
      </trkpt>
      <trkpt lat="42.8818528" lon="-5.351534">
        <ele>2069.2</ele>
        <time>2016-09-06T15:52:35Z</time>
      </trkpt>
      <trkpt lat="42.8821205" lon="-5.3514789">
        <ele>2070.8</ele>
        <time>2016-09-06T15:52:37Z</time>
      </trkpt>
      <trkpt lat="42.8823047" lon="-5.3516148">
        <ele>2071.8</ele>
        <time>2016-09-06T15:52:39Z</time>
      </trkpt>
      <trkpt lat="42.8823489" lon="-5.351804">
        <ele>2072.2</ele>
        <time>2016-09-06T15:52:41Z</time>
      </trkpt>
      <trkpt lat="42.8821796" lon="-5.3519051">
        <ele>2075.9</ele>
        <time>2016-09-06T15:52:44Z</time>
      </trkpt>
      <trkpt lat="42.8820685" lon="-5.3517104">
        <ele>2082.2</ele>
        <time>2016-09-06T15:52:46Z</time>
      </trkpt>
      <trkpt lat="42.8820704" lon="-5.3513774">
        <ele>2085.3</ele>
        <time>2016-09-06T15:52:48Z</time>
      </trkpt>
      <trkpt lat="42.8821207" lon="-5.3511983">
        <ele>2086.1</ele>
        <time>2016-09-06T15:52:49Z</time>
      </trkpt>
      <trkpt lat="42.8822115" lon="-5.3510428">
        <ele>2086.5</ele>
        <time>2016-09-06T15:52:50Z</time>
      </trkpt>
      <trkpt lat="42.8823331" lon="-5.3509374">
        <ele>2086.8</ele>
        <time>2016-09-06T15:52:51Z</time>
      </trkpt>
      <trkpt lat="42.8825994" lon="-5.350927">
        <ele>2087.3</ele>
        <time>2016-09-06T15:52:53Z</time>
      </trkpt>
      <trkpt lat="42.8827567" lon="-5.3510963">
        <ele>2090.0</ele>
        <time>2016-09-06T15:52:55Z</time>
      </trkpt>
      <trkpt lat="42.8828023" lon="-5.3512821">
        <ele>2091.5</ele>
        <time>2016-09-06T15:52:57Z</time>
      </trkpt>
      <trkpt lat="42.8828191" lon="-5.3514644">
        <ele>2092.1</ele>
        <time>2016-09-06T15:52:59Z</time>
      </trkpt>
      <trkpt lat="42.8826856" lon="-5.3515684">
        <ele>2092.9</ele>
        <time>2016-09-06T15:53:02Z</time>
      </trkpt>
      <trkpt lat="42.882556" lon="-5.3514111">
        <ele>2094.7</ele>
        <time>2016-09-06T15:53:04Z</time>
      </trkpt>
      <trkpt lat="42.8824451" lon="-5.3511795">
        <ele>2096.4</ele>
        <time>2016-09-06T15:53:06Z</time>
      </trkpt>
      <trkpt lat="42.8823288" lon="-5.3510388">
        <ele>2097.5</ele>
        <time>2016-09-06T15:53:08Z</time>
      </trkpt>
      <trkpt lat="42.8822337" lon="-5.3510703">
        <ele>2098.2</ele>
        <time>2016-09-06T15:53:10Z</time>
      </trkpt>
      <trkpt lat="42.8822489" lon="-5.351257">
        <ele>2098.8</ele>
        <time>2016-09-06T15:53:13Z</time>
      </trkpt>
      <trkpt lat="42.8823698" lon="-5.3513653">
        <ele>2099.3</ele>
        <time>2016-09-06T15:53:15Z</time>
      </trkpt>
      <trkpt lat="42.8827101" lon="-5.3513297">
        <ele>2100.4</ele>
        <time>2016-09-06T15:53:18Z</time>
      </trkpt>
      <trkpt lat="42.88283" lon="-5.3512321">
        <ele>2101.2</ele>
        <time>2016-09-06T15:53:19Z</time>
      </trkpt>
      <trkpt lat="42.8829307" lon="-5.3510905">
        <ele>2101.4</ele>
        <time>2016-09-06T15:53:20Z</time>
      </trkpt>
      <trkpt lat="42.8830262" lon="-5.3507725">
        <ele>2101.7</ele>
        <time>2016-09-06T15:53:22Z</time>
      </trkpt>
      <trkpt lat="42.8830027" lon="-5.3504882">
        <ele>2103.1</ele>
        <time>2016-09-06T15:53:24Z</time>
      </trkpt>
      <trkpt lat="42.8828808" lon="-5.3503113">
        <ele>2104.7</ele>
        <time>2016-09-06T15:53:26Z</time>
      </trkpt>
      <trkpt lat="42.8827174" lon="-5.3502907">
        <ele>2106.0</ele>
        <time>2016-09-06T15:53:29Z</time>
      </trkpt>
      <trkpt lat="42.8826622" lon="-5.3504114">
        <ele>2106.7</ele>
        <time>2016-09-06T15:53:32Z</time>
      </trkpt>
      <trkpt lat="42.882758" lon="-5.3506611">
        <ele>2107.2</ele>
        <time>2016-09-06T15:53:35Z</time>
      </trkpt>
      <trkpt lat="42.8826299" lon="-5.3507435">
        <ele>2111.0</ele>
        <time>2016-09-06T15:53:39Z</time>
      </trkpt>
      <trkpt lat="42.8825719" lon="-5.3505383">
        <ele>2113.3</ele>
        <time>2016-09-06T15:53:41Z</time>
      </trkpt>
      <trkpt lat="42.8826104" lon="-5.3502276">
        <ele>2117.0</ele>
        <time>2016-09-06T15:53:43Z</time>
      </trkpt>
      <trkpt lat="42.8826746" lon="-5.3500639">
        <ele>2119.0</ele>
        <time>2016-09-06T15:53:44Z</time>
      </trkpt>
      <trkpt lat="42.8827703" lon="-5.3499064">
        <ele>2120.8</ele>
        <time>2016-09-06T15:53:45Z</time>
      </trkpt>
      <trkpt lat="42.8829036" lon="-5.3497862">
        <ele>2122.4</ele>
        <time>2016-09-06T15:53:46Z</time>
      </trkpt>
      <trkpt lat="42.8831965" lon="-5.349736">
        <ele>2124.4</ele>
        <time>2016-09-06T15:53:48Z</time>
      </trkpt>
      <trkpt lat="42.8834063" lon="-5.3498215">
        <ele>2127.0</ele>
        <time>2016-09-06T15:53:50Z</time>
      </trkpt>
      <trkpt lat="42.8835231" lon="-5.3499406">
        <ele>2128.4</ele>
        <time>2016-09-06T15:53:52Z</time>
      </trkpt>
      <trkpt lat="42.8834505" lon="-5.3500962">
        <ele>2134.4</ele>
        <time>2016-09-06T15:53:56Z</time>
      </trkpt>
      <trkpt lat="42.8833512" lon="-5.3499442">
        <ele>2134.7</ele>
        <time>2016-09-06T15:53:58Z</time>
      </trkpt>
      <trkpt lat="42.8833271" lon="-5.3496686">
        <ele>2137.8</ele>
        <time>2016-09-06T15:54:00Z</time>
      </trkpt>
      <trkpt lat="42.8834294" lon="-5.3493347">
        <ele>2140.4</ele>
        <time>2016-09-06T15:54:02Z</time>
      </trkpt>
      <trkpt lat="42.883534" lon="-5.3491943">
        <ele>2141.1</ele>
        <time>2016-09-06T15:54:03Z</time>
      </trkpt>
      <trkpt lat="42.8837993" lon="-5.3490698">
        <ele>2141.8</ele>
        <time>2016-09-06T15:54:05Z</time>
      </trkpt>
      <trkpt lat="42.8840048" lon="-5.3491574">
        <ele>2143.9</ele>
        <time>2016-09-06T15:54:07Z</time>
      </trkpt>
      <trkpt lat="42.8840605" lon="-5.3492981">
        <ele>2148.5</ele>
        <time>2016-09-06T15:54:09Z</time>
      </trkpt>
      <trkpt lat="42.8839899" lon="-5.349325">
        <ele>2148.5</ele>
        <time>2016-09-06T15:54:11Z</time>
      </trkpt>
      <trkpt lat="42.883922" lon="-5.3492655">
        <ele>2148.5</ele>
        <time>2016-09-06T15:54:12Z</time>
      </trkpt>
      <trkpt lat="42.883862" lon="-5.3491514">
        <ele>2148.5</ele>
        <time>2016-09-06T15:54:13Z</time>
      </trkpt>
      <trkpt lat="42.8838617" lon="-5.3488129">
        <ele>2149.0</ele>
        <time>2016-09-06T15:54:15Z</time>
      </trkpt>
      <trkpt lat="42.8839256" lon="-5.3486443">
        <ele>2149.1</ele>
        <time>2016-09-06T15:54:16Z</time>
      </trkpt>
      <trkpt lat="42.8840209" lon="-5.3485075">
        <ele>2149.3</ele>
        <time>2016-09-06T15:54:17Z</time>
      </trkpt>
      <trkpt lat="42.884261" lon="-5.34837">
        <ele>2150.5</ele>
        <time>2016-09-06T15:54:19Z</time>
      </trkpt>
      <trkpt lat="42.8844534" lon="-5.3484546">
        <ele>2154.1</ele>
        <time>2016-09-06T15:54:21Z</time>
      </trkpt>
      <trkpt lat="42.884402" lon="-5.3486467">
        <ele>2157.7</ele>
        <time>2016-09-06T15:54:24Z</time>
      </trkpt>
      <trkpt lat="42.8842505" lon="-5.3484834">
        <ele>2161.4</ele>
        <time>2016-09-06T15:54:27Z</time>
      </trkpt>
      <trkpt lat="42.8841767" lon="-5.3482457">
        <ele>2164.3</ele>
        <time>2016-09-06T15:54:29Z</time>
      </trkpt>
      <trkpt lat="42.8841833" lon="-5.3479225">
        <ele>2166.0</ele>
        <time>2016-09-06T15:54:31Z</time>
      </trkpt>
      <trkpt lat="42.8842428" lon="-5.3477564">
        <ele>2166.9</ele>
        <time>2016-09-06T15:54:32Z</time>
      </trkpt>
      <trkpt lat="42.8843317" lon="-5.3476149">
        <ele>2167.4</ele>
        <time>2016-09-06T15:54:33Z</time>
      </trkpt>
      <trkpt lat="42.8845537" lon="-5.3474306">
        <ele>2168.6</ele>
        <time>2016-09-06T15:54:35Z</time>
      </trkpt>
      <trkpt lat="42.8848722" lon="-5.3474842">
        <ele>2170.2</ele>
        <time>2016-09-06T15:54:38Z</time>
      </trkpt>
      <trkpt lat="42.884942" lon="-5.3476999">
        <ele>2173.8</ele>
        <time>2016-09-06T15:54:41Z</time>
      </trkpt>
      <trkpt lat="42.8849182" lon="-5.3479377">
        <ele>2175.6</ele>
        <time>2016-09-06T15:54:45Z</time>
      </trkpt>
      <trkpt lat="42.8848562" lon="-5.3481583">
        <ele>2176.8</ele>
        <time>2016-09-06T15:54:49Z</time>
      </trkpt>
      <trkpt lat="42.8848692" lon="-5.3484088">
        <ele>2178.1</ele>
        <time>2016-09-06T15:54:53Z</time>
      </trkpt>
      <trkpt lat="42.8849059" lon="-5.3486336">
        <ele>2181.1</ele>
        <time>2016-09-06T15:54:56Z</time>
      </trkpt>
      <trkpt lat="42.8848793" lon="-5.3488217">
        <ele>2182.8</ele>
        <time>2016-09-06T15:54:59Z</time>
      </trkpt>
      <trkpt lat="42.8847998" lon="-5.3489973">
        <ele>2186.5</ele>
        <time>2016-09-06T15:55:02Z</time>
      </trkpt>
      <trkpt lat="42.8847675" lon="-5.3492338">
        <ele>2189.3</ele>
        <time>2016-09-06T15:55:06Z</time>
      </trkpt>
      <trkpt lat="42.8846851" lon="-5.3494038">
        <ele>2190.0</ele>
        <time>2016-09-06T15:55:09Z</time>
      </trkpt>
      <trkpt lat="42.8845553" lon="-5.3494739">
        <ele>2193.7</ele>
        <time>2016-09-06T15:55:13Z</time>
      </trkpt>
      <trkpt lat="42.8844104" lon="-5.349318">
        <ele>2195.4</ele>
        <time>2016-09-06T15:55:16Z</time>
      </trkpt>
      <trkpt lat="42.8843187" lon="-5.3490609">
        <ele>2197.2</ele>
        <time>2016-09-06T15:55:18Z</time>
      </trkpt>
      <trkpt lat="42.8843353" lon="-5.3487654">
        <ele>2199.8</ele>
        <time>2016-09-06T15:55:20Z</time>
      </trkpt>
      <trkpt lat="42.8844259" lon="-5.3484331">
        <ele>2201.7</ele>
        <time>2016-09-06T15:55:22Z</time>
      </trkpt>
      <trkpt lat="42.884506" lon="-5.3482831">
        <ele>2202.1</ele>
        <time>2016-09-06T15:55:23Z</time>
      </trkpt>
      <trkpt lat="42.88473" lon="-5.3480933">
        <ele>2202.9</ele>
        <time>2016-09-06T15:55:25Z</time>
      </trkpt>
      <trkpt lat="42.8849894" lon="-5.3480832">
        <ele>2205.5</ele>
        <time>2016-09-06T15:55:27Z</time>
      </trkpt>
      <trkpt lat="42.8851923" lon="-5.3482323">
        <ele>2208.1</ele>
        <time>2016-09-06T15:55:29Z</time>
      </trkpt>
      <trkpt lat="42.8852464" lon="-5.3484386">
        <ele>2209.7</ele>
        <time>2016-09-06T15:55:31Z</time>
      </trkpt>
      <trkpt lat="42.8852643" lon="-5.3486862">
        <ele>2215.8</ele>
        <time>2016-09-06T15:55:34Z</time>
      </trkpt>
      <trkpt lat="42.8853157" lon="-5.3488946">
        <ele>2219.2</ele>
        <time>2016-09-06T15:55:37Z</time>
      </trkpt>
      <trkpt lat="42.8852634" lon="-5.349078">
        <ele>2223.4</ele>
        <time>2016-09-06T15:55:40Z</time>
      </trkpt>
      <trkpt lat="42.8851339" lon="-5.3491312">
        <ele>2227.7</ele>
        <time>2016-09-06T15:55:43Z</time>
      </trkpt>
      <trkpt lat="42.8849371" lon="-5.3490052">
        <ele>2229.9</ele>
        <time>2016-09-06T15:55:46Z</time>
      </trkpt>
      <trkpt lat="42.884851" lon="-5.3487682">
        <ele>2229.9</ele>
        <time>2016-09-06T15:55:48Z</time>
      </trkpt>
      <trkpt lat="42.8848526" lon="-5.3484682">
        <ele>2230.0</ele>
        <time>2016-09-06T15:55:50Z</time>
      </trkpt>
      <trkpt lat="42.8849424" lon="-5.3481561">
        <ele>2230.3</ele>
        <time>2016-09-06T15:55:52Z</time>
      </trkpt>
      <trkpt lat="42.8850209" lon="-5.3480037">
        <ele>2230.4</ele>
        <time>2016-09-06T15:55:53Z</time>
      </trkpt>
      <trkpt lat="42.8851217" lon="-5.3478753">
        <ele>2230.5</ele>
        <time>2016-09-06T15:55:54Z</time>
      </trkpt>
      <trkpt lat="42.8853533" lon="-5.3477291">
        <ele>2230.6</ele>
        <time>2016-09-06T15:55:56Z</time>
      </trkpt>
      <trkpt lat="42.8855755" lon="-5.3477114">
        <ele>2231.0</ele>
        <time>2016-09-06T15:55:58Z</time>
      </trkpt>
      <trkpt lat="42.8857661" lon="-5.3478118">
        <ele>2232.0</ele>
        <time>2016-09-06T15:56:00Z</time>
      </trkpt>
      <trkpt lat="42.8858689" lon="-5.3480052">
        <ele>2232.7</ele>
        <time>2016-09-06T15:56:02Z</time>
      </trkpt>
      <trkpt lat="42.885804" lon="-5.3481765">
        <ele>2235.5</ele>
        <time>2016-09-06T15:56:06Z</time>
      </trkpt>
      <trkpt lat="42.8857237" lon="-5.3483403">
        <ele>2237.5</ele>
        <time>2016-09-06T15:56:09Z</time>
      </trkpt>
      <trkpt lat="42.8855558" lon="-5.3483804">
        <ele>2238.4</ele>
        <time>2016-09-06T15:56:12Z</time>
      </trkpt>
      <trkpt lat="42.8854107" lon="-5.3482646">
        <ele>2239.7</ele>
        <time>2016-09-06T15:56:14Z</time>
      </trkpt>
      <trkpt lat="42.8853165" lon="-5.3480381">
        <ele>2240.1</ele>
        <time>2016-09-06T15:56:16Z</time>
      </trkpt>
      <trkpt lat="42.8852783" lon="-5.3477352">
        <ele>2241.4</ele>
        <time>2016-09-06T15:56:18Z</time>
      </trkpt>
      <trkpt lat="42.8853056" lon="-5.3474572">
        <ele>2242.2</ele>
        <time>2016-09-06T15:56:20Z</time>
      </trkpt>
      <trkpt lat="42.8853952" lon="-5.3471975">
        <ele>2242.8</ele>
        <time>2016-09-06T15:56:22Z</time>
      </trkpt>
      <trkpt lat="42.8855448" lon="-5.3469303">
        <ele>2243.6</ele>
        <time>2016-09-06T15:56:24Z</time>
      </trkpt>
      <trkpt lat="42.8857642" lon="-5.3468081">
        <ele>2244.0</ele>
        <time>2016-09-06T15:56:26Z</time>
      </trkpt>
      <trkpt lat="42.8859575" lon="-5.3468952">
        <ele>2244.2</ele>
        <time>2016-09-06T15:56:28Z</time>
      </trkpt>
      <trkpt lat="42.8860038" lon="-5.3471358">
        <ele>2244.5</ele>
        <time>2016-09-06T15:56:31Z</time>
      </trkpt>
      <trkpt lat="42.8860844" lon="-5.3472877">
        <ele>2244.9</ele>
        <time>2016-09-06T15:56:34Z</time>
      </trkpt>
      <trkpt lat="42.8860376" lon="-5.34748">
        <ele>2246.2</ele>
        <time>2016-09-06T15:56:37Z</time>
      </trkpt>
      <trkpt lat="42.8858886" lon="-5.3475194">
        <ele>2246.9</ele>
        <time>2016-09-06T15:56:39Z</time>
      </trkpt>
      <trkpt lat="42.8857622" lon="-5.3475702">
        <ele>2248.0</ele>
        <time>2016-09-06T15:56:41Z</time>
      </trkpt>
      <trkpt lat="42.8856922" lon="-5.3477045">
        <ele>2248.9</ele>
        <time>2016-09-06T15:56:43Z</time>
      </trkpt>
      <trkpt lat="42.8855336" lon="-5.3478675">
        <ele>2249.4</ele>
        <time>2016-09-06T15:56:46Z</time>
      </trkpt>
      <trkpt lat="42.8853733" lon="-5.3478324">
        <ele>2249.6</ele>
        <time>2016-09-06T15:56:48Z</time>
      </trkpt>
      <trkpt lat="42.8852042" lon="-5.3476462">
        <ele>2249.9</ele>
        <time>2016-09-06T15:56:50Z</time>
      </trkpt>
      <trkpt lat="42.8850746" lon="-5.3474004">
        <ele>2250.0</ele>
        <time>2016-09-06T15:56:52Z</time>
      </trkpt>
      <trkpt lat="42.8850271" lon="-5.3471059">
        <ele>2250.0</ele>
        <time>2016-09-06T15:56:54Z</time>
      </trkpt>
      <trkpt lat="42.8850868" lon="-5.34676">
        <ele>2250.0</ele>
        <time>2016-09-06T15:56:56Z</time>
      </trkpt>
      <trkpt lat="42.8851588" lon="-5.346598">
        <ele>2250.0</ele>
        <time>2016-09-06T15:56:57Z</time>
      </trkpt>
      <trkpt lat="42.8853587" lon="-5.3464388">
        <ele>2250.0</ele>
        <time>2016-09-06T15:56:59Z</time>
      </trkpt>
      <trkpt lat="42.8855367" lon="-5.3464829">
        <ele>2250.0</ele>
        <time>2016-09-06T15:57:01Z</time>
      </trkpt>
      <trkpt lat="42.8855491" lon="-5.3467165">
        <ele>2249.9</ele>
        <time>2016-09-06T15:57:04Z</time>
      </trkpt>
      <trkpt lat="42.8853747" lon="-5.346744">
        <ele>2249.7</ele>
        <time>2016-09-06T15:57:06Z</time>
      </trkpt>
      <trkpt lat="42.8852791" lon="-5.3466964">
        <ele>2249.6</ele>
        <time>2016-09-06T15:57:07Z</time>
      </trkpt>
      <trkpt lat="42.8850203" lon="-5.3465374">
        <ele>2249.5</ele>
        <time>2016-09-06T15:57:11Z</time>
      </trkpt>
      <trkpt lat="42.8848796" lon="-5.3464768">
        <ele>2249.5</ele>
        <time>2016-09-06T15:57:13Z</time>
      </trkpt>
      <trkpt lat="42.88465" lon="-5.3464018">
        <ele>2249.5</ele>
        <time>2016-09-06T15:57:16Z</time>
      </trkpt>
      <trkpt lat="42.8845343" lon="-5.3463705">
        <ele>2249.5</ele>
        <time>2016-09-06T15:57:18Z</time>
      </trkpt>
      <trkpt lat="42.8844378" lon="-5.3463997">
        <ele>2249.5</ele>
        <time>2016-09-06T15:57:20Z</time>
      </trkpt>
      <trkpt lat="42.8843449" lon="-5.3465086">
        <ele>2249.3</ele>
        <time>2016-09-06T15:57:22Z</time>
      </trkpt>
      <trkpt lat="42.8842391" lon="-5.3467022">
        <ele>2248.6</ele>
        <time>2016-09-06T15:57:25Z</time>
      </trkpt>
      <trkpt lat="42.8840622" lon="-5.3468195">
        <ele>2243.5</ele>
        <time>2016-09-06T15:57:28Z</time>
      </trkpt>
      <trkpt lat="42.883887" lon="-5.3468818">
        <ele>2232.7</ele>
        <time>2016-09-06T15:57:31Z</time>
      </trkpt>
      <trkpt lat="42.8838321" lon="-5.3468866">
        <ele>2232.7</ele>
        <time>2016-09-06T15:57:32Z</time>
      </trkpt>
      <trkpt lat="42.8837817" lon="-5.3468849">
        <ele>2232.7</ele>
        <time>2016-09-06T15:57:33Z</time>
      </trkpt>
      <trkpt lat="42.8837265" lon="-5.3468838">
        <ele>2232.7</ele>
        <time>2016-09-06T15:57:34Z</time>
      </trkpt>
      <trkpt lat="42.8836207" lon="-5.3469037">
        <ele>2227.8</ele>
        <time>2016-09-06T15:57:36Z</time>
      </trkpt>
      <trkpt lat="42.8835316" lon="-5.3469919">
        <ele>2225.9</ele>
        <time>2016-09-06T15:57:38Z</time>
      </trkpt>
      <trkpt lat="42.8834549" lon="-5.3472067">
        <ele>2223.8</ele>
        <time>2016-09-06T15:57:41Z</time>
      </trkpt>
      <trkpt lat="42.8833984" lon="-5.347435">
        <ele>2220.5</ele>
        <time>2016-09-06T15:57:44Z</time>
      </trkpt>
      <trkpt lat="42.88338" lon="-5.3476487">
        <ele>2219.0</ele>
        <time>2016-09-06T15:57:47Z</time>
      </trkpt>
      <trkpt lat="42.8834349" lon="-5.347882">
        <ele>2218.8</ele>
        <time>2016-09-06T15:57:50Z</time>
      </trkpt>
      <trkpt lat="42.8835146" lon="-5.3480634">
        <ele>2218.8</ele>
        <time>2016-09-06T15:57:52Z</time>
      </trkpt>
      <trkpt lat="42.883447" lon="-5.3482595">
        <ele>2218.8</ele>
        <time>2016-09-06T15:57:55Z</time>
      </trkpt>
      <trkpt lat="42.8832718" lon="-5.3481486">
        <ele>2218.8</ele>
        <time>2016-09-06T15:57:58Z</time>
      </trkpt>
      <trkpt lat="42.8832093" lon="-5.3479245">
        <ele>2218.8</ele>
        <time>2016-09-06T15:58:00Z</time>
      </trkpt>
      <trkpt lat="42.8832493" lon="-5.3476173">
        <ele>2218.8</ele>
        <time>2016-09-06T15:58:02Z</time>
      </trkpt>
      <trkpt lat="42.8834273" lon="-5.347354">
        <ele>2218.8</ele>
        <time>2016-09-06T15:58:04Z</time>
      </trkpt>
      <trkpt lat="42.8836917" lon="-5.3472831">
        <ele>2218.8</ele>
        <time>2016-09-06T15:58:06Z</time>
      </trkpt>
      <trkpt lat="42.8838912" lon="-5.3474422">
        <ele>2218.8</ele>
        <time>2016-09-06T15:58:08Z</time>
      </trkpt>
      <trkpt lat="42.884003" lon="-5.3476514">
        <ele>2218.8</ele>
        <time>2016-09-06T15:58:10Z</time>
      </trkpt>
      <trkpt lat="42.8840794" lon="-5.3478298">
        <ele>2218.8</ele>
        <time>2016-09-06T15:58:12Z</time>
      </trkpt>
      <trkpt lat="42.8841367" lon="-5.3480129">
        <ele>2218.8</ele>
        <time>2016-09-06T15:58:14Z</time>
      </trkpt>
      <trkpt lat="42.8841724" lon="-5.3482097">
        <ele>2219.0</ele>
        <time>2016-09-06T15:58:16Z</time>
      </trkpt>
      <trkpt lat="42.8841966" lon="-5.3484745">
        <ele>2220.7</ele>
        <time>2016-09-06T15:58:19Z</time>
      </trkpt>
      <trkpt lat="42.8841925" lon="-5.3486603">
        <ele>2221.3</ele>
        <time>2016-09-06T15:58:21Z</time>
      </trkpt>
      <trkpt lat="42.8841944" lon="-5.3489251">
        <ele>2222.4</ele>
        <time>2016-09-06T15:58:24Z</time>
      </trkpt>
      <trkpt lat="42.8841698" lon="-5.3491793">
        <ele>2223.4</ele>
        <time>2016-09-06T15:58:27Z</time>
      </trkpt>
      <trkpt lat="42.8841147" lon="-5.3493805">
        <ele>2224.7</ele>
        <time>2016-09-06T15:58:30Z</time>
      </trkpt>
      <trkpt lat="42.8840423" lon="-5.349549">
        <ele>2225.3</ele>
        <time>2016-09-06T15:58:33Z</time>
      </trkpt>
      <trkpt lat="42.8839241" lon="-5.3497205">
        <ele>2225.8</ele>
        <time>2016-09-06T15:58:36Z</time>
      </trkpt>
      <trkpt lat="42.88378" lon="-5.3498323">
        <ele>2226.4</ele>
        <time>2016-09-06T15:58:40Z</time>
      </trkpt>
      <trkpt lat="42.8836751" lon="-5.3498233">
        <ele>2227.1</ele>
        <time>2016-09-06T15:58:42Z</time>
      </trkpt>
      <trkpt lat="42.883614" lon="-5.3498065">
        <ele>2227.1</ele>
        <time>2016-09-06T15:58:43Z</time>
      </trkpt>
      <trkpt lat="42.8835511" lon="-5.3497743">
        <ele>2227.1</ele>
        <time>2016-09-06T15:58:44Z</time>
      </trkpt>
      <trkpt lat="42.8834886" lon="-5.3497304">
        <ele>2227.1</ele>
        <time>2016-09-06T15:58:45Z</time>
      </trkpt>
      <trkpt lat="42.8834228" lon="-5.3496887">
        <ele>2227.1</ele>
        <time>2016-09-06T15:58:46Z</time>
      </trkpt>
      <trkpt lat="42.8832389" lon="-5.3495389">
        <ele>2227.2</ele>
        <time>2016-09-06T15:58:49Z</time>
      </trkpt>
      <trkpt lat="42.8830966" lon="-5.3493739">
        <ele>2227.2</ele>
        <time>2016-09-06T15:58:52Z</time>
      </trkpt>
      <trkpt lat="42.8829894" lon="-5.3492205">
        <ele>2227.2</ele>
        <time>2016-09-06T15:58:54Z</time>
      </trkpt>
      <trkpt lat="42.8828688" lon="-5.3490624">
        <ele>2227.2</ele>
        <time>2016-09-06T15:58:56Z</time>
      </trkpt>
      <trkpt lat="42.8827448" lon="-5.3488974">
        <ele>2226.8</ele>
        <time>2016-09-06T15:58:58Z</time>
      </trkpt>
      <trkpt lat="42.8826247" lon="-5.3486876">
        <ele>2226.5</ele>
        <time>2016-09-06T15:59:01Z</time>
      </trkpt>
      <trkpt lat="42.882557" lon="-5.3484924">
        <ele>2226.2</ele>
        <time>2016-09-06T15:59:03Z</time>
      </trkpt>
      <trkpt lat="42.8824679" lon="-5.3482789">
        <ele>2226.0</ele>
        <time>2016-09-06T15:59:05Z</time>
      </trkpt>
      <trkpt lat="42.8823606" lon="-5.3481155">
        <ele>2226.0</ele>
        <time>2016-09-06T15:59:07Z</time>
      </trkpt>
      <trkpt lat="42.882168" lon="-5.3481104">
        <ele>2225.9</ele>
        <time>2016-09-06T15:59:10Z</time>
      </trkpt>
      <trkpt lat="42.882078" lon="-5.3481822">
        <ele>2225.9</ele>
        <time>2016-09-06T15:59:12Z</time>
      </trkpt>
      <trkpt lat="42.8819603" lon="-5.3483416">
        <ele>2222.9</ele>
        <time>2016-09-06T15:59:15Z</time>
      </trkpt>
      <trkpt lat="42.8818208" lon="-5.3483604">
        <ele>2220.7</ele>
        <time>2016-09-06T15:59:18Z</time>
      </trkpt>
      <trkpt lat="42.8817206" lon="-5.3481001">
        <ele>2220.4</ele>
        <time>2016-09-06T15:59:21Z</time>
      </trkpt>
      <trkpt lat="42.8817284" lon="-5.3478066">
        <ele>2221.0</ele>
        <time>2016-09-06T15:59:23Z</time>
      </trkpt>
      <trkpt lat="42.8818614" lon="-5.3475104">
        <ele>2221.2</ele>
        <time>2016-09-06T15:59:25Z</time>
      </trkpt>
      <trkpt lat="42.8820899" lon="-5.347358">
        <ele>2220.6</ele>
        <time>2016-09-06T15:59:27Z</time>
      </trkpt>
      <trkpt lat="42.8823061" lon="-5.3473844">
        <ele>2220.4</ele>
        <time>2016-09-06T15:59:29Z</time>
      </trkpt>
      <trkpt lat="42.8824369" lon="-5.3475028">
        <ele>2220.4</ele>
        <time>2016-09-06T15:59:31Z</time>
      </trkpt>
      <trkpt lat="42.8825" lon="-5.3476852">
        <ele>2220.3</ele>
        <time>2016-09-06T15:59:33Z</time>
      </trkpt>
      <trkpt lat="42.8824403" lon="-5.3479085">
        <ele>2221.0</ele>
        <time>2016-09-06T15:59:36Z</time>
      </trkpt>
      <trkpt lat="42.8822788" lon="-5.3478574">
        <ele>2220.4</ele>
        <time>2016-09-06T15:59:39Z</time>
      </trkpt>
      <trkpt lat="42.8821897" lon="-5.347714">
        <ele>2220.4</ele>
        <time>2016-09-06T15:59:41Z</time>
      </trkpt>
      <trkpt lat="42.8821133" lon="-5.3475256">
        <ele>2220.3</ele>
        <time>2016-09-06T15:59:43Z</time>
      </trkpt>
      <trkpt lat="42.8820621" lon="-5.3472713">
        <ele>2220.3</ele>
        <time>2016-09-06T15:59:45Z</time>
      </trkpt>
      <trkpt lat="42.8820067" lon="-5.3470218">
        <ele>2222.0</ele>
        <time>2016-09-06T15:59:47Z</time>
      </trkpt>
      <trkpt lat="42.8818641" lon="-5.3469643">
        <ele>2224.5</ele>
        <time>2016-09-06T15:59:50Z</time>
      </trkpt>
      <trkpt lat="42.8818341" lon="-5.3471311">
        <ele>2226.4</ele>
        <time>2016-09-06T15:59:53Z</time>
      </trkpt>
      <trkpt lat="42.8819687" lon="-5.3472595">
        <ele>2227.0</ele>
        <time>2016-09-06T15:59:55Z</time>
      </trkpt>
      <trkpt lat="42.882179" lon="-5.3472983">
        <ele>2227.8</ele>
        <time>2016-09-06T15:59:57Z</time>
      </trkpt>
      <trkpt lat="42.8822944" lon="-5.3472666">
        <ele>2231.2</ele>
        <time>2016-09-06T15:59:58Z</time>
      </trkpt>
      <trkpt lat="42.8824075" lon="-5.3471865">
        <ele>2231.2</ele>
        <time>2016-09-06T15:59:59Z</time>
      </trkpt>
      <trkpt lat="42.8825158" lon="-5.3470622">
        <ele>2231.2</ele>
        <time>2016-09-06T16:00:00Z</time>
      </trkpt>
      <trkpt lat="42.8825889" lon="-5.346905">
        <ele>2231.2</ele>
        <time>2016-09-06T16:00:01Z</time>
      </trkpt>
      <trkpt lat="42.8826235" lon="-5.3467436">
        <ele>2231.2</ele>
        <time>2016-09-06T16:00:02Z</time>
      </trkpt>
      <trkpt lat="42.8825997" lon="-5.346477">
        <ele>2231.7</ele>
        <time>2016-09-06T16:00:04Z</time>
      </trkpt>
      <trkpt lat="42.8825019" lon="-5.3463342">
        <ele>2232.0</ele>
        <time>2016-09-06T16:00:06Z</time>
      </trkpt>
      <trkpt lat="42.8823617" lon="-5.3463041">
        <ele>2234.1</ele>
        <time>2016-09-06T16:00:09Z</time>
      </trkpt>
      <trkpt lat="42.8823221" lon="-5.3464367">
        <ele>2238.8</ele>
        <time>2016-09-06T16:00:12Z</time>
      </trkpt>
      <trkpt lat="42.8823423" lon="-5.3466346">
        <ele>2241.3</ele>
        <time>2016-09-06T16:00:14Z</time>
      </trkpt>
      <trkpt lat="42.8825045" lon="-5.346825">
        <ele>2243.2</ele>
        <time>2016-09-06T16:00:16Z</time>
      </trkpt>
      <trkpt lat="42.8827534" lon="-5.346876">
        <ele>2244.9</ele>
        <time>2016-09-06T16:00:18Z</time>
      </trkpt>
      <trkpt lat="42.8829919" lon="-5.3468643">
        <ele>2246.8</ele>
        <time>2016-09-06T16:00:20Z</time>
      </trkpt>
      <trkpt lat="42.8832135" lon="-5.3466951">
        <ele>2250.7</ele>
        <time>2016-09-06T16:00:22Z</time>
      </trkpt>
      <trkpt lat="42.8833107" lon="-5.3465619">
        <ele>2253.0</ele>
        <time>2016-09-06T16:00:23Z</time>
      </trkpt>
      <trkpt lat="42.883412" lon="-5.3462619">
        <ele>2257.0</ele>
        <time>2016-09-06T16:00:25Z</time>
      </trkpt>
      <trkpt lat="42.8834278" lon="-5.3460069">
        <ele>2261.5</ele>
        <time>2016-09-06T16:00:27Z</time>
      </trkpt>
      <trkpt lat="42.8833724" lon="-5.3457791">
        <ele>2264.9</ele>
        <time>2016-09-06T16:00:29Z</time>
      </trkpt>
      <trkpt lat="42.8832812" lon="-5.3455908">
        <ele>2266.7</ele>
        <time>2016-09-06T16:00:31Z</time>
      </trkpt>
      <trkpt lat="42.8832214" lon="-5.3454181">
        <ele>2267.9</ele>
        <time>2016-09-06T16:00:33Z</time>
      </trkpt>
      <trkpt lat="42.8831492" lon="-5.3452247">
        <ele>2270.4</ele>
        <time>2016-09-06T16:00:36Z</time>
      </trkpt>
      <trkpt lat="42.8829902" lon="-5.3452196">
        <ele>2273.2</ele>
        <time>2016-09-06T16:00:40Z</time>
      </trkpt>
      <trkpt lat="42.8829648" lon="-5.3454411">
        <ele>2274.0</ele>
        <time>2016-09-06T16:00:43Z</time>
      </trkpt>
      <trkpt lat="42.8830102" lon="-5.3456158">
        <ele>2275.9</ele>
        <time>2016-09-06T16:00:45Z</time>
      </trkpt>
      <trkpt lat="42.8830407" lon="-5.3458331">
        <ele>2276.9</ele>
        <time>2016-09-06T16:00:47Z</time>
      </trkpt>
      <trkpt lat="42.8830797" lon="-5.3460301">
        <ele>2278.0</ele>
        <time>2016-09-06T16:00:49Z</time>
      </trkpt>
      <trkpt lat="42.8831502" lon="-5.3462302">
        <ele>2279.8</ele>
        <time>2016-09-06T16:00:51Z</time>
      </trkpt>
      <trkpt lat="42.8832073" lon="-5.3464202">
        <ele>2282.1</ele>
        <time>2016-09-06T16:00:53Z</time>
      </trkpt>
      <trkpt lat="42.8832024" lon="-5.346629">
        <ele>2286.7</ele>
        <time>2016-09-06T16:00:56Z</time>
      </trkpt>
      <trkpt lat="42.8830697" lon="-5.3467095">
        <ele>2290.7</ele>
        <time>2016-09-06T16:01:00Z</time>
      </trkpt>
      <trkpt lat="42.8829386" lon="-5.3464941">
        <ele>2291.9</ele>
        <time>2016-09-06T16:01:03Z</time>
      </trkpt>
      <trkpt lat="42.882922" lon="-5.3462353">
        <ele>2292.6</ele>
        <time>2016-09-06T16:01:05Z</time>
      </trkpt>
      <trkpt lat="42.8830068" lon="-5.345934">
        <ele>2293.3</ele>
        <time>2016-09-06T16:01:07Z</time>
      </trkpt>
      <trkpt lat="42.8831636" lon="-5.3456709">
        <ele>2293.6</ele>
        <time>2016-09-06T16:01:09Z</time>
      </trkpt>
      <trkpt lat="42.883384" lon="-5.3455256">
        <ele>2294.5</ele>
        <time>2016-09-06T16:01:11Z</time>
      </trkpt>
      <trkpt lat="42.8836061" lon="-5.3455245">
        <ele>2295.1</ele>
        <time>2016-09-06T16:01:13Z</time>
      </trkpt>
      <trkpt lat="42.8837484" lon="-5.3456524">
        <ele>2296.0</ele>
        <time>2016-09-06T16:01:15Z</time>
      </trkpt>
      <trkpt lat="42.8838163" lon="-5.3458356">
        <ele>2296.9</ele>
        <time>2016-09-06T16:01:17Z</time>
      </trkpt>
      <trkpt lat="42.8837873" lon="-5.346049">
        <ele>2298.3</ele>
        <time>2016-09-06T16:01:20Z</time>
      </trkpt>
      <trkpt lat="42.8836274" lon="-5.3459879">
        <ele>2302.6</ele>
        <time>2016-09-06T16:01:23Z</time>
      </trkpt>
      <trkpt lat="42.8835723" lon="-5.3457729">
        <ele>2306.2</ele>
        <time>2016-09-06T16:01:25Z</time>
      </trkpt>
      <trkpt lat="42.8836086" lon="-5.3454799">
        <ele>2308.8</ele>
        <time>2016-09-06T16:01:27Z</time>
      </trkpt>
      <trkpt lat="42.883763" lon="-5.3452273">
        <ele>2312.1</ele>
        <time>2016-09-06T16:01:29Z</time>
      </trkpt>
      <trkpt lat="42.883978" lon="-5.3451055">
        <ele>2315.2</ele>
        <time>2016-09-06T16:01:31Z</time>
      </trkpt>
      <trkpt lat="42.8842946" lon="-5.3452158">
        <ele>2321.2</ele>
        <time>2016-09-06T16:01:34Z</time>
      </trkpt>
      <trkpt lat="42.8844057" lon="-5.3454175">
        <ele>2324.1</ele>
        <time>2016-09-06T16:01:36Z</time>
      </trkpt>
      <trkpt lat="42.8844327" lon="-5.3456094">
        <ele>2327.4</ele>
        <time>2016-09-06T16:01:38Z</time>
      </trkpt>
      <trkpt lat="42.8845122" lon="-5.3458283">
        <ele>2333.1</ele>
        <time>2016-09-06T16:01:41Z</time>
      </trkpt>
      <trkpt lat="42.8843517" lon="-5.3458446">
        <ele>2337.6</ele>
        <time>2016-09-06T16:01:46Z</time>
      </trkpt>
      <trkpt lat="42.8842748" lon="-5.3456456">
        <ele>2340.9</ele>
        <time>2016-09-06T16:01:48Z</time>
      </trkpt>
      <trkpt lat="42.8843123" lon="-5.3453329">
        <ele>2344.1</ele>
        <time>2016-09-06T16:01:50Z</time>
      </trkpt>
      <trkpt lat="42.8843632" lon="-5.3451611">
        <ele>2346.6</ele>
        <time>2016-09-06T16:01:51Z</time>
      </trkpt>
      <trkpt lat="42.8844474" lon="-5.3450159">
        <ele>2347.8</ele>
        <time>2016-09-06T16:01:52Z</time>
      </trkpt>
      <trkpt lat="42.8845584" lon="-5.3448967">
        <ele>2348.7</ele>
        <time>2016-09-06T16:01:53Z</time>
      </trkpt>
      <trkpt lat="42.8848011" lon="-5.3447481">
        <ele>2350.1</ele>
        <time>2016-09-06T16:01:55Z</time>
      </trkpt>
      <trkpt lat="42.885113" lon="-5.3448475">
        <ele>2353.0</ele>
        <time>2016-09-06T16:01:58Z</time>
      </trkpt>
      <trkpt lat="42.8852189" lon="-5.3450158">
        <ele>2357.5</ele>
        <time>2016-09-06T16:02:00Z</time>
      </trkpt>
      <trkpt lat="42.8850824" lon="-5.3451127">
        <ele>2366.0</ele>
        <time>2016-09-06T16:02:05Z</time>
      </trkpt>
      <trkpt lat="42.8850752" lon="-5.3452781">
        <ele>2371.4</ele>
        <time>2016-09-06T16:02:09Z</time>
      </trkpt>
      <trkpt lat="42.8852395" lon="-5.345405">
        <ele>2373.1</ele>
        <time>2016-09-06T16:02:11Z</time>
      </trkpt>
      <trkpt lat="42.8854981" lon="-5.3453816">
        <ele>2373.6</ele>
        <time>2016-09-06T16:02:13Z</time>
      </trkpt>
      <trkpt lat="42.885738" lon="-5.345207">
        <ele>2374.3</ele>
        <time>2016-09-06T16:02:15Z</time>
      </trkpt>
      <trkpt lat="42.8858305" lon="-5.3450642">
        <ele>2374.4</ele>
        <time>2016-09-06T16:02:16Z</time>
      </trkpt>
      <trkpt lat="42.8859064" lon="-5.3448972">
        <ele>2374.8</ele>
        <time>2016-09-06T16:02:17Z</time>
      </trkpt>
      <trkpt lat="42.8859703" lon="-5.3447051">
        <ele>2375.2</ele>
        <time>2016-09-06T16:02:18Z</time>
      </trkpt>
      <trkpt lat="42.886018" lon="-5.344351">
        <ele>2376.4</ele>
        <time>2016-09-06T16:02:20Z</time>
      </trkpt>
      <trkpt lat="42.8860077" lon="-5.3440291">
        <ele>2377.1</ele>
        <time>2016-09-06T16:02:22Z</time>
      </trkpt>
      <trkpt lat="42.8860002" lon="-5.3437433">
        <ele>2377.4</ele>
        <time>2016-09-06T16:02:24Z</time>
      </trkpt>
      <trkpt lat="42.8860268" lon="-5.3434746">
        <ele>2377.6</ele>
        <time>2016-09-06T16:02:26Z</time>
      </trkpt>
      <trkpt lat="42.8860427" lon="-5.3431681">
        <ele>2377.8</ele>
        <time>2016-09-06T16:02:28Z</time>
      </trkpt>
      <trkpt lat="42.8860384" lon="-5.342865">
        <ele>2378.3</ele>
        <time>2016-09-06T16:02:30Z</time>
      </trkpt>
      <trkpt lat="42.8859218" lon="-5.3427103">
        <ele>2379.0</ele>
        <time>2016-09-06T16:02:32Z</time>
      </trkpt>
      <trkpt lat="42.8857978" lon="-5.3427148">
        <ele>2379.7</ele>
        <time>2016-09-06T16:02:34Z</time>
      </trkpt>
      <trkpt lat="42.8857567" lon="-5.3428337">
        <ele>2380.2</ele>
        <time>2016-09-06T16:02:36Z</time>
      </trkpt>
      <trkpt lat="42.8858613" lon="-5.3430805">
        <ele>2381.3</ele>
        <time>2016-09-06T16:02:39Z</time>
      </trkpt>
      <trkpt lat="42.8860508" lon="-5.3431908">
        <ele>2382.0</ele>
        <time>2016-09-06T16:02:41Z</time>
      </trkpt>
      <trkpt lat="42.8862988" lon="-5.343179">
        <ele>2383.3</ele>
        <time>2016-09-06T16:02:43Z</time>
      </trkpt>
      <trkpt lat="42.8865342" lon="-5.3430096">
        <ele>2384.0</ele>
        <time>2016-09-06T16:02:45Z</time>
      </trkpt>
      <trkpt lat="42.8866469" lon="-5.342894">
        <ele>2384.9</ele>
        <time>2016-09-06T16:02:46Z</time>
      </trkpt>
      <trkpt lat="42.8867455" lon="-5.3427579">
        <ele>2385.4</ele>
        <time>2016-09-06T16:02:47Z</time>
      </trkpt>
      <trkpt lat="42.8868431" lon="-5.3424548">
        <ele>2385.9</ele>
        <time>2016-09-06T16:02:49Z</time>
      </trkpt>
      <trkpt lat="42.8868393" lon="-5.3421516">
        <ele>2386.3</ele>
        <time>2016-09-06T16:02:51Z</time>
      </trkpt>
      <trkpt lat="42.8867779" lon="-5.3419712">
        <ele>2387.3</ele>
        <time>2016-09-06T16:02:53Z</time>
      </trkpt>
      <trkpt lat="42.8866963" lon="-5.3418203">
        <ele>2388.3</ele>
        <time>2016-09-06T16:02:55Z</time>
      </trkpt>
      <trkpt lat="42.8866144" lon="-5.3416031">
        <ele>2389.0</ele>
        <time>2016-09-06T16:02:57Z</time>
      </trkpt>
      <trkpt lat="42.8865436" lon="-5.3413912">
        <ele>2391.1</ele>
        <time>2016-09-06T16:02:59Z</time>
      </trkpt>
      <trkpt lat="42.8864975" lon="-5.3412052">
        <ele>2394.1</ele>
        <time>2016-09-06T16:03:01Z</time>
      </trkpt>
      <trkpt lat="42.8864545" lon="-5.3409962">
        <ele>2396.4</ele>
        <time>2016-09-06T16:03:03Z</time>
      </trkpt>
      <trkpt lat="42.8863934" lon="-5.3408026">
        <ele>2401.2</ele>
        <time>2016-09-06T16:03:05Z</time>
      </trkpt>
      <trkpt lat="42.8862922" lon="-5.3406802">
        <ele>2406.4</ele>
        <time>2016-09-06T16:03:07Z</time>
      </trkpt>
      <trkpt lat="42.8861401" lon="-5.3406629">
        <ele>2411.8</ele>
        <time>2016-09-06T16:03:11Z</time>
      </trkpt>
      <trkpt lat="42.886063" lon="-5.3408353">
        <ele>2419.3</ele>
        <time>2016-09-06T16:03:15Z</time>
      </trkpt>
      <trkpt lat="42.8860622" lon="-5.3410313">
        <ele>2424.2</ele>
        <time>2016-09-06T16:03:18Z</time>
      </trkpt>
      <trkpt lat="42.8860392" lon="-5.3412519">
        <ele>2427.8</ele>
        <time>2016-09-06T16:03:21Z</time>
      </trkpt>
      <trkpt lat="42.886048" lon="-5.3414614">
        <ele>2432.7</ele>
        <time>2016-09-06T16:03:24Z</time>
      </trkpt>
      <trkpt lat="42.8860709" lon="-5.3417235">
        <ele>2435.9</ele>
        <time>2016-09-06T16:03:28Z</time>
      </trkpt>
      <trkpt lat="42.8861467" lon="-5.3419675">
        <ele>2436.9</ele>
        <time>2016-09-06T16:03:31Z</time>
      </trkpt>
      <trkpt lat="42.8861396" lon="-5.3421544">
        <ele>2437.7</ele>
        <time>2016-09-06T16:03:34Z</time>
      </trkpt>
      <trkpt lat="42.8860353" lon="-5.3423355">
        <ele>2439.5</ele>
        <time>2016-09-06T16:03:38Z</time>
      </trkpt>
      <trkpt lat="42.885854" lon="-5.3423687">
        <ele>2440.1</ele>
        <time>2016-09-06T16:03:42Z</time>
      </trkpt>
      <trkpt lat="42.8856522" lon="-5.342345">
        <ele>2440.1</ele>
        <time>2016-09-06T16:03:45Z</time>
      </trkpt>
      <trkpt lat="42.885514" lon="-5.3422124">
        <ele>2440.1</ele>
        <time>2016-09-06T16:03:47Z</time>
      </trkpt>
      <trkpt lat="42.8853539" lon="-5.342069">
        <ele>2440.1</ele>
        <time>2016-09-06T16:03:50Z</time>
      </trkpt>
      <trkpt lat="42.8852353" lon="-5.3419214">
        <ele>2440.1</ele>
        <time>2016-09-06T16:03:52Z</time>
      </trkpt>
      <trkpt lat="42.8851134" lon="-5.3417638">
        <ele>2440.1</ele>
        <time>2016-09-06T16:03:54Z</time>
      </trkpt>
      <trkpt lat="42.8850025" lon="-5.3415865">
        <ele>2440.1</ele>
        <time>2016-09-06T16:03:56Z</time>
      </trkpt>
      <trkpt lat="42.8848768" lon="-5.3413951">
        <ele>2439.8</ele>
        <time>2016-09-06T16:03:58Z</time>
      </trkpt>
      <trkpt lat="42.8847746" lon="-5.3411899">
        <ele>2438.9</ele>
        <time>2016-09-06T16:04:00Z</time>
      </trkpt>
      <trkpt lat="42.8846781" lon="-5.3409912">
        <ele>2438.1</ele>
        <time>2016-09-06T16:04:02Z</time>
      </trkpt>
      <trkpt lat="42.8845711" lon="-5.3407866">
        <ele>2437.5</ele>
        <time>2016-09-06T16:04:04Z</time>
      </trkpt>
      <trkpt lat="42.8844547" lon="-5.3405669">
        <ele>2436.8</ele>
        <time>2016-09-06T16:04:06Z</time>
      </trkpt>
      <trkpt lat="42.8843564" lon="-5.3403681">
        <ele>2436.1</ele>
        <time>2016-09-06T16:04:08Z</time>
      </trkpt>
      <trkpt lat="42.8842654" lon="-5.3401668">
        <ele>2435.5</ele>
        <time>2016-09-06T16:04:10Z</time>
      </trkpt>
      <trkpt lat="42.8841851" lon="-5.3399527">
        <ele>2433.4</ele>
        <time>2016-09-06T16:04:12Z</time>
      </trkpt>
      <trkpt lat="42.8841097" lon="-5.3397483">
        <ele>2429.0</ele>
        <time>2016-09-06T16:04:14Z</time>
      </trkpt>
      <trkpt lat="42.8840292" lon="-5.3395472">
        <ele>2425.8</ele>
        <time>2016-09-06T16:04:16Z</time>
      </trkpt>
      <trkpt lat="42.8839392" lon="-5.3393103">
        <ele>2423.9</ele>
        <time>2016-09-06T16:04:18Z</time>
      </trkpt>
      <trkpt lat="42.8838477" lon="-5.3390665">
        <ele>2423.1</ele>
        <time>2016-09-06T16:04:20Z</time>
      </trkpt>
      <trkpt lat="42.8837523" lon="-5.33881">
        <ele>2421.4</ele>
        <time>2016-09-06T16:04:22Z</time>
      </trkpt>
      <trkpt lat="42.8836504" lon="-5.3385661">
        <ele>2419.4</ele>
        <time>2016-09-06T16:04:24Z</time>
      </trkpt>
      <trkpt lat="42.8835544" lon="-5.3383325">
        <ele>2416.8</ele>
        <time>2016-09-06T16:04:26Z</time>
      </trkpt>
      <trkpt lat="42.8834821" lon="-5.3380865">
        <ele>2414.5</ele>
        <time>2016-09-06T16:04:28Z</time>
      </trkpt>
      <trkpt lat="42.8833955" lon="-5.337849">
        <ele>2412.5</ele>
        <time>2016-09-06T16:04:30Z</time>
      </trkpt>
      <trkpt lat="42.8833055" lon="-5.3376138">
        <ele>2411.8</ele>
        <time>2016-09-06T16:04:32Z</time>
      </trkpt>
      <trkpt lat="42.8832122" lon="-5.337398">
        <ele>2407.7</ele>
        <time>2016-09-06T16:04:34Z</time>
      </trkpt>
      <trkpt lat="42.8830985" lon="-5.3371902">
        <ele>2403.3</ele>
        <time>2016-09-06T16:04:36Z</time>
      </trkpt>
      <trkpt lat="42.8829926" lon="-5.3369875">
        <ele>2401.5</ele>
        <time>2016-09-06T16:04:38Z</time>
      </trkpt>
      <trkpt lat="42.8828882" lon="-5.3367692">
        <ele>2399.2</ele>
        <time>2016-09-06T16:04:40Z</time>
      </trkpt>
      <trkpt lat="42.8827455" lon="-5.3365561">
        <ele>2395.7</ele>
        <time>2016-09-06T16:04:42Z</time>
      </trkpt>
      <trkpt lat="42.8826286" lon="-5.336353">
        <ele>2392.7</ele>
        <time>2016-09-06T16:04:44Z</time>
      </trkpt>
      <trkpt lat="42.8825362" lon="-5.3361609">
        <ele>2388.5</ele>
        <time>2016-09-06T16:04:46Z</time>
      </trkpt>
      <trkpt lat="42.882431" lon="-5.3359701">
        <ele>2384.9</ele>
        <time>2016-09-06T16:04:48Z</time>
      </trkpt>
      <trkpt lat="42.8823233" lon="-5.3357916">
        <ele>2379.7</ele>
        <time>2016-09-06T16:04:50Z</time>
      </trkpt>
      <trkpt lat="42.8822171" lon="-5.3355898">
        <ele>2375.3</ele>
        <time>2016-09-06T16:04:52Z</time>
      </trkpt>
      <trkpt lat="42.8821258" lon="-5.3354145">
        <ele>2371.2</ele>
        <time>2016-09-06T16:04:54Z</time>
      </trkpt>
      <trkpt lat="42.8820344" lon="-5.3352147">
        <ele>2369.1</ele>
        <time>2016-09-06T16:04:56Z</time>
      </trkpt>
      <trkpt lat="42.8819368" lon="-5.3349994">
        <ele>2367.2</ele>
        <time>2016-09-06T16:04:58Z</time>
      </trkpt>
      <trkpt lat="42.8818327" lon="-5.3347777">
        <ele>2362.6</ele>
        <time>2016-09-06T16:05:00Z</time>
      </trkpt>
      <trkpt lat="42.8817352" lon="-5.3345725">
        <ele>2358.3</ele>
        <time>2016-09-06T16:05:02Z</time>
      </trkpt>
      <trkpt lat="42.8816608" lon="-5.3343682">
        <ele>2353.0</ele>
        <time>2016-09-06T16:05:04Z</time>
      </trkpt>
      <trkpt lat="42.8815849" lon="-5.3341392">
        <ele>2350.0</ele>
        <time>2016-09-06T16:05:06Z</time>
      </trkpt>
      <trkpt lat="42.8814917" lon="-5.3339312">
        <ele>2346.9</ele>
        <time>2016-09-06T16:05:08Z</time>
      </trkpt>
      <trkpt lat="42.8813868" lon="-5.3337163">
        <ele>2344.9</ele>
        <time>2016-09-06T16:05:10Z</time>
      </trkpt>
      <trkpt lat="42.8812903" lon="-5.3335153">
        <ele>2342.8</ele>
        <time>2016-09-06T16:05:12Z</time>
      </trkpt>
      <trkpt lat="42.8811907" lon="-5.3333351">
        <ele>2340.6</ele>
        <time>2016-09-06T16:05:14Z</time>
      </trkpt>
      <trkpt lat="42.8811107" lon="-5.3331485">
        <ele>2337.7</ele>
        <time>2016-09-06T16:05:16Z</time>
      </trkpt>
      <trkpt lat="42.8810268" lon="-5.3329152">
        <ele>2336.4</ele>
        <time>2016-09-06T16:05:18Z</time>
      </trkpt>
      <trkpt lat="42.8809183" lon="-5.3326738">
        <ele>2334.8</ele>
        <time>2016-09-06T16:05:20Z</time>
      </trkpt>
      <trkpt lat="42.8808207" lon="-5.3324386">
        <ele>2333.5</ele>
        <time>2016-09-06T16:05:22Z</time>
      </trkpt>
      <trkpt lat="42.8807556" lon="-5.3322355">
        <ele>2332.7</ele>
        <time>2016-09-06T16:05:24Z</time>
      </trkpt>
      <trkpt lat="42.8806935" lon="-5.3320117">
        <ele>2330.4</ele>
        <time>2016-09-06T16:05:26Z</time>
      </trkpt>
      <trkpt lat="42.880626" lon="-5.331766">
        <ele>2327.0</ele>
        <time>2016-09-06T16:05:28Z</time>
      </trkpt>
      <trkpt lat="42.8805559" lon="-5.3315438">
        <ele>2325.0</ele>
        <time>2016-09-06T16:05:30Z</time>
      </trkpt>
      <trkpt lat="42.8804785" lon="-5.3313013">
        <ele>2322.8</ele>
        <time>2016-09-06T16:05:32Z</time>
      </trkpt>
      <trkpt lat="42.8803937" lon="-5.3310584">
        <ele>2320.7</ele>
        <time>2016-09-06T16:05:34Z</time>
      </trkpt>
      <trkpt lat="42.8802923" lon="-5.3308331">
        <ele>2317.0</ele>
        <time>2016-09-06T16:05:36Z</time>
      </trkpt>
      <trkpt lat="42.8801823" lon="-5.3306275">
        <ele>2313.0</ele>
        <time>2016-09-06T16:05:38Z</time>
      </trkpt>
      <trkpt lat="42.8800716" lon="-5.3304481">
        <ele>2309.0</ele>
        <time>2016-09-06T16:05:40Z</time>
      </trkpt>
      <trkpt lat="42.8799576" lon="-5.3302872">
        <ele>2304.6</ele>
        <time>2016-09-06T16:05:42Z</time>
      </trkpt>
      <trkpt lat="42.8798874" lon="-5.3300927">
        <ele>2299.4</ele>
        <time>2016-09-06T16:05:44Z</time>
      </trkpt>
      <trkpt lat="42.8798121" lon="-5.3298484">
        <ele>2295.4</ele>
        <time>2016-09-06T16:05:46Z</time>
      </trkpt>
      <trkpt lat="42.8797321" lon="-5.3295921">
        <ele>2291.2</ele>
        <time>2016-09-06T16:05:48Z</time>
      </trkpt>
      <trkpt lat="42.8796715" lon="-5.3293213">
        <ele>2286.5</ele>
        <time>2016-09-06T16:05:50Z</time>
      </trkpt>
      <trkpt lat="42.8796092" lon="-5.3290496">
        <ele>2284.3</ele>
        <time>2016-09-06T16:05:52Z</time>
      </trkpt>
      <trkpt lat="42.8795165" lon="-5.3287936">
        <ele>2282.9</ele>
        <time>2016-09-06T16:05:54Z</time>
      </trkpt>
      <trkpt lat="42.8794322" lon="-5.3285596">
        <ele>2281.0</ele>
        <time>2016-09-06T16:05:56Z</time>
      </trkpt>
      <trkpt lat="42.8793649" lon="-5.3283343">
        <ele>2277.8</ele>
        <time>2016-09-06T16:05:58Z</time>
      </trkpt>
      <trkpt lat="42.8792843" lon="-5.3280757">
        <ele>2274.6</ele>
        <time>2016-09-06T16:06:00Z</time>
      </trkpt>
      <trkpt lat="42.8792185" lon="-5.3278298">
        <ele>2272.2</ele>
        <time>2016-09-06T16:06:03Z</time>
      </trkpt>
      <trkpt lat="42.8791578" lon="-5.3275912">
        <ele>2268.0</ele>
        <time>2016-09-06T16:06:05Z</time>
      </trkpt>
      <trkpt lat="42.8790855" lon="-5.3273488">
        <ele>2266.5</ele>
        <time>2016-09-06T16:06:07Z</time>
      </trkpt>
      <trkpt lat="42.8790077" lon="-5.3271093">
        <ele>2262.3</ele>
        <time>2016-09-06T16:06:09Z</time>
      </trkpt>
      <trkpt lat="42.8789338" lon="-5.3268748">
        <ele>2258.9</ele>
        <time>2016-09-06T16:06:11Z</time>
      </trkpt>
      <trkpt lat="42.8788466" lon="-5.3266493">
        <ele>2256.4</ele>
        <time>2016-09-06T16:06:13Z</time>
      </trkpt>
      <trkpt lat="42.8787424" lon="-5.3264382">
        <ele>2254.8</ele>
        <time>2016-09-06T16:06:15Z</time>
      </trkpt>
      <trkpt lat="42.8786371" lon="-5.326225">
        <ele>2250.9</ele>
        <time>2016-09-06T16:06:17Z</time>
      </trkpt>
      <trkpt lat="42.8785431" lon="-5.325998">
        <ele>2247.1</ele>
        <time>2016-09-06T16:06:19Z</time>
      </trkpt>
      <trkpt lat="42.8784486" lon="-5.3257669">
        <ele>2244.3</ele>
        <time>2016-09-06T16:06:21Z</time>
      </trkpt>
      <trkpt lat="42.8783572" lon="-5.3255524">
        <ele>2240.9</ele>
        <time>2016-09-06T16:06:23Z</time>
      </trkpt>
      <trkpt lat="42.8782591" lon="-5.3253487">
        <ele>2237.6</ele>
        <time>2016-09-06T16:06:25Z</time>
      </trkpt>
      <trkpt lat="42.8781553" lon="-5.3251468">
        <ele>2235.7</ele>
        <time>2016-09-06T16:06:27Z</time>
      </trkpt>
      <trkpt lat="42.8780405" lon="-5.3249507">
        <ele>2233.0</ele>
        <time>2016-09-06T16:06:29Z</time>
      </trkpt>
      <trkpt lat="42.8779346" lon="-5.3247661">
        <ele>2230.1</ele>
        <time>2016-09-06T16:06:31Z</time>
      </trkpt>
      <trkpt lat="42.8778296" lon="-5.3245935">
        <ele>2227.9</ele>
        <time>2016-09-06T16:06:33Z</time>
      </trkpt>
      <trkpt lat="42.8777199" lon="-5.3244025">
        <ele>2226.3</ele>
        <time>2016-09-06T16:06:35Z</time>
      </trkpt>
      <trkpt lat="42.8776014" lon="-5.3241902">
        <ele>2223.6</ele>
        <time>2016-09-06T16:06:37Z</time>
      </trkpt>
      <trkpt lat="42.8775003" lon="-5.3240087">
        <ele>2219.9</ele>
        <time>2016-09-06T16:06:39Z</time>
      </trkpt>
      <trkpt lat="42.8773896" lon="-5.3238155">
        <ele>2217.6</ele>
        <time>2016-09-06T16:06:41Z</time>
      </trkpt>
      <trkpt lat="42.8772627" lon="-5.323618">
        <ele>2214.2</ele>
        <time>2016-09-06T16:06:43Z</time>
      </trkpt>
      <trkpt lat="42.8771331" lon="-5.3234439">
        <ele>2211.5</ele>
        <time>2016-09-06T16:06:45Z</time>
      </trkpt>
      <trkpt lat="42.8769928" lon="-5.3232902">
        <ele>2209.2</ele>
        <time>2016-09-06T16:06:47Z</time>
      </trkpt>
      <trkpt lat="42.8768497" lon="-5.323159">
        <ele>2206.0</ele>
        <time>2016-09-06T16:06:49Z</time>
      </trkpt>
      <trkpt lat="42.8767231" lon="-5.3230519">
        <ele>2201.6</ele>
        <time>2016-09-06T16:06:51Z</time>
      </trkpt>
      <trkpt lat="42.8765831" lon="-5.3229184">
        <ele>2198.5</ele>
        <time>2016-09-06T16:06:53Z</time>
      </trkpt>
      <trkpt lat="42.8764589" lon="-5.3227859">
        <ele>2195.1</ele>
        <time>2016-09-06T16:06:55Z</time>
      </trkpt>
      <trkpt lat="42.8763529" lon="-5.3226223">
        <ele>2191.6</ele>
        <time>2016-09-06T16:06:57Z</time>
      </trkpt>
      <trkpt lat="42.876257" lon="-5.3224467">
        <ele>2186.4</ele>
        <time>2016-09-06T16:06:59Z</time>
      </trkpt>
      <trkpt lat="42.8761499" lon="-5.3222747">
        <ele>2183.1</ele>
        <time>2016-09-06T16:07:01Z</time>
      </trkpt>
      <trkpt lat="42.8760372" lon="-5.3220887">
        <ele>2179.6</ele>
        <time>2016-09-06T16:07:03Z</time>
      </trkpt>
      <trkpt lat="42.8759327" lon="-5.3218769">
        <ele>2176.7</ele>
        <time>2016-09-06T16:07:05Z</time>
      </trkpt>
      <trkpt lat="42.8758375" lon="-5.3216606">
        <ele>2171.2</ele>
        <time>2016-09-06T16:07:07Z</time>
      </trkpt>
      <trkpt lat="42.8757351" lon="-5.321436">
        <ele>2168.3</ele>
        <time>2016-09-06T16:07:09Z</time>
      </trkpt>
      <trkpt lat="42.8756288" lon="-5.3212535">
        <ele>2165.9</ele>
        <time>2016-09-06T16:07:11Z</time>
      </trkpt>
      <trkpt lat="42.8755393" lon="-5.3210447">
        <ele>2163.2</ele>
        <time>2016-09-06T16:07:13Z</time>
      </trkpt>
      <trkpt lat="42.8754509" lon="-5.3208256">
        <ele>2160.4</ele>
        <time>2016-09-06T16:07:15Z</time>
      </trkpt>
      <trkpt lat="42.8753562" lon="-5.3205963">
        <ele>2157.0</ele>
        <time>2016-09-06T16:07:17Z</time>
      </trkpt>
      <trkpt lat="42.8752865" lon="-5.3203891">
        <ele>2154.6</ele>
        <time>2016-09-06T16:07:19Z</time>
      </trkpt>
      <trkpt lat="42.8752218" lon="-5.3201597">
        <ele>2152.3</ele>
        <time>2016-09-06T16:07:21Z</time>
      </trkpt>
      <trkpt lat="42.8751602" lon="-5.319926">
        <ele>2149.4</ele>
        <time>2016-09-06T16:07:23Z</time>
      </trkpt>
      <trkpt lat="42.8750796" lon="-5.3196841">
        <ele>2146.9</ele>
        <time>2016-09-06T16:07:25Z</time>
      </trkpt>
      <trkpt lat="42.8750177" lon="-5.319451">
        <ele>2144.4</ele>
        <time>2016-09-06T16:07:27Z</time>
      </trkpt>
      <trkpt lat="42.8749479" lon="-5.3191979">
        <ele>2142.6</ele>
        <time>2016-09-06T16:07:29Z</time>
      </trkpt>
      <trkpt lat="42.8748708" lon="-5.3189682">
        <ele>2140.7</ele>
        <time>2016-09-06T16:07:31Z</time>
      </trkpt>
      <trkpt lat="42.8747889" lon="-5.3187262">
        <ele>2139.2</ele>
        <time>2016-09-06T16:07:33Z</time>
      </trkpt>
      <trkpt lat="42.874699" lon="-5.3184942">
        <ele>2136.7</ele>
        <time>2016-09-06T16:07:35Z</time>
      </trkpt>
      <trkpt lat="42.8746154" lon="-5.3182754">
        <ele>2135.4</ele>
        <time>2016-09-06T16:07:37Z</time>
      </trkpt>
      <trkpt lat="42.8745103" lon="-5.3180628">
        <ele>2131.6</ele>
        <time>2016-09-06T16:07:39Z</time>
      </trkpt>
      <trkpt lat="42.874433" lon="-5.3178296">
        <ele>2127.6</ele>
        <time>2016-09-06T16:07:41Z</time>
      </trkpt>
      <trkpt lat="42.8743393" lon="-5.3176333">
        <ele>2124.7</ele>
        <time>2016-09-06T16:07:43Z</time>
      </trkpt>
      <trkpt lat="42.8742449" lon="-5.3174324">
        <ele>2120.2</ele>
        <time>2016-09-06T16:07:45Z</time>
      </trkpt>
      <trkpt lat="42.8741331" lon="-5.3172525">
        <ele>2116.4</ele>
        <time>2016-09-06T16:07:47Z</time>
      </trkpt>
      <trkpt lat="42.8740152" lon="-5.3170875">
        <ele>2114.1</ele>
        <time>2016-09-06T16:07:49Z</time>
      </trkpt>
      <trkpt lat="42.8739168" lon="-5.3169271">
        <ele>2111.4</ele>
        <time>2016-09-06T16:07:51Z</time>
      </trkpt>
      <trkpt lat="42.8738201" lon="-5.3167438">
        <ele>2108.4</ele>
        <time>2016-09-06T16:07:53Z</time>
      </trkpt>
      <trkpt lat="42.8737052" lon="-5.3165694">
        <ele>2106.0</ele>
        <time>2016-09-06T16:07:55Z</time>
      </trkpt>
      <trkpt lat="42.8736042" lon="-5.3163811">
        <ele>2103.4</ele>
        <time>2016-09-06T16:07:57Z</time>
      </trkpt>
      <trkpt lat="42.8735188" lon="-5.3161925">
        <ele>2102.1</ele>
        <time>2016-09-06T16:07:59Z</time>
      </trkpt>
      <trkpt lat="42.8734398" lon="-5.3159932">
        <ele>2099.5</ele>
        <time>2016-09-06T16:08:01Z</time>
      </trkpt>
      <trkpt lat="42.8733572" lon="-5.3157787">
        <ele>2097.3</ele>
        <time>2016-09-06T16:08:03Z</time>
      </trkpt>
      <trkpt lat="42.873283" lon="-5.3155622">
        <ele>2094.8</ele>
        <time>2016-09-06T16:08:05Z</time>
      </trkpt>
      <trkpt lat="42.8732106" lon="-5.3153541">
        <ele>2092.5</ele>
        <time>2016-09-06T16:08:07Z</time>
      </trkpt>
      <trkpt lat="42.8731267" lon="-5.3151434">
        <ele>2090.6</ele>
        <time>2016-09-06T16:08:09Z</time>
      </trkpt>
      <trkpt lat="42.8730412" lon="-5.3149267">
        <ele>2088.8</ele>
        <time>2016-09-06T16:08:11Z</time>
      </trkpt>
      <trkpt lat="42.8729599" lon="-5.314712">
        <ele>2086.5</ele>
        <time>2016-09-06T16:08:13Z</time>
      </trkpt>
      <trkpt lat="42.8728687" lon="-5.3145184">
        <ele>2085.2</ele>
        <time>2016-09-06T16:08:15Z</time>
      </trkpt>
      <trkpt lat="42.8727928" lon="-5.3143181">
        <ele>2082.4</ele>
        <time>2016-09-06T16:08:17Z</time>
      </trkpt>
      <trkpt lat="42.8726933" lon="-5.3141107">
        <ele>2079.6</ele>
        <time>2016-09-06T16:08:19Z</time>
      </trkpt>
      <trkpt lat="42.8726016" lon="-5.313911">
        <ele>2077.3</ele>
        <time>2016-09-06T16:08:21Z</time>
      </trkpt>
      <trkpt lat="42.8725193" lon="-5.3137096">
        <ele>2075.3</ele>
        <time>2016-09-06T16:08:23Z</time>
      </trkpt>
      <trkpt lat="42.872431" lon="-5.3135002">
        <ele>2072.4</ele>
        <time>2016-09-06T16:08:25Z</time>
      </trkpt>
      <trkpt lat="42.8723469" lon="-5.3132986">
        <ele>2069.9</ele>
        <time>2016-09-06T16:08:27Z</time>
      </trkpt>
      <trkpt lat="42.8722525" lon="-5.3130954">
        <ele>2068.3</ele>
        <time>2016-09-06T16:08:29Z</time>
      </trkpt>
      <trkpt lat="42.8721559" lon="-5.3128984">
        <ele>2066.7</ele>
        <time>2016-09-06T16:08:31Z</time>
      </trkpt>
      <trkpt lat="42.8720543" lon="-5.312716">
        <ele>2064.7</ele>
        <time>2016-09-06T16:08:33Z</time>
      </trkpt>
      <trkpt lat="42.8719663" lon="-5.3125153">
        <ele>2062.7</ele>
        <time>2016-09-06T16:08:35Z</time>
      </trkpt>
      <trkpt lat="42.8718881" lon="-5.3123036">
        <ele>2060.6</ele>
        <time>2016-09-06T16:08:37Z</time>
      </trkpt>
      <trkpt lat="42.8718138" lon="-5.3120923">
        <ele>2058.4</ele>
        <time>2016-09-06T16:08:39Z</time>
      </trkpt>
      <trkpt lat="42.8717354" lon="-5.3118812">
        <ele>2055.9</ele>
        <time>2016-09-06T16:08:41Z</time>
      </trkpt>
      <trkpt lat="42.8716573" lon="-5.311679">
        <ele>2054.0</ele>
        <time>2016-09-06T16:08:43Z</time>
      </trkpt>
      <trkpt lat="42.8715751" lon="-5.311459">
        <ele>2051.6</ele>
        <time>2016-09-06T16:08:45Z</time>
      </trkpt>
      <trkpt lat="42.871498" lon="-5.311237">
        <ele>2049.9</ele>
        <time>2016-09-06T16:08:47Z</time>
      </trkpt>
      <trkpt lat="42.8714437" lon="-5.3110279">
        <ele>2046.9</ele>
        <time>2016-09-06T16:08:49Z</time>
      </trkpt>
      <trkpt lat="42.8714027" lon="-5.3108236">
        <ele>2044.7</ele>
        <time>2016-09-06T16:08:51Z</time>
      </trkpt>
      <trkpt lat="42.8713339" lon="-5.3105925">
        <ele>2042.3</ele>
        <time>2016-09-06T16:08:53Z</time>
      </trkpt>
      <trkpt lat="42.8712683" lon="-5.3103682">
        <ele>2040.8</ele>
        <time>2016-09-06T16:08:55Z</time>
      </trkpt>
      <trkpt lat="42.8712034" lon="-5.3101318">
        <ele>2038.9</ele>
        <time>2016-09-06T16:08:57Z</time>
      </trkpt>
      <trkpt lat="42.8711361" lon="-5.3098949">
        <ele>2036.4</ele>
        <time>2016-09-06T16:08:59Z</time>
      </trkpt>
      <trkpt lat="42.8710761" lon="-5.3096629">
        <ele>2033.8</ele>
        <time>2016-09-06T16:09:01Z</time>
      </trkpt>
      <trkpt lat="42.8710289" lon="-5.3094433">
        <ele>2031.2</ele>
        <time>2016-09-06T16:09:03Z</time>
      </trkpt>
      <trkpt lat="42.8709739" lon="-5.3092329">
        <ele>2028.2</ele>
        <time>2016-09-06T16:09:05Z</time>
      </trkpt>
      <trkpt lat="42.8709048" lon="-5.3089889">
        <ele>2025.6</ele>
        <time>2016-09-06T16:09:07Z</time>
      </trkpt>
      <trkpt lat="42.8708404" lon="-5.3087612">
        <ele>2022.9</ele>
        <time>2016-09-06T16:09:09Z</time>
      </trkpt>
      <trkpt lat="42.8707855" lon="-5.3085265">
        <ele>2020.7</ele>
        <time>2016-09-06T16:09:11Z</time>
      </trkpt>
      <trkpt lat="42.8707207" lon="-5.3083095">
        <ele>2017.1</ele>
        <time>2016-09-06T16:09:13Z</time>
      </trkpt>
      <trkpt lat="42.8706273" lon="-5.3081185">
        <ele>2013.8</ele>
        <time>2016-09-06T16:09:15Z</time>
      </trkpt>
      <trkpt lat="42.8705352" lon="-5.3079248">
        <ele>2010.6</ele>
        <time>2016-09-06T16:09:17Z</time>
      </trkpt>
      <trkpt lat="42.8704323" lon="-5.3077285">
        <ele>2008.8</ele>
        <time>2016-09-06T16:09:19Z</time>
      </trkpt>
      <trkpt lat="42.8703407" lon="-5.3075188">
        <ele>2006.0</ele>
        <time>2016-09-06T16:09:21Z</time>
      </trkpt>
      <trkpt lat="42.8702751" lon="-5.3073068">
        <ele>2003.1</ele>
        <time>2016-09-06T16:09:23Z</time>
      </trkpt>
      <trkpt lat="42.870183" lon="-5.3070953">
        <ele>2001.1</ele>
        <time>2016-09-06T16:09:25Z</time>
      </trkpt>
      <trkpt lat="42.8700973" lon="-5.3068684">
        <ele>1999.4</ele>
        <time>2016-09-06T16:09:27Z</time>
      </trkpt>
      <trkpt lat="42.8700094" lon="-5.306666">
        <ele>1997.3</ele>
        <time>2016-09-06T16:09:29Z</time>
      </trkpt>
      <trkpt lat="42.8699369" lon="-5.3064675">
        <ele>1995.8</ele>
        <time>2016-09-06T16:09:31Z</time>
      </trkpt>
      <trkpt lat="42.8698626" lon="-5.3062569">
        <ele>1994.3</ele>
        <time>2016-09-06T16:09:33Z</time>
      </trkpt>
      <trkpt lat="42.8697841" lon="-5.3060453">
        <ele>1992.6</ele>
        <time>2016-09-06T16:09:35Z</time>
      </trkpt>
      <trkpt lat="42.8697064" lon="-5.3058346">
        <ele>1990.5</ele>
        <time>2016-09-06T16:09:37Z</time>
      </trkpt>
      <trkpt lat="42.8696199" lon="-5.3056277">
        <ele>1988.8</ele>
        <time>2016-09-06T16:09:39Z</time>
      </trkpt>
      <trkpt lat="42.8695162" lon="-5.3054451">
        <ele>1987.7</ele>
        <time>2016-09-06T16:09:41Z</time>
      </trkpt>
      <trkpt lat="42.8694169" lon="-5.305255">
        <ele>1986.8</ele>
        <time>2016-09-06T16:09:43Z</time>
      </trkpt>
      <trkpt lat="42.869329" lon="-5.3050738">
        <ele>1984.9</ele>
        <time>2016-09-06T16:09:45Z</time>
      </trkpt>
      <trkpt lat="42.8692295" lon="-5.3049044">
        <ele>1982.8</ele>
        <time>2016-09-06T16:09:47Z</time>
      </trkpt>
      <trkpt lat="42.8691276" lon="-5.3047597">
        <ele>1979.9</ele>
        <time>2016-09-06T16:09:49Z</time>
      </trkpt>
      <trkpt lat="42.869018" lon="-5.3046338">
        <ele>1977.5</ele>
        <time>2016-09-06T16:09:51Z</time>
      </trkpt>
      <trkpt lat="42.8689002" lon="-5.3045007">
        <ele>1975.4</ele>
        <time>2016-09-06T16:09:53Z</time>
      </trkpt>
      <trkpt lat="42.8687909" lon="-5.3043795">
        <ele>1973.6</ele>
        <time>2016-09-06T16:09:55Z</time>
      </trkpt>
      <trkpt lat="42.8686904" lon="-5.3042474">
        <ele>1971.4</ele>
        <time>2016-09-06T16:09:57Z</time>
      </trkpt>
      <trkpt lat="42.8685829" lon="-5.3040947">
        <ele>1969.3</ele>
        <time>2016-09-06T16:09:59Z</time>
      </trkpt>
      <trkpt lat="42.8684835" lon="-5.3039454">
        <ele>1967.5</ele>
        <time>2016-09-06T16:10:01Z</time>
      </trkpt>
      <trkpt lat="42.8683895" lon="-5.3037798">
        <ele>1965.8</ele>
        <time>2016-09-06T16:10:03Z</time>
      </trkpt>
      <trkpt lat="42.8682992" lon="-5.3036255">
        <ele>1963.3</ele>
        <time>2016-09-06T16:10:05Z</time>
      </trkpt>
      <trkpt lat="42.8682146" lon="-5.3034379">
        <ele>1961.5</ele>
        <time>2016-09-06T16:10:07Z</time>
      </trkpt>
      <trkpt lat="42.8681361" lon="-5.3032668">
        <ele>1959.9</ele>
        <time>2016-09-06T16:10:09Z</time>
      </trkpt>
      <trkpt lat="42.8680455" lon="-5.3031028">
        <ele>1957.5</ele>
        <time>2016-09-06T16:10:11Z</time>
      </trkpt>
      <trkpt lat="42.8679496" lon="-5.3029571">
        <ele>1955.7</ele>
        <time>2016-09-06T16:10:13Z</time>
      </trkpt>
      <trkpt lat="42.8678617" lon="-5.3027994">
        <ele>1953.5</ele>
        <time>2016-09-06T16:10:15Z</time>
      </trkpt>
      <trkpt lat="42.867768" lon="-5.3026507">
        <ele>1951.1</ele>
        <time>2016-09-06T16:10:17Z</time>
      </trkpt>
      <trkpt lat="42.8676904" lon="-5.302486">
        <ele>1947.2</ele>
        <time>2016-09-06T16:10:19Z</time>
      </trkpt>
      <trkpt lat="42.8675896" lon="-5.302347">
        <ele>1943.4</ele>
        <time>2016-09-06T16:10:21Z</time>
      </trkpt>
      <trkpt lat="42.8674914" lon="-5.3022134">
        <ele>1939.3</ele>
        <time>2016-09-06T16:10:23Z</time>
      </trkpt>
      <trkpt lat="42.8673886" lon="-5.3020845">
        <ele>1935.7</ele>
        <time>2016-09-06T16:10:25Z</time>
      </trkpt>
      <trkpt lat="42.8672287" lon="-5.3019252">
        <ele>1931.7</ele>
        <time>2016-09-06T16:10:28Z</time>
      </trkpt>
      <trkpt lat="42.8670796" lon="-5.3017595">
        <ele>1924.4</ele>
        <time>2016-09-06T16:10:31Z</time>
      </trkpt>
      <trkpt lat="42.8669521" lon="-5.3015669">
        <ele>1920.1</ele>
        <time>2016-09-06T16:10:34Z</time>
      </trkpt>
      <trkpt lat="42.8668704" lon="-5.30139">
        <ele>1916.5</ele>
        <time>2016-09-06T16:10:36Z</time>
      </trkpt>
      <trkpt lat="42.8667969" lon="-5.3012046">
        <ele>1912.6</ele>
        <time>2016-09-06T16:10:38Z</time>
      </trkpt>
      <trkpt lat="42.86673" lon="-5.3010346">
        <ele>1907.1</ele>
        <time>2016-09-06T16:10:40Z</time>
      </trkpt>
      <trkpt lat="42.8666637" lon="-5.3008511">
        <ele>1903.2</ele>
        <time>2016-09-06T16:10:42Z</time>
      </trkpt>
      <trkpt lat="42.8666276" lon="-5.3006732">
        <ele>1900.4</ele>
        <time>2016-09-06T16:10:44Z</time>
      </trkpt>
      <trkpt lat="42.866572" lon="-5.3004691">
        <ele>1896.3</ele>
        <time>2016-09-06T16:10:46Z</time>
      </trkpt>
      <trkpt lat="42.8665115" lon="-5.3002512">
        <ele>1894.0</ele>
        <time>2016-09-06T16:10:48Z</time>
      </trkpt>
      <trkpt lat="42.8664488" lon="-5.3000003">
        <ele>1890.7</ele>
        <time>2016-09-06T16:10:50Z</time>
      </trkpt>
      <trkpt lat="42.8664054" lon="-5.2997526">
        <ele>1886.7</ele>
        <time>2016-09-06T16:10:52Z</time>
      </trkpt>
      <trkpt lat="42.8663636" lon="-5.2995589">
        <ele>1883.5</ele>
        <time>2016-09-06T16:10:54Z</time>
      </trkpt>
      <trkpt lat="42.8663034" lon="-5.2993412">
        <ele>1880.4</ele>
        <time>2016-09-06T16:10:56Z</time>
      </trkpt>
      <trkpt lat="42.8662553" lon="-5.2991347">
        <ele>1875.4</ele>
        <time>2016-09-06T16:10:58Z</time>
      </trkpt>
      <trkpt lat="42.866237" lon="-5.2989314">
        <ele>1870.9</ele>
        <time>2016-09-06T16:11:00Z</time>
      </trkpt>
      <trkpt lat="42.8661995" lon="-5.2987124">
        <ele>1868.4</ele>
        <time>2016-09-06T16:11:02Z</time>
      </trkpt>
      <trkpt lat="42.8661539" lon="-5.2984942">
        <ele>1864.6</ele>
        <time>2016-09-06T16:11:04Z</time>
      </trkpt>
      <trkpt lat="42.8661049" lon="-5.2982662">
        <ele>1861.2</ele>
        <time>2016-09-06T16:11:06Z</time>
      </trkpt>
      <trkpt lat="42.8660504" lon="-5.2980567">
        <ele>1857.7</ele>
        <time>2016-09-06T16:11:08Z</time>
      </trkpt>
      <trkpt lat="42.8659904" lon="-5.2978063">
        <ele>1855.5</ele>
        <time>2016-09-06T16:11:10Z</time>
      </trkpt>
      <trkpt lat="42.8659207" lon="-5.2975856">
        <ele>1853.0</ele>
        <time>2016-09-06T16:11:12Z</time>
      </trkpt>
      <trkpt lat="42.8658386" lon="-5.2974055">
        <ele>1851.4</ele>
        <time>2016-09-06T16:11:14Z</time>
      </trkpt>
      <trkpt lat="42.865751" lon="-5.2971929">
        <ele>1848.8</ele>
        <time>2016-09-06T16:11:16Z</time>
      </trkpt>
      <trkpt lat="42.865669" lon="-5.2970086">
        <ele>1845.4</ele>
        <time>2016-09-06T16:11:18Z</time>
      </trkpt>
      <trkpt lat="42.8655987" lon="-5.2967821">
        <ele>1841.3</ele>
        <time>2016-09-06T16:11:20Z</time>
      </trkpt>
      <trkpt lat="42.8655447" lon="-5.2965477">
        <ele>1838.9</ele>
        <time>2016-09-06T16:11:22Z</time>
      </trkpt>
      <trkpt lat="42.8654906" lon="-5.2962999">
        <ele>1836.7</ele>
        <time>2016-09-06T16:11:24Z</time>
      </trkpt>
      <trkpt lat="42.8654438" lon="-5.2960485">
        <ele>1835.2</ele>
        <time>2016-09-06T16:11:26Z</time>
      </trkpt>
      <trkpt lat="42.8654023" lon="-5.2958051">
        <ele>1834.7</ele>
        <time>2016-09-06T16:11:28Z</time>
      </trkpt>
      <trkpt lat="42.8653654" lon="-5.2955505">
        <ele>1832.5</ele>
        <time>2016-09-06T16:11:30Z</time>
      </trkpt>
      <trkpt lat="42.8653272" lon="-5.2952918">
        <ele>1830.4</ele>
        <time>2016-09-06T16:11:32Z</time>
      </trkpt>
      <trkpt lat="42.8652923" lon="-5.295025">
        <ele>1828.2</ele>
        <time>2016-09-06T16:11:34Z</time>
      </trkpt>
      <trkpt lat="42.8652552" lon="-5.2947451">
        <ele>1825.8</ele>
        <time>2016-09-06T16:11:36Z</time>
      </trkpt>
      <trkpt lat="42.8652158" lon="-5.2944724">
        <ele>1823.7</ele>
        <time>2016-09-06T16:11:38Z</time>
      </trkpt>
      <trkpt lat="42.8651775" lon="-5.2942103">
        <ele>1821.0</ele>
        <time>2016-09-06T16:11:40Z</time>
      </trkpt>
      <trkpt lat="42.8651068" lon="-5.2939573">
        <ele>1817.5</ele>
        <time>2016-09-06T16:11:42Z</time>
      </trkpt>
      <trkpt lat="42.865052" lon="-5.2936966">
        <ele>1814.7</ele>
        <time>2016-09-06T16:11:44Z</time>
      </trkpt>
      <trkpt lat="42.8650148" lon="-5.2934264">
        <ele>1811.7</ele>
        <time>2016-09-06T16:11:46Z</time>
      </trkpt>
      <trkpt lat="42.864996" lon="-5.2931797">
        <ele>1809.4</ele>
        <time>2016-09-06T16:11:48Z</time>
      </trkpt>
      <trkpt lat="42.8649797" lon="-5.2929249">
        <ele>1806.7</ele>
        <time>2016-09-06T16:11:50Z</time>
      </trkpt>
      <trkpt lat="42.8649399" lon="-5.292662">
        <ele>1804.6</ele>
        <time>2016-09-06T16:11:52Z</time>
      </trkpt>
      <trkpt lat="42.8648843" lon="-5.2924084">
        <ele>1802.3</ele>
        <time>2016-09-06T16:11:54Z</time>
      </trkpt>
      <trkpt lat="42.8648347" lon="-5.2921608">
        <ele>1800.1</ele>
        <time>2016-09-06T16:11:56Z</time>
      </trkpt>
      <trkpt lat="42.8647731" lon="-5.2919095">
        <ele>1798.2</ele>
        <time>2016-09-06T16:11:58Z</time>
      </trkpt>
      <trkpt lat="42.8647058" lon="-5.2916531">
        <ele>1795.8</ele>
        <time>2016-09-06T16:12:00Z</time>
      </trkpt>
      <trkpt lat="42.8646362" lon="-5.2914396">
        <ele>1794.5</ele>
        <time>2016-09-06T16:12:02Z</time>
      </trkpt>
      <trkpt lat="42.8645757" lon="-5.2911919">
        <ele>1791.7</ele>
        <time>2016-09-06T16:12:04Z</time>
      </trkpt>
      <trkpt lat="42.8644953" lon="-5.2909118">
        <ele>1789.1</ele>
        <time>2016-09-06T16:12:06Z</time>
      </trkpt>
      <trkpt lat="42.8644348" lon="-5.2906516">
        <ele>1788.0</ele>
        <time>2016-09-06T16:12:08Z</time>
      </trkpt>
      <trkpt lat="42.8643645" lon="-5.2903915">
        <ele>1786.9</ele>
        <time>2016-09-06T16:12:10Z</time>
      </trkpt>
      <trkpt lat="42.8642906" lon="-5.2901438">
        <ele>1784.6</ele>
        <time>2016-09-06T16:12:12Z</time>
      </trkpt>
      <trkpt lat="42.8642205" lon="-5.2899043">
        <ele>1782.5</ele>
        <time>2016-09-06T16:12:14Z</time>
      </trkpt>
      <trkpt lat="42.8641781" lon="-5.2896402">
        <ele>1781.2</ele>
        <time>2016-09-06T16:12:16Z</time>
      </trkpt>
      <trkpt lat="42.8641338" lon="-5.2893674">
        <ele>1779.5</ele>
        <time>2016-09-06T16:12:18Z</time>
      </trkpt>
      <trkpt lat="42.8640876" lon="-5.2890861">
        <ele>1775.3</ele>
        <time>2016-09-06T16:12:20Z</time>
      </trkpt>
      <trkpt lat="42.8640358" lon="-5.288822">
        <ele>1770.1</ele>
        <time>2016-09-06T16:12:22Z</time>
      </trkpt>
      <trkpt lat="42.8639892" lon="-5.2885611">
        <ele>1767.5</ele>
        <time>2016-09-06T16:12:24Z</time>
      </trkpt>
      <trkpt lat="42.8639405" lon="-5.2883015">
        <ele>1765.6</ele>
        <time>2016-09-06T16:12:26Z</time>
      </trkpt>
      <trkpt lat="42.8638871" lon="-5.2880534">
        <ele>1761.1</ele>
        <time>2016-09-06T16:12:28Z</time>
      </trkpt>
      <trkpt lat="42.8638396" lon="-5.2878203">
        <ele>1757.8</ele>
        <time>2016-09-06T16:12:30Z</time>
      </trkpt>
      <trkpt lat="42.8637894" lon="-5.2875953">
        <ele>1754.6</ele>
        <time>2016-09-06T16:12:32Z</time>
      </trkpt>
      <trkpt lat="42.8638258" lon="-5.2873629">
        <ele>1749.4</ele>
        <time>2016-09-06T16:12:34Z</time>
      </trkpt>
      <trkpt lat="42.8639055" lon="-5.2870973">
        <ele>1745.0</ele>
        <time>2016-09-06T16:12:36Z</time>
      </trkpt>
      <trkpt lat="42.8639419" lon="-5.2868269">
        <ele>1740.8</ele>
        <time>2016-09-06T16:12:38Z</time>
      </trkpt>
      <trkpt lat="42.8638883" lon="-5.286597">
        <ele>1738.5</ele>
        <time>2016-09-06T16:12:40Z</time>
      </trkpt>
      <trkpt lat="42.8637594" lon="-5.2865066">
        <ele>1734.7</ele>
        <time>2016-09-06T16:12:43Z</time>
      </trkpt>
      <trkpt lat="42.8637017" lon="-5.2866102">
        <ele>1732.0</ele>
        <time>2016-09-06T16:12:45Z</time>
      </trkpt>
      <trkpt lat="42.8637207" lon="-5.2868152">
        <ele>1728.6</ele>
        <time>2016-09-06T16:12:47Z</time>
      </trkpt>
      <trkpt lat="42.8638747" lon="-5.286961">
        <ele>1725.3</ele>
        <time>2016-09-06T16:12:49Z</time>
      </trkpt>
      <trkpt lat="42.8640905" lon="-5.2870126">
        <ele>1723.7</ele>
        <time>2016-09-06T16:12:51Z</time>
      </trkpt>
      <trkpt lat="42.8642054" lon="-5.2869703">
        <ele>1722.1</ele>
        <time>2016-09-06T16:12:52Z</time>
      </trkpt>
      <trkpt lat="42.8643202" lon="-5.2868854">
        <ele>1722.1</ele>
        <time>2016-09-06T16:12:53Z</time>
      </trkpt>
      <trkpt lat="42.8644219" lon="-5.2867778">
        <ele>1722.1</ele>
        <time>2016-09-06T16:12:54Z</time>
      </trkpt>
      <trkpt lat="42.8645233" lon="-5.2866435">
        <ele>1722.1</ele>
        <time>2016-09-06T16:12:55Z</time>
      </trkpt>
      <trkpt lat="42.8646001" lon="-5.2865165">
        <ele>1722.1</ele>
        <time>2016-09-06T16:12:56Z</time>
      </trkpt>
      <trkpt lat="42.8647192" lon="-5.2862808">
        <ele>1721.7</ele>
        <time>2016-09-06T16:12:58Z</time>
      </trkpt>
      <trkpt lat="42.8648036" lon="-5.2860366">
        <ele>1721.4</ele>
        <time>2016-09-06T16:13:00Z</time>
      </trkpt>
      <trkpt lat="42.8648886" lon="-5.2857897">
        <ele>1721.2</ele>
        <time>2016-09-06T16:13:02Z</time>
      </trkpt>
      <trkpt lat="42.8649758" lon="-5.2855432">
        <ele>1721.0</ele>
        <time>2016-09-06T16:13:04Z</time>
      </trkpt>
      <trkpt lat="42.8650453" lon="-5.2852969">
        <ele>1720.4</ele>
        <time>2016-09-06T16:13:06Z</time>
      </trkpt>
      <trkpt lat="42.8650742" lon="-5.2850227">
        <ele>1719.9</ele>
        <time>2016-09-06T16:13:08Z</time>
      </trkpt>
      <trkpt lat="42.8651143" lon="-5.2847355">
        <ele>1719.1</ele>
        <time>2016-09-06T16:13:10Z</time>
      </trkpt>
      <trkpt lat="42.8651854" lon="-5.2844552">
        <ele>1718.9</ele>
        <time>2016-09-06T16:13:12Z</time>
      </trkpt>
      <trkpt lat="42.8652178" lon="-5.2842158">
        <ele>1718.9</ele>
        <time>2016-09-06T16:13:14Z</time>
      </trkpt>
      <trkpt lat="42.8651557" lon="-5.2839939">
        <ele>1718.8</ele>
        <time>2016-09-06T16:13:16Z</time>
      </trkpt>
      <trkpt lat="42.8650209" lon="-5.2838487">
        <ele>1718.8</ele>
        <time>2016-09-06T16:13:19Z</time>
      </trkpt>
      <trkpt lat="42.8649367" lon="-5.2838949">
        <ele>1718.8</ele>
        <time>2016-09-06T16:13:21Z</time>
      </trkpt>
      <trkpt lat="42.8649066" lon="-5.2841082">
        <ele>1719.3</ele>
        <time>2016-09-06T16:13:24Z</time>
      </trkpt>
      <trkpt lat="42.8649717" lon="-5.2842911">
        <ele>1719.8</ele>
        <time>2016-09-06T16:13:26Z</time>
      </trkpt>
      <trkpt lat="42.8651062" lon="-5.2844607">
        <ele>1720.0</ele>
        <time>2016-09-06T16:13:28Z</time>
      </trkpt>
      <trkpt lat="42.8652956" lon="-5.2845598">
        <ele>1720.3</ele>
        <time>2016-09-06T16:13:30Z</time>
      </trkpt>
      <trkpt lat="42.8654786" lon="-5.2846889">
        <ele>1720.3</ele>
        <time>2016-09-06T16:13:32Z</time>
      </trkpt>
      <trkpt lat="42.8655775" lon="-5.2848916">
        <ele>1720.3</ele>
        <time>2016-09-06T16:13:34Z</time>
      </trkpt>
      <trkpt lat="42.8655571" lon="-5.2851171">
        <ele>1720.1</ele>
        <time>2016-09-06T16:13:37Z</time>
      </trkpt>
      <trkpt lat="42.8654093" lon="-5.2851489">
        <ele>1720.1</ele>
        <time>2016-09-06T16:13:40Z</time>
      </trkpt>
      <trkpt lat="42.8653077" lon="-5.2850106">
        <ele>1720.0</ele>
        <time>2016-09-06T16:13:42Z</time>
      </trkpt>
      <trkpt lat="42.8652481" lon="-5.2848294">
        <ele>1719.9</ele>
        <time>2016-09-06T16:13:44Z</time>
      </trkpt>
      <trkpt lat="42.8652158" lon="-5.2846175">
        <ele>1719.9</ele>
        <time>2016-09-06T16:13:46Z</time>
      </trkpt>
      <trkpt lat="42.8651816" lon="-5.2843623">
        <ele>1719.9</ele>
        <time>2016-09-06T16:13:48Z</time>
      </trkpt>
      <trkpt lat="42.8651785" lon="-5.2840777">
        <ele>1719.9</ele>
        <time>2016-09-06T16:13:50Z</time>
      </trkpt>
      <trkpt lat="42.8652178" lon="-5.2838283">
        <ele>1720.0</ele>
        <time>2016-09-06T16:13:52Z</time>
      </trkpt>
      <trkpt lat="42.8652605" lon="-5.2835914">
        <ele>1720.0</ele>
        <time>2016-09-06T16:13:54Z</time>
      </trkpt>
      <trkpt lat="42.8653404" lon="-5.2833143">
        <ele>1720.2</ele>
        <time>2016-09-06T16:13:56Z</time>
      </trkpt>
      <trkpt lat="42.8654132" lon="-5.2830432">
        <ele>1720.3</ele>
        <time>2016-09-06T16:13:58Z</time>
      </trkpt>
      <trkpt lat="42.8654128" lon="-5.2828032">
        <ele>1720.4</ele>
        <time>2016-09-06T16:14:00Z</time>
      </trkpt>
      <trkpt lat="42.8653409" lon="-5.282619">
        <ele>1720.5</ele>
        <time>2016-09-06T16:14:02Z</time>
      </trkpt>
      <trkpt lat="42.8652233" lon="-5.2825172">
        <ele>1720.5</ele>
        <time>2016-09-06T16:14:04Z</time>
      </trkpt>
      <trkpt lat="42.8651298" lon="-5.2825603">
        <ele>1720.6</ele>
        <time>2016-09-06T16:14:06Z</time>
      </trkpt>
      <trkpt lat="42.8650957" lon="-5.2827812">
        <ele>1720.8</ele>
        <time>2016-09-06T16:14:09Z</time>
      </trkpt>
      <trkpt lat="42.8651804" lon="-5.2829868">
        <ele>1720.9</ele>
        <time>2016-09-06T16:14:11Z</time>
      </trkpt>
      <trkpt lat="42.8653533" lon="-5.2831382">
        <ele>1721.0</ele>
        <time>2016-09-06T16:14:13Z</time>
      </trkpt>
      <trkpt lat="42.8655888" lon="-5.2831426">
        <ele>1721.1</ele>
        <time>2016-09-06T16:14:15Z</time>
      </trkpt>
      <trkpt lat="42.8658018" lon="-5.2829833">
        <ele>1721.1</ele>
        <time>2016-09-06T16:14:17Z</time>
      </trkpt>
      <trkpt lat="42.8659294" lon="-5.2827128">
        <ele>1721.3</ele>
        <time>2016-09-06T16:14:19Z</time>
      </trkpt>
      <trkpt lat="42.8659772" lon="-5.2824371">
        <ele>1721.9</ele>
        <time>2016-09-06T16:14:21Z</time>
      </trkpt>
      <trkpt lat="42.8659985" lon="-5.2821844">
        <ele>1723.4</ele>
        <time>2016-09-06T16:14:23Z</time>
      </trkpt>
      <trkpt lat="42.8659902" lon="-5.2819559">
        <ele>1724.2</ele>
        <time>2016-09-06T16:14:25Z</time>
      </trkpt>
      <trkpt lat="42.865936" lon="-5.2817085">
        <ele>1724.6</ele>
        <time>2016-09-06T16:14:27Z</time>
      </trkpt>
      <trkpt lat="42.865885" lon="-5.2814532">
        <ele>1725.4</ele>
        <time>2016-09-06T16:14:29Z</time>
      </trkpt>
      <trkpt lat="42.8658441" lon="-5.2812602">
        <ele>1726.0</ele>
        <time>2016-09-06T16:14:31Z</time>
      </trkpt>
      <trkpt lat="42.8657833" lon="-5.2810831">
        <ele>1726.3</ele>
        <time>2016-09-06T16:14:33Z</time>
      </trkpt>
      <trkpt lat="42.8656914" lon="-5.2808869">
        <ele>1726.4</ele>
        <time>2016-09-06T16:14:35Z</time>
      </trkpt>
      <trkpt lat="42.8655461" lon="-5.2807838">
        <ele>1726.4</ele>
        <time>2016-09-06T16:14:38Z</time>
      </trkpt>
      <trkpt lat="42.8654303" lon="-5.2807669">
        <ele>1726.4</ele>
        <time>2016-09-06T16:14:41Z</time>
      </trkpt>
      <trkpt lat="42.8653774" lon="-5.2808951">
        <ele>1726.4</ele>
        <time>2016-09-06T16:14:43Z</time>
      </trkpt>
      <trkpt lat="42.865407" lon="-5.2811776">
        <ele>1726.4</ele>
        <time>2016-09-06T16:14:46Z</time>
      </trkpt>
      <trkpt lat="42.8654994" lon="-5.2813858">
        <ele>1726.4</ele>
        <time>2016-09-06T16:14:48Z</time>
      </trkpt>
      <trkpt lat="42.8656646" lon="-5.2815497">
        <ele>1726.4</ele>
        <time>2016-09-06T16:14:50Z</time>
      </trkpt>
      <trkpt lat="42.8658739" lon="-5.2816542">
        <ele>1726.4</ele>
        <time>2016-09-06T16:14:52Z</time>
      </trkpt>
      <trkpt lat="42.8660794" lon="-5.2817635">
        <ele>1726.4</ele>
        <time>2016-09-06T16:14:54Z</time>
      </trkpt>
      <trkpt lat="42.8662166" lon="-5.2819747">
        <ele>1726.4</ele>
        <time>2016-09-06T16:14:56Z</time>
      </trkpt>
      <trkpt lat="42.8662447" lon="-5.2821991">
        <ele>1726.4</ele>
        <time>2016-09-06T16:14:58Z</time>
      </trkpt>
      <trkpt lat="42.8661384" lon="-5.2823468">
        <ele>1726.2</ele>
        <time>2016-09-06T16:15:01Z</time>
      </trkpt>
      <trkpt lat="42.8659973" lon="-5.2821762">
        <ele>1722.3</ele>
        <time>2016-09-06T16:15:04Z</time>
      </trkpt>
      <trkpt lat="42.8659462" lon="-5.2819668">
        <ele>1718.8</ele>
        <time>2016-09-06T16:15:06Z</time>
      </trkpt>
      <trkpt lat="42.8658952" lon="-5.2816868">
        <ele>1715.9</ele>
        <time>2016-09-06T16:15:09Z</time>
      </trkpt>
      <trkpt lat="42.8658694" lon="-5.2814555">
        <ele>1715.1</ele>
        <time>2016-09-06T16:15:10Z</time>
      </trkpt>
      <trkpt lat="42.8658383" lon="-5.2812426">
        <ele>1714.1</ele>
        <time>2016-09-06T16:15:12Z</time>
      </trkpt>
      <trkpt lat="42.8658034" lon="-5.2810002">
        <ele>1710.5</ele>
        <time>2016-09-06T16:15:14Z</time>
      </trkpt>
      <trkpt lat="42.865787" lon="-5.28075">
        <ele>1709.2</ele>
        <time>2016-09-06T16:15:16Z</time>
      </trkpt>
      <trkpt lat="42.8657573" lon="-5.2805048">
        <ele>1706.4</ele>
        <time>2016-09-06T16:15:18Z</time>
      </trkpt>
      <trkpt lat="42.8657212" lon="-5.2802836">
        <ele>1703.7</ele>
        <time>2016-09-06T16:15:20Z</time>
      </trkpt>
      <trkpt lat="42.8656817" lon="-5.2800491">
        <ele>1701.7</ele>
        <time>2016-09-06T16:15:22Z</time>
      </trkpt>
      <trkpt lat="42.8656502" lon="-5.2798073">
        <ele>1700.2</ele>
        <time>2016-09-06T16:15:24Z</time>
      </trkpt>
      <trkpt lat="42.8656244" lon="-5.2795814">
        <ele>1696.5</ele>
        <time>2016-09-06T16:15:26Z</time>
      </trkpt>
      <trkpt lat="42.8656175" lon="-5.279333">
        <ele>1693.2</ele>
        <time>2016-09-06T16:15:28Z</time>
      </trkpt>
      <trkpt lat="42.8656028" lon="-5.2790732">
        <ele>1690.9</ele>
        <time>2016-09-06T16:15:30Z</time>
      </trkpt>
      <trkpt lat="42.865602" lon="-5.2787915">
        <ele>1687.8</ele>
        <time>2016-09-06T16:15:32Z</time>
      </trkpt>
      <trkpt lat="42.8656057" lon="-5.2785381">
        <ele>1685.5</ele>
        <time>2016-09-06T16:15:34Z</time>
      </trkpt>
      <trkpt lat="42.8656098" lon="-5.2782508">
        <ele>1684.3</ele>
        <time>2016-09-06T16:15:36Z</time>
      </trkpt>
      <trkpt lat="42.8656227" lon="-5.2779467">
        <ele>1682.4</ele>
        <time>2016-09-06T16:15:38Z</time>
      </trkpt>
      <trkpt lat="42.8656297" lon="-5.2776735">
        <ele>1679.5</ele>
        <time>2016-09-06T16:15:40Z</time>
      </trkpt>
      <trkpt lat="42.8656216" lon="-5.2774048">
        <ele>1678.1</ele>
        <time>2016-09-06T16:15:42Z</time>
      </trkpt>
      <trkpt lat="42.8655783" lon="-5.2771644">
        <ele>1676.4</ele>
        <time>2016-09-06T16:15:44Z</time>
      </trkpt>
      <trkpt lat="42.8655403" lon="-5.2769456">
        <ele>1674.8</ele>
        <time>2016-09-06T16:15:46Z</time>
      </trkpt>
      <trkpt lat="42.8654994" lon="-5.2767242">
        <ele>1672.8</ele>
        <time>2016-09-06T16:15:48Z</time>
      </trkpt>
      <trkpt lat="42.865424" lon="-5.2765214">
        <ele>1671.6</ele>
        <time>2016-09-06T16:15:50Z</time>
      </trkpt>
      <trkpt lat="42.8653306" lon="-5.2763578">
        <ele>1670.8</ele>
        <time>2016-09-06T16:15:52Z</time>
      </trkpt>
      <trkpt lat="42.865228" lon="-5.2762247">
        <ele>1668.9</ele>
        <time>2016-09-06T16:15:54Z</time>
      </trkpt>
      <trkpt lat="42.8651209" lon="-5.2761037">
        <ele>1666.9</ele>
        <time>2016-09-06T16:15:56Z</time>
      </trkpt>
      <trkpt lat="42.8650293" lon="-5.2759475">
        <ele>1664.9</ele>
        <time>2016-09-06T16:15:58Z</time>
      </trkpt>
      <trkpt lat="42.8649302" lon="-5.2757041">
        <ele>1662.5</ele>
        <time>2016-09-06T16:16:01Z</time>
      </trkpt>
      <trkpt lat="42.8648965" lon="-5.275458">
        <ele>1659.2</ele>
        <time>2016-09-06T16:16:03Z</time>
      </trkpt>
      <trkpt lat="42.8648834" lon="-5.2751912">
        <ele>1656.3</ele>
        <time>2016-09-06T16:16:05Z</time>
      </trkpt>
      <trkpt lat="42.8648941" lon="-5.2749022">
        <ele>1654.2</ele>
        <time>2016-09-06T16:16:07Z</time>
      </trkpt>
      <trkpt lat="42.8649039" lon="-5.2746229">
        <ele>1650.5</ele>
        <time>2016-09-06T16:16:09Z</time>
      </trkpt>
      <trkpt lat="42.8649127" lon="-5.2743275">
        <ele>1648.8</ele>
        <time>2016-09-06T16:16:11Z</time>
      </trkpt>
      <trkpt lat="42.8649272" lon="-5.2740284">
        <ele>1646.1</ele>
        <time>2016-09-06T16:16:13Z</time>
      </trkpt>
      <trkpt lat="42.864956" lon="-5.2737306">
        <ele>1641.8</ele>
        <time>2016-09-06T16:16:15Z</time>
      </trkpt>
      <trkpt lat="42.8649766" lon="-5.2734135">
        <ele>1639.8</ele>
        <time>2016-09-06T16:16:17Z</time>
      </trkpt>
      <trkpt lat="42.8650057" lon="-5.2731092">
        <ele>1636.5</ele>
        <time>2016-09-06T16:16:19Z</time>
      </trkpt>
      <trkpt lat="42.8650231" lon="-5.2728164">
        <ele>1632.1</ele>
        <time>2016-09-06T16:16:21Z</time>
      </trkpt>
      <trkpt lat="42.8650372" lon="-5.2725022">
        <ele>1628.4</ele>
        <time>2016-09-06T16:16:23Z</time>
      </trkpt>
      <trkpt lat="42.8650405" lon="-5.2722021">
        <ele>1625.7</ele>
        <time>2016-09-06T16:16:25Z</time>
      </trkpt>
      <trkpt lat="42.8650346" lon="-5.2718963">
        <ele>1622.0</ele>
        <time>2016-09-06T16:16:27Z</time>
      </trkpt>
      <trkpt lat="42.8650411" lon="-5.27158">
        <ele>1619.2</ele>
        <time>2016-09-06T16:16:29Z</time>
      </trkpt>
      <trkpt lat="42.865055" lon="-5.2712797">
        <ele>1616.2</ele>
        <time>2016-09-06T16:16:31Z</time>
      </trkpt>
      <trkpt lat="42.8650708" lon="-5.2709967">
        <ele>1613.3</ele>
        <time>2016-09-06T16:16:33Z</time>
      </trkpt>
      <trkpt lat="42.8650716" lon="-5.2707151">
        <ele>1609.7</ele>
        <time>2016-09-06T16:16:35Z</time>
      </trkpt>
      <trkpt lat="42.8650382" lon="-5.2704271">
        <ele>1606.6</ele>
        <time>2016-09-06T16:16:37Z</time>
      </trkpt>
      <trkpt lat="42.8649837" lon="-5.2701292">
        <ele>1605.1</ele>
        <time>2016-09-06T16:16:39Z</time>
      </trkpt>
      <trkpt lat="42.8649321" lon="-5.2698573">
        <ele>1602.0</ele>
        <time>2016-09-06T16:16:41Z</time>
      </trkpt>
      <trkpt lat="42.8649164" lon="-5.2695917">
        <ele>1598.7</ele>
        <time>2016-09-06T16:16:43Z</time>
      </trkpt>
      <trkpt lat="42.8648623" lon="-5.2693319">
        <ele>1595.7</ele>
        <time>2016-09-06T16:16:45Z</time>
      </trkpt>
      <trkpt lat="42.8647904" lon="-5.2690696">
        <ele>1592.5</ele>
        <time>2016-09-06T16:16:47Z</time>
      </trkpt>
      <trkpt lat="42.8647162" lon="-5.2688347">
        <ele>1589.9</ele>
        <time>2016-09-06T16:16:49Z</time>
      </trkpt>
      <trkpt lat="42.8646142" lon="-5.2686141">
        <ele>1587.5</ele>
        <time>2016-09-06T16:16:51Z</time>
      </trkpt>
      <trkpt lat="42.8645012" lon="-5.2684752">
        <ele>1583.6</ele>
        <time>2016-09-06T16:16:53Z</time>
      </trkpt>
      <trkpt lat="42.8643273" lon="-5.2684353">
        <ele>1579.5</ele>
        <time>2016-09-06T16:16:56Z</time>
      </trkpt>
      <trkpt lat="42.8642342" lon="-5.2684985">
        <ele>1576.2</ele>
        <time>2016-09-06T16:16:58Z</time>
      </trkpt>
      <trkpt lat="42.8640715" lon="-5.2685759">
        <ele>1571.9</ele>
        <time>2016-09-06T16:17:02Z</time>
      </trkpt>
      <trkpt lat="42.8639624" lon="-5.2685735">
        <ele>1570.2</ele>
        <time>2016-09-06T16:17:04Z</time>
      </trkpt>
      <trkpt lat="42.8638607" lon="-5.2685822">
        <ele>1568.4</ele>
        <time>2016-09-06T16:17:06Z</time>
      </trkpt>
      <trkpt lat="42.8637779" lon="-5.2685798">
        <ele>1565.7</ele>
        <time>2016-09-06T16:17:08Z</time>
      </trkpt>
      <trkpt lat="42.8637216" lon="-5.2685738">
        <ele>1565.7</ele>
        <time>2016-09-06T16:17:09Z</time>
      </trkpt>
      <trkpt lat="42.8636581" lon="-5.2685497">
        <ele>1565.7</ele>
        <time>2016-09-06T16:17:10Z</time>
      </trkpt>
      <trkpt lat="42.8635908" lon="-5.2685125">
        <ele>1565.7</ele>
        <time>2016-09-06T16:17:11Z</time>
      </trkpt>
      <trkpt lat="42.8635214" lon="-5.2684669">
        <ele>1565.7</ele>
        <time>2016-09-06T16:17:12Z</time>
      </trkpt>
      <trkpt lat="42.8633845" lon="-5.2683231">
        <ele>1564.8</ele>
        <time>2016-09-06T16:17:15Z</time>
      </trkpt>
      <trkpt lat="42.8632527" lon="-5.2682095">
        <ele>1564.5</ele>
        <time>2016-09-06T16:17:17Z</time>
      </trkpt>
      <trkpt lat="42.8631418" lon="-5.2680675">
        <ele>1562.3</ele>
        <time>2016-09-06T16:17:19Z</time>
      </trkpt>
      <trkpt lat="42.8630544" lon="-5.2679045">
        <ele>1560.7</ele>
        <time>2016-09-06T16:17:21Z</time>
      </trkpt>
      <trkpt lat="42.8629576" lon="-5.2677136">
        <ele>1558.2</ele>
        <time>2016-09-06T16:17:23Z</time>
      </trkpt>
      <trkpt lat="42.8628624" lon="-5.2674777">
        <ele>1556.0</ele>
        <time>2016-09-06T16:17:25Z</time>
      </trkpt>
      <trkpt lat="42.86277" lon="-5.267232">
        <ele>1554.5</ele>
        <time>2016-09-06T16:17:27Z</time>
      </trkpt>
      <trkpt lat="42.8626645" lon="-5.2670472">
        <ele>1551.8</ele>
        <time>2016-09-06T16:17:29Z</time>
      </trkpt>
      <trkpt lat="42.8625527" lon="-5.2668656">
        <ele>1549.6</ele>
        <time>2016-09-06T16:17:31Z</time>
      </trkpt>
      <trkpt lat="42.8624294" lon="-5.2667572">
        <ele>1548.2</ele>
        <time>2016-09-06T16:17:33Z</time>
      </trkpt>
      <trkpt lat="42.8620712" lon="-5.2665955">
        <ele>1545.4</ele>
        <time>2016-09-06T16:17:38Z</time>
      </trkpt>
      <trkpt lat="42.8618947" lon="-5.2665497">
        <ele>1541.4</ele>
        <time>2016-09-06T16:17:41Z</time>
      </trkpt>
      <trkpt lat="42.8617828" lon="-5.2665267">
        <ele>1537.2</ele>
        <time>2016-09-06T16:17:43Z</time>
      </trkpt>
      <trkpt lat="42.8616605" lon="-5.2665147">
        <ele>1535.0</ele>
        <time>2016-09-06T16:17:45Z</time>
      </trkpt>
      <trkpt lat="42.8615339" lon="-5.2664909">
        <ele>1531.4</ele>
        <time>2016-09-06T16:17:47Z</time>
      </trkpt>
      <trkpt lat="42.8614143" lon="-5.2664724">
        <ele>1528.6</ele>
        <time>2016-09-06T16:17:49Z</time>
      </trkpt>
      <trkpt lat="42.8612484" lon="-5.2664461">
        <ele>1526.8</ele>
        <time>2016-09-06T16:17:52Z</time>
      </trkpt>
      <trkpt lat="42.8611396" lon="-5.266444">
        <ele>1523.4</ele>
        <time>2016-09-06T16:17:54Z</time>
      </trkpt>
      <trkpt lat="42.8609827" lon="-5.2664202">
        <ele>1519.1</ele>
        <time>2016-09-06T16:17:57Z</time>
      </trkpt>
      <trkpt lat="42.8608111" lon="-5.2663452">
        <ele>1512.3</ele>
        <time>2016-09-06T16:18:00Z</time>
      </trkpt>
      <trkpt lat="42.8606221" lon="-5.2662715">
        <ele>1512.3</ele>
        <time>2016-09-06T16:18:03Z</time>
      </trkpt>
      <trkpt lat="42.8603094" lon="-5.2661074">
        <ele>1504.7</ele>
        <time>2016-09-06T16:18:08Z</time>
      </trkpt>
      <trkpt lat="42.8602044" lon="-5.2660189">
        <ele>1502.1</ele>
        <time>2016-09-06T16:18:10Z</time>
      </trkpt>
      <trkpt lat="42.8600791" lon="-5.2659342">
        <ele>1500.4</ele>
        <time>2016-09-06T16:18:12Z</time>
      </trkpt>
      <trkpt lat="42.8599474" lon="-5.2658541">
        <ele>1498.7</ele>
        <time>2016-09-06T16:18:14Z</time>
      </trkpt>
      <trkpt lat="42.8598022" lon="-5.2658254">
        <ele>1496.2</ele>
        <time>2016-09-06T16:18:16Z</time>
      </trkpt>
      <trkpt lat="42.8596422" lon="-5.2657547">
        <ele>1492.8</ele>
        <time>2016-09-06T16:18:19Z</time>
      </trkpt>
      <trkpt lat="42.8594439" lon="-5.2656822">
        <ele>1490.2</ele>
        <time>2016-09-06T16:18:22Z</time>
      </trkpt>
      <trkpt lat="42.8592406" lon="-5.2656185">
        <ele>1486.4</ele>
        <time>2016-09-06T16:18:25Z</time>
      </trkpt>
      <trkpt lat="42.8591137" lon="-5.2655943">
        <ele>1483.3</ele>
        <time>2016-09-06T16:18:27Z</time>
      </trkpt>
      <trkpt lat="42.8589127" lon="-5.2655686">
        <ele>1480.9</ele>
        <time>2016-09-06T16:18:30Z</time>
      </trkpt>
      <trkpt lat="42.8587915" lon="-5.2655534">
        <ele>1478.2</ele>
        <time>2016-09-06T16:18:33Z</time>
      </trkpt>
      <trkpt lat="42.8586041" lon="-5.2655298">
        <ele>1474.5</ele>
        <time>2016-09-06T16:18:36Z</time>
      </trkpt>
      <trkpt lat="42.8584611" lon="-5.26553">
        <ele>1473.4</ele>
        <time>2016-09-06T16:18:38Z</time>
      </trkpt>
      <trkpt lat="42.8581105" lon="-5.2654994">
        <ele>1468.9</ele>
        <time>2016-09-06T16:18:43Z</time>
      </trkpt>
      <trkpt lat="42.8579799" lon="-5.2655131">
        <ele>1465.3</ele>
        <time>2016-09-06T16:18:45Z</time>
      </trkpt>
      <trkpt lat="42.8578463" lon="-5.2655007">
        <ele>1461.9</ele>
        <time>2016-09-06T16:18:47Z</time>
      </trkpt>
      <trkpt lat="42.8577838" lon="-5.2654854">
        <ele>1461.9</ele>
        <time>2016-09-06T16:18:48Z</time>
      </trkpt>
      <trkpt lat="42.8575957" lon="-5.2654423">
        <ele>1461.9</ele>
        <time>2016-09-06T16:18:51Z</time>
      </trkpt>
      <trkpt lat="42.8573418" lon="-5.2653454">
        <ele>1458.2</ele>
        <time>2016-09-06T16:18:55Z</time>
      </trkpt>
      <trkpt lat="42.8572263" lon="-5.2653172">
        <ele>1456.4</ele>
        <time>2016-09-06T16:18:57Z</time>
      </trkpt>
      <trkpt lat="42.8571004" lon="-5.2652934">
        <ele>1454.8</ele>
        <time>2016-09-06T16:18:59Z</time>
      </trkpt>
      <trkpt lat="42.8569145" lon="-5.2651833">
        <ele>1451.9</ele>
        <time>2016-09-06T16:19:02Z</time>
      </trkpt>
      <trkpt lat="42.8567415" lon="-5.2651209">
        <ele>1449.7</ele>
        <time>2016-09-06T16:19:05Z</time>
      </trkpt>
      <trkpt lat="42.8565554" lon="-5.265057">
        <ele>1444.7</ele>
        <time>2016-09-06T16:19:08Z</time>
      </trkpt>
      <trkpt lat="42.8564488" lon="-5.2649993">
        <ele>1443.0</ele>
        <time>2016-09-06T16:19:10Z</time>
      </trkpt>
      <trkpt lat="42.8563198" lon="-5.264962">
        <ele>1442.2</ele>
        <time>2016-09-06T16:19:12Z</time>
      </trkpt>
      <trkpt lat="42.8561702" lon="-5.2648961">
        <ele>1439.3</ele>
        <time>2016-09-06T16:19:14Z</time>
      </trkpt>
      <trkpt lat="42.8560082" lon="-5.2648164">
        <ele>1439.3</ele>
        <time>2016-09-06T16:19:16Z</time>
      </trkpt>
      <trkpt lat="42.8558463" lon="-5.264736">
        <ele>1438.9</ele>
        <time>2016-09-06T16:19:18Z</time>
      </trkpt>
      <trkpt lat="42.855716" lon="-5.2646798">
        <ele>1436.0</ele>
        <time>2016-09-06T16:19:20Z</time>
      </trkpt>
      <trkpt lat="42.855611" lon="-5.264595">
        <ele>1436.0</ele>
        <time>2016-09-06T16:19:22Z</time>
      </trkpt>
      <trkpt lat="42.8554757" lon="-5.2645134">
        <ele>1435.8</ele>
        <time>2016-09-06T16:19:24Z</time>
      </trkpt>
      <trkpt lat="42.8553165" lon="-5.2644467">
        <ele>1431.1</ele>
        <time>2016-09-06T16:19:26Z</time>
      </trkpt>
      <trkpt lat="42.8552466" lon="-5.2643981">
        <ele>1431.1</ele>
        <time>2016-09-06T16:19:27Z</time>
      </trkpt>
      <trkpt lat="42.8551765" lon="-5.264338">
        <ele>1431.1</ele>
        <time>2016-09-06T16:19:28Z</time>
      </trkpt>
      <trkpt lat="42.8551162" lon="-5.2642877">
        <ele>1431.1</ele>
        <time>2016-09-06T16:19:29Z</time>
      </trkpt>
      <trkpt lat="42.8550595" lon="-5.2642437">
        <ele>1431.1</ele>
        <time>2016-09-06T16:19:30Z</time>
      </trkpt>
      <trkpt lat="42.8549397" lon="-5.2641582">
        <ele>1430.4</ele>
        <time>2016-09-06T16:19:32Z</time>
      </trkpt>
      <trkpt lat="42.854836" lon="-5.2640714">
        <ele>1427.1</ele>
        <time>2016-09-06T16:19:34Z</time>
      </trkpt>
      <trkpt lat="42.854718" lon="-5.2639916">
        <ele>1424.8</ele>
        <time>2016-09-06T16:19:36Z</time>
      </trkpt>
      <trkpt lat="42.8544461" lon="-5.2638669">
        <ele>1421.6</ele>
        <time>2016-09-06T16:19:40Z</time>
      </trkpt>
      <trkpt lat="42.8543207" lon="-5.2638084">
        <ele>1419.6</ele>
        <time>2016-09-06T16:19:42Z</time>
      </trkpt>
      <trkpt lat="42.8541436" lon="-5.2636878">
        <ele>1413.2</ele>
        <time>2016-09-06T16:19:45Z</time>
      </trkpt>
      <trkpt lat="42.8540165" lon="-5.2635234">
        <ele>1412.6</ele>
        <time>2016-09-06T16:19:47Z</time>
      </trkpt>
      <trkpt lat="42.853884" lon="-5.2633637">
        <ele>1411.9</ele>
        <time>2016-09-06T16:19:49Z</time>
      </trkpt>
      <trkpt lat="42.8537645" lon="-5.263206">
        <ele>1411.9</ele>
        <time>2016-09-06T16:19:51Z</time>
      </trkpt>
      <trkpt lat="42.853674" lon="-5.2630204">
        <ele>1411.9</ele>
        <time>2016-09-06T16:19:53Z</time>
      </trkpt>
      <trkpt lat="42.8535452" lon="-5.2628992">
        <ele>1412.0</ele>
        <time>2016-09-06T16:19:55Z</time>
      </trkpt>
      <trkpt lat="42.8533964" lon="-5.2628712">
        <ele>1412.0</ele>
        <time>2016-09-06T16:19:57Z</time>
      </trkpt>
      <trkpt lat="42.8532447" lon="-5.2628341">
        <ele>1411.8</ele>
        <time>2016-09-06T16:19:59Z</time>
      </trkpt>
      <trkpt lat="42.8531141" lon="-5.2628115">
        <ele>1411.4</ele>
        <time>2016-09-06T16:20:01Z</time>
      </trkpt>
      <trkpt lat="42.8529951" lon="-5.2627623">
        <ele>1410.6</ele>
        <time>2016-09-06T16:20:03Z</time>
      </trkpt>
      <trkpt lat="42.8529336" lon="-5.2627103">
        <ele>1410.6</ele>
        <time>2016-09-06T16:20:04Z</time>
      </trkpt>
      <trkpt lat="42.8528804" lon="-5.2626185">
        <ele>1410.6</ele>
        <time>2016-09-06T16:20:05Z</time>
      </trkpt>
      <trkpt lat="42.8528409" lon="-5.2625096">
        <ele>1410.6</ele>
        <time>2016-09-06T16:20:06Z</time>
      </trkpt>
      <trkpt lat="42.852823" lon="-5.2623814">
        <ele>1410.6</ele>
        <time>2016-09-06T16:20:07Z</time>
      </trkpt>
      <trkpt lat="42.8528353" lon="-5.2621001">
        <ele>1410.3</ele>
        <time>2016-09-06T16:20:09Z</time>
      </trkpt>
      <trkpt lat="42.8528767" lon="-5.261808">
        <ele>1410.0</ele>
        <time>2016-09-06T16:20:11Z</time>
      </trkpt>
      <trkpt lat="42.8529835" lon="-5.2615379">
        <ele>1409.1</ele>
        <time>2016-09-06T16:20:13Z</time>
      </trkpt>
      <trkpt lat="42.8531663" lon="-5.2613189">
        <ele>1408.0</ele>
        <time>2016-09-06T16:20:15Z</time>
      </trkpt>
      <trkpt lat="42.853382" lon="-5.2612419">
        <ele>1407.6</ele>
        <time>2016-09-06T16:20:17Z</time>
      </trkpt>
      <trkpt lat="42.8535631" lon="-5.2613108">
        <ele>1407.2</ele>
        <time>2016-09-06T16:20:19Z</time>
      </trkpt>
      <trkpt lat="42.8536519" lon="-5.2614528">
        <ele>1406.9</ele>
        <time>2016-09-06T16:20:21Z</time>
      </trkpt>
      <trkpt lat="42.853596" lon="-5.2616771">
        <ele>1406.6</ele>
        <time>2016-09-06T16:20:24Z</time>
      </trkpt>
      <trkpt lat="42.8535092" lon="-5.2618224">
        <ele>1406.5</ele>
        <time>2016-09-06T16:20:27Z</time>
      </trkpt>
      <trkpt lat="42.8533529" lon="-5.2619051">
        <ele>1405.7</ele>
        <time>2016-09-06T16:20:30Z</time>
      </trkpt>
      <trkpt lat="42.8531375" lon="-5.2620281">
        <ele>1404.4</ele>
        <time>2016-09-06T16:20:34Z</time>
      </trkpt>
      <trkpt lat="42.852939" lon="-5.2621339">
        <ele>1400.4</ele>
        <time>2016-09-06T16:20:38Z</time>
      </trkpt>
      <trkpt lat="42.852838" lon="-5.2622263">
        <ele>1397.2</ele>
        <time>2016-09-06T16:20:40Z</time>
      </trkpt>
      <trkpt lat="42.8526799" lon="-5.2623345">
        <ele>1390.3</ele>
        <time>2016-09-06T16:20:43Z</time>
      </trkpt>
      <trkpt lat="42.8525538" lon="-5.2623907">
        <ele>1384.6</ele>
        <time>2016-09-06T16:20:45Z</time>
      </trkpt>
      <trkpt lat="42.8523995" lon="-5.262474">
        <ele>1374.0</ele>
        <time>2016-09-06T16:20:48Z</time>
      </trkpt>
      <trkpt lat="42.8522099" lon="-5.262535">
        <ele>1370.2</ele>
        <time>2016-09-06T16:20:51Z</time>
      </trkpt>
      <trkpt lat="42.8520426" lon="-5.2626081">
        <ele>1360.1</ele>
        <time>2016-09-06T16:20:54Z</time>
      </trkpt>
      <trkpt lat="42.8518768" lon="-5.2626035">
        <ele>1352.6</ele>
        <time>2016-09-06T16:20:57Z</time>
      </trkpt>
      <trkpt lat="42.8517049" lon="-5.2625111">
        <ele>1346.8</ele>
        <time>2016-09-06T16:21:00Z</time>
      </trkpt>
      <trkpt lat="42.8515618" lon="-5.2623817">
        <ele>1343.4</ele>
        <time>2016-09-06T16:21:02Z</time>
      </trkpt>
      <trkpt lat="42.8514133" lon="-5.262301">
        <ele>1339.4</ele>
        <time>2016-09-06T16:21:04Z</time>
      </trkpt>
      <trkpt lat="42.8512981" lon="-5.2622409">
        <ele>1326.1</ele>
        <time>2016-09-06T16:21:06Z</time>
      </trkpt>
      <trkpt lat="42.8511829" lon="-5.262145">
        <ele>1326.1</ele>
        <time>2016-09-06T16:21:08Z</time>
      </trkpt>
      <trkpt lat="42.8510588" lon="-5.2620548">
        <ele>1323.8</ele>
        <time>2016-09-06T16:21:10Z</time>
      </trkpt>
      <trkpt lat="42.8509195" lon="-5.2619396">
        <ele>1321.9</ele>
        <time>2016-09-06T16:21:12Z</time>
      </trkpt>
      <trkpt lat="42.8507834" lon="-5.2618346">
        <ele>1317.5</ele>
        <time>2016-09-06T16:21:14Z</time>
      </trkpt>
      <trkpt lat="42.850656" lon="-5.2616824">
        <ele>1314.8</ele>
        <time>2016-09-06T16:21:16Z</time>
      </trkpt>
      <trkpt lat="42.8505214" lon="-5.261549">
        <ele>1313.7</ele>
        <time>2016-09-06T16:21:18Z</time>
      </trkpt>
      <trkpt lat="42.8503811" lon="-5.2614202">
        <ele>1313.1</ele>
        <time>2016-09-06T16:21:20Z</time>
      </trkpt>
      <trkpt lat="42.8502288" lon="-5.2613002">
        <ele>1312.7</ele>
        <time>2016-09-06T16:21:22Z</time>
      </trkpt>
      <trkpt lat="42.8500925" lon="-5.2611777">
        <ele>1312.5</ele>
        <time>2016-09-06T16:21:24Z</time>
      </trkpt>
      <trkpt lat="42.8499638" lon="-5.2610675">
        <ele>1312.0</ele>
        <time>2016-09-06T16:21:26Z</time>
      </trkpt>
      <trkpt lat="42.8498143" lon="-5.2609738">
        <ele>1311.7</ele>
        <time>2016-09-06T16:21:28Z</time>
      </trkpt>
      <trkpt lat="42.8496216" lon="-5.260845">
        <ele>1309.9</ele>
        <time>2016-09-06T16:21:31Z</time>
      </trkpt>
      <trkpt lat="42.8494954" lon="-5.2607861">
        <ele>1307.6</ele>
        <time>2016-09-06T16:21:33Z</time>
      </trkpt>
      <trkpt lat="42.8493669" lon="-5.2607249">
        <ele>1305.0</ele>
        <time>2016-09-06T16:21:35Z</time>
      </trkpt>
      <trkpt lat="42.8491816" lon="-5.2606665">
        <ele>1303.9</ele>
        <time>2016-09-06T16:21:38Z</time>
      </trkpt>
      <trkpt lat="42.8490674" lon="-5.2606724">
        <ele>1303.1</ele>
        <time>2016-09-06T16:21:40Z</time>
      </trkpt>
      <trkpt lat="42.8489501" lon="-5.2607085">
        <ele>1298.3</ele>
        <time>2016-09-06T16:21:42Z</time>
      </trkpt>
      <trkpt lat="42.8488277" lon="-5.2608514">
        <ele>1294.9</ele>
        <time>2016-09-06T16:21:45Z</time>
      </trkpt>
      <trkpt lat="42.8487208" lon="-5.2610827">
        <ele>1291.8</ele>
        <time>2016-09-06T16:21:48Z</time>
      </trkpt>
      <trkpt lat="42.8486477" lon="-5.2612856">
        <ele>1286.5</ele>
        <time>2016-09-06T16:21:51Z</time>
      </trkpt>
      <trkpt lat="42.848596" lon="-5.2615106">
        <ele>1282.3</ele>
        <time>2016-09-06T16:21:55Z</time>
      </trkpt>
      <trkpt lat="42.8484782" lon="-5.2616691">
        <ele>1277.2</ele>
        <time>2016-09-06T16:21:58Z</time>
      </trkpt>
      <trkpt lat="42.8483526" lon="-5.2615861">
        <ele>1274.3</ele>
        <time>2016-09-06T16:22:00Z</time>
      </trkpt>
      <trkpt lat="42.8481984" lon="-5.2614447">
        <ele>1268.4</ele>
        <time>2016-09-06T16:22:03Z</time>
      </trkpt>
      <trkpt lat="42.8481036" lon="-5.2613147">
        <ele>1268.4</ele>
        <time>2016-09-06T16:22:05Z</time>
      </trkpt>
      <trkpt lat="42.8480066" lon="-5.2611497">
        <ele>1265.7</ele>
        <time>2016-09-06T16:22:07Z</time>
      </trkpt>
      <trkpt lat="42.847899" lon="-5.2610094">
        <ele>1265.0</ele>
        <time>2016-09-06T16:22:09Z</time>
      </trkpt>
      <trkpt lat="42.8477175" lon="-5.2608813">
        <ele>1261.6</ele>
        <time>2016-09-06T16:22:12Z</time>
      </trkpt>
      <trkpt lat="42.8475941" lon="-5.2608412">
        <ele>1258.8</ele>
        <time>2016-09-06T16:22:14Z</time>
      </trkpt>
      <trkpt lat="42.8474888" lon="-5.2608649">
        <ele>1256.4</ele>
        <time>2016-09-06T16:22:16Z</time>
      </trkpt>
      <trkpt lat="42.8473788" lon="-5.2609182">
        <ele>1254.5</ele>
        <time>2016-09-06T16:22:18Z</time>
      </trkpt>
      <trkpt lat="42.8472653" lon="-5.260946">
        <ele>1251.1</ele>
        <time>2016-09-06T16:22:20Z</time>
      </trkpt>
      <trkpt lat="42.8472103" lon="-5.2609583">
        <ele>1251.1</ele>
        <time>2016-09-06T16:22:21Z</time>
      </trkpt>
      <trkpt lat="42.8471522" lon="-5.260959">
        <ele>1251.1</ele>
        <time>2016-09-06T16:22:22Z</time>
      </trkpt>
      <trkpt lat="42.8470981" lon="-5.2609491">
        <ele>1251.1</ele>
        <time>2016-09-06T16:22:23Z</time>
      </trkpt>
      <trkpt lat="42.8470454" lon="-5.260929">
        <ele>1251.1</ele>
        <time>2016-09-06T16:22:24Z</time>
      </trkpt>
      <trkpt lat="42.8469209" lon="-5.2608033">
        <ele>1247.5</ele>
        <time>2016-09-06T16:22:26Z</time>
      </trkpt>
      <trkpt lat="42.8468705" lon="-5.2607501">
        <ele>1247.5</ele>
        <time>2016-09-06T16:22:27Z</time>
      </trkpt>
      <trkpt lat="42.8468184" lon="-5.2606601">
        <ele>1247.5</ele>
        <time>2016-09-06T16:22:28Z</time>
      </trkpt>
      <trkpt lat="42.8467723" lon="-5.2605756">
        <ele>1247.5</ele>
        <time>2016-09-06T16:22:29Z</time>
      </trkpt>
      <trkpt lat="42.8467198" lon="-5.2604876">
        <ele>1247.5</ele>
        <time>2016-09-06T16:22:30Z</time>
      </trkpt>
      <trkpt lat="42.8466165" lon="-5.2602953">
        <ele>1246.5</ele>
        <time>2016-09-06T16:22:32Z</time>
      </trkpt>
      <trkpt lat="42.8464908" lon="-5.2600792">
        <ele>1245.4</ele>
        <time>2016-09-06T16:22:34Z</time>
      </trkpt>
      <trkpt lat="42.8463807" lon="-5.259907">
        <ele>1242.4</ele>
        <time>2016-09-06T16:22:36Z</time>
      </trkpt>
      <trkpt lat="42.8462659" lon="-5.2597315">
        <ele>1239.3</ele>
        <time>2016-09-06T16:22:38Z</time>
      </trkpt>
      <trkpt lat="42.8461528" lon="-5.259553">
        <ele>1236.3</ele>
        <time>2016-09-06T16:22:40Z</time>
      </trkpt>
      <trkpt lat="42.8460299" lon="-5.2593619">
        <ele>1233.2</ele>
        <time>2016-09-06T16:22:42Z</time>
      </trkpt>
      <trkpt lat="42.8459198" lon="-5.2591411">
        <ele>1231.2</ele>
        <time>2016-09-06T16:22:44Z</time>
      </trkpt>
      <trkpt lat="42.8458084" lon="-5.2589072">
        <ele>1229.5</ele>
        <time>2016-09-06T16:22:46Z</time>
      </trkpt>
      <trkpt lat="42.8456983" lon="-5.2586807">
        <ele>1225.2</ele>
        <time>2016-09-06T16:22:48Z</time>
      </trkpt>
      <trkpt lat="42.8456176" lon="-5.2584264">
        <ele>1222.2</ele>
        <time>2016-09-06T16:22:50Z</time>
      </trkpt>
      <trkpt lat="42.8455184" lon="-5.2581605">
        <ele>1219.0</ele>
        <time>2016-09-06T16:22:52Z</time>
      </trkpt>
      <trkpt lat="42.8454149" lon="-5.2579011">
        <ele>1216.4</ele>
        <time>2016-09-06T16:22:54Z</time>
      </trkpt>
      <trkpt lat="42.84531" lon="-5.2576631">
        <ele>1214.3</ele>
        <time>2016-09-06T16:22:56Z</time>
      </trkpt>
      <trkpt lat="42.8452059" lon="-5.2574271">
        <ele>1212.1</ele>
        <time>2016-09-06T16:22:58Z</time>
      </trkpt>
      <trkpt lat="42.8451119" lon="-5.257167">
        <ele>1209.4</ele>
        <time>2016-09-06T16:23:00Z</time>
      </trkpt>
      <trkpt lat="42.8450116" lon="-5.2568969">
        <ele>1206.8</ele>
        <time>2016-09-06T16:23:02Z</time>
      </trkpt>
      <trkpt lat="42.8449125" lon="-5.256585">
        <ele>1203.0</ele>
        <time>2016-09-06T16:23:04Z</time>
      </trkpt>
      <trkpt lat="42.8448441" lon="-5.2563424">
        <ele>1200.4</ele>
        <time>2016-09-06T16:23:06Z</time>
      </trkpt>
      <trkpt lat="42.8447544" lon="-5.256081">
        <ele>1197.3</ele>
        <time>2016-09-06T16:23:08Z</time>
      </trkpt>
      <trkpt lat="42.8446687" lon="-5.2557851">
        <ele>1194.4</ele>
        <time>2016-09-06T16:23:10Z</time>
      </trkpt>
      <trkpt lat="42.844579" lon="-5.2555046">
        <ele>1189.9</ele>
        <time>2016-09-06T16:23:12Z</time>
      </trkpt>
      <trkpt lat="42.8444984" lon="-5.2552572">
        <ele>1186.0</ele>
        <time>2016-09-06T16:23:14Z</time>
      </trkpt>
      <trkpt lat="42.8443901" lon="-5.2550375">
        <ele>1183.3</ele>
        <time>2016-09-06T16:23:16Z</time>
      </trkpt>
      <trkpt lat="42.8442573" lon="-5.2548554">
        <ele>1179.9</ele>
        <time>2016-09-06T16:23:18Z</time>
      </trkpt>
      <trkpt lat="42.8441541" lon="-5.2546395">
        <ele>1177.6</ele>
        <time>2016-09-06T16:23:20Z</time>
      </trkpt>
      <trkpt lat="42.8440919" lon="-5.2543887">
        <ele>1173.4</ele>
        <time>2016-09-06T16:23:22Z</time>
      </trkpt>
      <trkpt lat="42.8440246" lon="-5.2541284">
        <ele>1169.0</ele>
        <time>2016-09-06T16:23:24Z</time>
      </trkpt>
      <trkpt lat="42.8439563" lon="-5.2538912">
        <ele>1165.5</ele>
        <time>2016-09-06T16:23:26Z</time>
      </trkpt>
      <trkpt lat="42.8438705" lon="-5.2536574">
        <ele>1163.7</ele>
        <time>2016-09-06T16:23:28Z</time>
      </trkpt>
      <trkpt lat="42.8437536" lon="-5.2534666">
        <ele>1161.1</ele>
        <time>2016-09-06T16:23:30Z</time>
      </trkpt>
      <trkpt lat="42.8436187" lon="-5.2533778">
        <ele>1159.0</ele>
        <time>2016-09-06T16:23:32Z</time>
      </trkpt>
      <trkpt lat="42.8434959" lon="-5.2533848">
        <ele>1155.5</ele>
        <time>2016-09-06T16:23:34Z</time>
      </trkpt>
      <trkpt lat="42.8434105" lon="-5.2534627">
        <ele>1154.2</ele>
        <time>2016-09-06T16:23:36Z</time>
      </trkpt>
      <trkpt lat="42.8434199" lon="-5.2537286">
        <ele>1151.9</ele>
        <time>2016-09-06T16:23:39Z</time>
      </trkpt>
      <trkpt lat="42.8434525" lon="-5.2539109">
        <ele>1149.9</ele>
        <time>2016-09-06T16:23:41Z</time>
      </trkpt>
      <trkpt lat="42.8433472" lon="-5.2540834">
        <ele>1145.7</ele>
        <time>2016-09-06T16:23:44Z</time>
      </trkpt>
      <trkpt lat="42.8432061" lon="-5.2540033">
        <ele>1144.8</ele>
        <time>2016-09-06T16:23:46Z</time>
      </trkpt>
      <trkpt lat="42.8431331" lon="-5.25378">
        <ele>1143.7</ele>
        <time>2016-09-06T16:23:48Z</time>
      </trkpt>
      <trkpt lat="42.8430994" lon="-5.2535691">
        <ele>1141.1</ele>
        <time>2016-09-06T16:23:50Z</time>
      </trkpt>
      <trkpt lat="42.8429859" lon="-5.2534127">
        <ele>1136.8</ele>
        <time>2016-09-06T16:23:53Z</time>
      </trkpt>
      <trkpt lat="42.8428813" lon="-5.2534286">
        <ele>1132.1</ele>
        <time>2016-09-06T16:23:55Z</time>
      </trkpt>
      <trkpt lat="42.8427843" lon="-5.2535059">
        <ele>1128.4</ele>
        <time>2016-09-06T16:23:57Z</time>
      </trkpt>
      <trkpt lat="42.842667" lon="-5.2536211">
        <ele>1123.9</ele>
        <time>2016-09-06T16:24:00Z</time>
      </trkpt>
      <trkpt lat="42.8426343" lon="-5.2536764">
        <ele>1085.0</ele>
        <time>2016-09-06T16:25:15Z</time>
      </trkpt>
      <trkpt lat="42.8425827" lon="-5.2537231">
        <ele>1084.8</ele>
        <time>2016-09-06T16:25:19Z</time>
      </trkpt>
      <trkpt lat="42.8425399" lon="-5.2537704">
        <ele>1084.6</ele>
        <time>2016-09-06T16:25:25Z</time>
      </trkpt>
      <trkpt lat="42.8424906" lon="-5.2537982">
        <ele>1084.4</ele>
        <time>2016-09-06T16:25:30Z</time>
      </trkpt>
      <trkpt lat="42.8424484" lon="-5.2538463">
        <ele>1084.4</ele>
        <time>2016-09-06T16:25:35Z</time>
      </trkpt>
      <trkpt lat="42.8424133" lon="-5.2538885">
        <ele>1084.2</ele>
        <time>2016-09-06T16:25:39Z</time>
      </trkpt>
      <trkpt lat="42.8423882" lon="-5.2539407">
        <ele>1084.0</ele>
        <time>2016-09-06T16:25:43Z</time>
      </trkpt>
      <trkpt lat="42.8423169" lon="-5.2541004">
        <ele>1082.7</ele>
        <time>2016-09-06T16:25:55Z</time>
      </trkpt>
      <trkpt lat="42.8422322" lon="-5.254254">
        <ele>1081.6</ele>
        <time>2016-09-06T16:26:07Z</time>
      </trkpt>
      <trkpt lat="42.8422027" lon="-5.2543033">
        <ele>1081.4</ele>
        <time>2016-09-06T16:26:11Z</time>
      </trkpt>
      <trkpt lat="42.8421252" lon="-5.2544662">
        <ele>1080.5</ele>
        <time>2016-09-06T16:26:24Z</time>
      </trkpt>
      <trkpt lat="42.842095" lon="-5.2545314">
        <ele>1080.0</ele>
        <time>2016-09-06T16:26:29Z</time>
      </trkpt>
      <trkpt lat="42.8420744" lon="-5.2545978">
        <ele>1079.7</ele>
        <time>2016-09-06T16:26:33Z</time>
      </trkpt>
      <trkpt lat="42.842029" lon="-5.2547063">
        <ele>1079.4</ele>
        <time>2016-09-06T16:26:41Z</time>
      </trkpt>
      <trkpt lat="42.842013" lon="-5.2547657">
        <ele>1078.4</ele>
        <time>2016-09-06T16:26:45Z</time>
      </trkpt>
      <trkpt lat="42.8419851" lon="-5.254831">
        <ele>1078.0</ele>
        <time>2016-09-06T16:26:50Z</time>
      </trkpt>
      <trkpt lat="42.8419675" lon="-5.2549003">
        <ele>1077.5</ele>
        <time>2016-09-06T16:26:57Z</time>
      </trkpt>
      <trkpt lat="42.8420008" lon="-5.2548574">
        <ele>1076.0</ele>
        <time>2016-09-06T16:28:07Z</time>
      </trkpt>
      <trkpt lat="42.8419944" lon="-5.2548702">
        <ele>1076.0</ele>
        <time>2016-09-06T16:28:21Z</time>
      </trkpt>
      <trkpt lat="42.8419944" lon="-5.2548702">
        <time>2016-09-06T16:28:21Z</time>
      </trkpt>
    </trkseg>
    <trkseg>
      <trkpt lat="42.8419944" lon="-5.2548702">
        <time>2016-09-06T16:28:22Z</time>
      </trkpt>
    </trkseg>
  </trk>
</gpx>